[[{"header":{"parameterUnit":"m.s-1","parameterCategory":1,"la1":30.6,"la2":29.2853,"lo1":-89.7004,"lo2":-87.6739,"dy":0.0162,"dx":0.0183,"nx":112,"ny":82,"refTime":"2023-06-17T12:00:00:Z","depth":0,"parameterNumber":2,"parameterNumberName":"U-component_of_WINDS"},"data":[0.0,0.0,0.0,0.0,0.0,0.0,0.0,0.0,0.0,0.0,0.0,0.0,0.0,0.0,0.0,0.0,0.0,0.0,0.0,0.0,0.0,0.0,0.0,0.0,0.0,0.0,0.0,0.0,0.0,0.0,0.0,0.0,0.0,0.0,0.0,0.0,0.0,0.0,0.0,0.0,0.0,0.0,0.0,0.0,0.0,0.0,0.0,0.0,0.0,0.0,0.0,0.0,0.0,0.0,0.0,0.0,0.0,0.0,0.0,0.0,0.0,0.0,0.0,0.0,0.0,0.0,0.0,0.0,0.0,0.0,0.0,0.0,0.0,0.0,0.0,0.0,0.0,0.0,0.0,0.0,0.0,0.0,0.0,0.0,0.0,0.0,0.0,0.0,0.0,0.0,-2.5332,-2.8111,-2.9843,-3.0804,-3.0791,-2.9214,-2.7897,-2.716,0.0,0.0,0.0,0.0,0.0,0.0,0.0,0.0,0.0,0.0,0.0,0.0,0.0,0.0,0.0,0.0,0.0,0.0,0.0,0.0,0.0,0.0,0.0,0.0,0.0,0.0,0.0,0.0,0.0,0.0,0.0,0.0,0.0,0.0,0.0,0.0,0.0,0.0,0.0,0.0,0.0,0.0,0.0,0.0,0.0,0.0,0.0,0.0,0.0,0.0,0.0,0.0,0.0,0.0,0.0,0.0,0.0,0.0,0.0,0.0,0.0,0.0,0.0,0.0,0.0,0.0,0.0,0.0,0.0,0.0,0.0,0.0,0.0,0.0,0.0,0.0,0.0,0.0,0.0,0.0,0.0,0.0,0.0,0.0,0.0,0.0,0.0,0.0,0.0,0.0,0.0,0.0,0.0,0.0,0.0,0.0,0.0,0.0,0.0,0.0,0.0,0.0,0.0,0.0,-2.5525,-2.8942,-3.0203,-3.08,-3.08,-2.9253,-2.8232,-2.8097,0.0,0.0,0.0,0.0,0.0,0.0,0.0,0.0,0.0,0.0,0.0,0.0,0.0,0.0,0.0,0.0,0.0,0.0,0.0,0.0,0.0,0.0,0.0,0.0,0.0,0.0,0.0,0.0,0.0,0.0,0.0,0.0,0.0,0.0,0.0,0.0,0.0,0.0,0.0,0.0,0.0,0.0,0.0,0.0,0.0,0.0,0.0,0.0,0.0,0.0,0.0,0.0,0.0,0.0,0.0,0.0,0.0,0.0,0.0,0.0,0.0,0.0,0.0,0.0,0.0,0.0,0.0,0.0,0.0,0.0,0.0,0.0,0.0,0.0,0.0,0.0,0.0,0.0,0.0,0.0,0.0,0.0,0.0,0.0,0.0,0.0,0.0,0.0,0.0,0.0,0.0,0.0,0.0,0.0,0.0,0.0,0.0,0.0,0.0,0.0,0.0,0.0,0.0,-2.5453,-2.7297,-2.9827,-3.0494,-3.076,-3.0749,-2.9215,-2.8046,-2.7577,-2.4746,0.0,0.0,0.0,0.0,0.0,0.0,0.0,0.0,0.0,0.0,0.0,0.0,0.0,0.0,0.0,0.0,0.0,0.0,0.0,0.0,0.0,0.0,0.0,0.0,0.0,0.0,0.0,0.0,0.0,0.0,0.0,0.0,0.0,0.0,0.0,0.0,0.0,0.0,0.0,0.0,0.0,0.0,0.0,0.0,0.0,0.0,0.0,0.0,0.0,0.0,0.0,0.0,0.0,0.0,0.0,0.0,0.0,0.0,0.0,0.0,0.0,0.0,0.0,0.0,0.0,0.0,0.0,0.0,0.0,0.0,0.0,0.0,0.0,0.0,0.0,0.0,0.0,0.0,0.0,0.0,0.0,0.0,0.0,0.0,0.0,0.0,0.0,0.0,0.0,0.0,0.0,0.0,0.0,0.0,0.0,0.0,0.0,0.0,0.0,0.0,0.0,0.0,-2.6925,-2.8694,-3.0401,-3.0626,-3.0677,-3.0696,-2.9159,-2.7805,-2.6952,-2.4512,0.0,0.0,0.0,0.0,0.0,0.0,0.0,0.0,0.0,0.0,0.0,0.0,0.0,0.0,0.0,0.0,0.0,0.0,0.0,0.0,0.0,0.0,0.0,0.0,0.0,0.0,0.0,0.0,0.0,0.0,0.0,0.0,0.0,0.0,0.0,0.0,0.0,0.0,0.0,0.0,0.0,0.0,0.0,0.0,0.0,0.0,0.0,0.0,0.0,0.0,0.0,0.0,0.0,0.0,0.0,0.0,0.0,0.0,0.0,0.0,0.0,0.0,0.0,0.0,0.0,0.0,0.0,0.0,0.0,0.0,0.0,0.0,0.0,0.0,0.0,0.0,0.0,0.0,0.0,0.0,0.0,0.0,0.0,0.0,0.0,0.0,0.0,0.0,0.0,0.0,0.0,0.0,0.0,0.0,0.0,0.0,0.0,0.0,0.0,0.0,0.0,0.0,-2.6795,-2.857,-3.0308,-3.0509,-3.0568,-3.0678,-2.911,-2.7765,-2.6943,-2.4518,0.0,0.0,0.0,0.0,0.0,0.0,0.0,0.0,0.0,0.0,0.0,0.0,0.0,0.0,0.0,0.0,0.0,0.0,0.0,0.0,0.0,0.0,0.0,0.0,0.0,0.0,0.0,0.0,0.0,0.0,0.0,0.0,0.0,0.0,0.0,0.0,0.0,0.0,0.0,0.0,0.0,0.0,0.0,0.0,0.0,0.0,0.0,0.0,0.0,0.0,0.0,0.0,0.0,0.0,0.0,0.0,0.0,0.0,0.0,0.0,0.0,0.0,0.0,0.0,0.0,0.0,0.0,0.0,0.0,0.0,0.0,0.0,0.0,0.0,0.0,0.0,0.0,0.0,0.0,0.0,0.0,0.0,0.0,0.0,0.0,0.0,0.0,0.0,0.0,0.0,0.0,0.0,0.0,0.0,0.0,0.0,0.0,0.0,0.0,0.0,0.0,0.0,-2.6677,-2.843,0.0,-3.0386,-3.046,-3.052,-2.8991,-2.7443,-2.6054,0.0,0.0,0.0,0.0,0.0,0.0,0.0,0.0,0.0,0.0,0.0,0.0,0.0,0.0,0.0,0.0,0.0,0.0,0.0,0.0,0.0,0.0,0.0,0.0,0.0,0.0,0.0,0.0,0.0,0.0,0.0,0.0,0.0,0.0,0.0,0.0,0.0,0.0,0.0,0.0,0.0,0.0,0.0,0.0,0.0,0.0,0.0,0.0,0.0,0.0,0.0,0.0,0.0,0.0,0.0,0.0,0.0,0.0,0.0,0.0,0.0,0.0,0.0,0.0,0.0,0.0,0.0,0.0,0.0,0.0,0.0,0.0,0.0,0.0,0.0,0.0,0.0,0.0,0.0,0.0,0.0,0.0,0.0,0.0,0.0,0.0,0.0,0.0,0.0,0.0,0.0,0.0,0.0,0.0,0.0,0.0,0.0,0.0,0.0,0.0,0.0,0.0,-2.5178,-2.6696,-2.8261,0.0,-3.0253,-3.0318,-3.0355,-2.8846,-2.7296,-2.5867,0.0,0.0,0.0,0.0,0.0,0.0,0.0,0.0,0.0,0.0,0.0,0.0,0.0,0.0,0.0,0.0,0.0,0.0,0.0,0.0,0.0,0.0,0.0,0.0,0.0,0.0,0.0,0.0,0.0,0.0,0.0,0.0,0.0,0.0,0.0,0.0,0.0,0.0,0.0,0.0,0.0,0.0,0.0,0.0,0.0,0.0,0.0,0.0,0.0,0.0,0.0,0.0,0.0,0.0,0.0,0.0,0.0,0.0,0.0,0.0,0.0,0.0,0.0,0.0,0.0,0.0,0.0,0.0,0.0,0.0,0.0,0.0,0.0,0.0,0.0,0.0,0.0,0.0,0.0,0.0,0.0,0.0,0.0,0.0,0.0,0.0,0.0,0.0,0.0,0.0,0.0,0.0,0.0,0.0,0.0,0.0,0.0,0.0,0.0,0.0,0.0,0.0,-2.5788,-2.6858,-2.8093,-2.9897,-3.0102,-3.0161,-3.0279,-2.8701,-2.7374,0.0,0.0,0.0,0.0,0.0,0.0,0.0,0.0,0.0,0.0,0.0,0.0,0.0,0.0,0.0,0.0,0.0,0.0,0.0,0.0,0.0,0.0,0.0,0.0,0.0,0.0,0.0,0.0,0.0,0.0,0.0,0.0,0.0,0.0,0.0,0.0,0.0,0.0,0.0,0.0,0.0,0.0,0.0,0.0,0.0,0.0,0.0,0.0,0.0,0.0,0.0,0.0,0.0,0.0,0.0,0.0,0.0,0.0,0.0,0.0,0.0,0.0,0.0,0.0,0.0,0.0,0.0,0.0,0.0,0.0,0.0,0.0,0.0,0.0,0.0,0.0,0.0,0.0,0.0,0.0,0.0,0.0,0.0,0.0,0.0,0.0,0.0,0.0,0.0,0.0,0.0,0.0,0.0,0.0,0.0,0.0,0.0,0.0,0.0,0.0,0.0,0.0,0.0,-2.5718,-2.6789,-2.7991,-2.9723,-2.9924,-2.9972,-3.0,-2.8578,-2.7338,-2.6519,0.0,0.0,0.0,0.0,0.0,0.0,0.0,0.0,0.0,0.0,0.0,0.0,0.0,0.0,0.0,0.0,0.0,0.0,0.0,0.0,0.0,0.0,0.0,0.0,0.0,0.0,0.0,0.0,0.0,0.0,0.0,0.0,0.0,0.0,0.0,0.0,0.0,0.0,0.0,0.0,0.0,0.0,0.0,0.0,0.0,0.0,0.0,0.0,0.0,0.0,0.0,0.0,0.0,0.0,0.0,0.0,0.0,0.0,0.0,0.0,0.0,0.0,0.0,0.0,0.0,0.0,0.0,0.0,0.0,0.0,0.0,0.0,0.0,0.0,0.0,0.0,0.0,0.0,0.0,0.0,0.0,0.0,0.0,0.0,0.0,0.0,0.0,0.0,0.0,0.0,0.0,0.0,0.0,0.0,0.0,0.0,0.0,0.0,0.0,0.0,0.0,0.0,-2.6062,-2.6902,-2.7859,-2.9585,-2.9806,-2.9839,-2.9907,-2.8787,-2.7769,-2.6982,0.0,0.0,0.0,0.0,0.0,0.0,0.0,0.0,0.0,0.0,0.0,0.0,0.0,0.0,0.0,0.0,0.0,0.0,0.0,0.0,0.0,0.0,0.0,0.0,0.0,0.0,0.0,0.0,0.0,0.0,0.0,0.0,0.0,0.0,0.0,0.0,0.0,0.0,0.0,0.0,0.0,0.0,0.0,0.0,0.0,0.0,0.0,0.0,0.0,0.0,0.0,0.0,0.0,0.0,0.0,0.0,0.0,0.0,0.0,0.0,0.0,0.0,0.0,0.0,0.0,0.0,0.0,0.0,0.0,0.0,0.0,0.0,0.0,0.0,0.0,0.0,0.0,0.0,0.0,0.0,0.0,0.0,0.0,0.0,0.0,0.0,0.0,0.0,0.0,0.0,0.0,0.0,0.0,0.0,0.0,0.0,0.0,0.0,0.0,0.0,0.0,0.0,-2.6654,-2.7156,-2.7884,-2.9626,-2.9813,-2.9866,-2.9986,-2.9263,-2.8487,-2.7733,0.0,0.0,0.0,0.0,0.0,0.0,0.0,0.0,0.0,0.0,0.0,0.0,0.0,0.0,0.0,0.0,0.0,0.0,0.0,0.0,0.0,0.0,0.0,0.0,0.0,0.0,0.0,0.0,0.0,0.0,0.0,0.0,0.0,0.0,0.0,0.0,0.0,0.0,0.0,0.0,0.0,0.0,0.0,0.0,0.0,0.0,0.0,0.0,0.0,0.0,0.0,0.0,0.0,0.0,0.0,0.0,0.0,0.0,0.0,0.0,-1.5284,0.0,0.0,0.0,0.0,0.0,0.0,0.0,0.0,0.0,0.0,0.0,0.0,0.0,0.0,0.0,0.0,0.0,0.0,0.0,0.0,0.0,0.0,0.0,0.0,0.0,0.0,0.0,0.0,0.0,0.0,0.0,0.0,0.0,0.0,0.0,0.0,0.0,0.0,0.0,0.0,0.0,-2.6674,-2.7624,-2.8708,-3.0376,-3.0659,-3.0734,-3.075,-3.0065,-2.9068,-2.7703,-2.5869,0.0,0.0,0.0,0.0,0.0,0.0,0.0,0.0,0.0,0.0,0.0,0.0,0.0,0.0,0.0,0.0,0.0,0.0,0.0,0.0,0.0,0.0,0.0,0.0,0.0,0.0,0.0,0.0,0.0,0.0,0.0,0.0,0.0,0.0,0.0,0.0,0.0,0.0,0.0,0.0,0.0,0.0,0.0,0.0,0.0,0.0,0.0,0.0,0.0,0.0,0.0,0.0,0.0,0.0,0.0,0.0,0.0,0.0,0.0,0.0,-1.598,0.0,0.0,0.0,0.0,0.0,0.0,0.0,0.0,0.0,0.0,0.0,0.0,0.0,0.0,0.0,0.0,0.0,0.0,0.0,0.0,0.0,0.0,0.0,0.0,0.0,0.0,0.0,0.0,0.0,0.0,0.0,0.0,0.0,0.0,0.0,0.0,0.0,0.0,0.0,0.0,-2.6674,-2.8072,-2.9362,-3.0616,-3.1241,-3.1412,-3.1034,-3.0708,-2.9845,-2.8284,-2.6625,0.0,0.0,0.0,0.0,0.0,0.0,0.0,0.0,0.0,0.0,0.0,0.0,0.0,0.0,0.0,0.0,0.0,0.0,0.0,0.0,0.0,0.0,0.0,0.0,0.0,0.0,0.0,0.0,0.0,0.0,0.0,0.0,0.0,0.0,0.0,0.0,0.0,0.0,0.0,0.0,0.0,0.0,0.0,0.0,0.0,0.0,0.0,0.0,0.0,0.0,0.0,0.0,0.0,-2.3095,-2.2903,-2.2332,-2.2288,-2.1975,-2.1367,-1.9552,-1.8172,-1.722,0.0,0.0,0.0,0.0,0.0,0.0,0.0,0.0,0.0,0.0,0.0,0.0,0.0,0.0,0.0,0.0,0.0,0.0,0.0,0.0,0.0,0.0,0.0,0.0,0.0,-2.4949,-2.4703,0.0,0.0,0.0,0.0,0.0,0.0,0.0,0.0,0.0,0.0,0.0,0.0,-2.6916,-2.8631,-3.0034,-3.0837,-3.1822,-3.2147,-3.1487,-3.1426,-3.0734,-2.914,-2.766,-2.6327,0.0,0.0,0.0,0.0,0.0,0.0,0.0,0.0,0.0,0.0,0.0,0.0,0.0,0.0,0.0,0.0,0.0,0.0,0.0,0.0,0.0,0.0,0.0,0.0,0.0,0.0,0.0,0.0,0.0,0.0,0.0,0.0,-1.7734,-1.7966,0.0,0.0,0.0,0.0,0.0,0.0,0.0,0.0,0.0,0.0,0.0,0.0,0.0,-2.5582,-2.6028,-2.6303,-2.6228,-2.5747,-2.5905,-2.5552,-2.4848,-2.4807,-2.4165,-2.2956,-2.2035,0.0,-1.8659,-1.7747,0.0,0.0,0.0,0.0,0.0,0.0,0.0,0.0,0.0,0.0,0.0,0.0,0.0,0.0,0.0,0.0,0.0,0.0,0.0,0.0,0.0,0.0,-2.5063,-2.6878,-2.7481,-2.7605,0.0,-2.5845,-2.4166,-2.3409,0.0,0.0,0.0,0.0,0.0,0.0,0.0,0.0,-2.7714,-2.9467,-3.0889,-3.1755,-3.2662,-3.3216,-3.3165,-3.2599,-3.1588,-3.0034,-2.907,-2.7548,-2.5287,-2.4771,0.0,0.0,0.0,0.0,0.0,0.0,0.0,0.0,0.0,0.0,0.0,0.0,0.0,0.0,0.0,0.0,0.0,0.0,0.0,0.0,0.0,0.0,0.0,0.0,0.0,0.0,0.0,0.0,0.0,-1.8926,-1.9777,-2.0759,-2.1143,-2.15,0.0,0.0,0.0,0.0,0.0,0.0,0.0,0.0,0.0,-2.6977,-2.7397,-2.7771,-2.8178,-2.8391,-2.8464,-2.8382,-2.7939,-2.7357,-2.667,-2.607,-2.5246,-2.4196,-2.3058,-2.1864,-2.0514,-1.9089,-1.8313,-1.7996,0.0,0.0,0.0,0.0,-1.7718,-1.7985,-1.8322,-1.8486,0.0,0.0,0.0,0.0,0.0,0.0,0.0,0.0,0.0,0.0,0.0,0.0,0.0,-2.9302,-2.9945,-3.0185,-3.0329,-2.9549,-2.8147,0.0,-2.5456,-2.5293,-2.4853,0.0,0.0,0.0,0.0,-2.7246,-2.7933,-2.9962,-3.1499,-3.196,-3.3285,-3.3972,-3.3524,-3.3316,-3.2492,-3.0871,-3.0052,-2.893,-2.7338,-2.5913,-2.445,0.0,0.0,0.0,0.0,0.0,0.0,0.0,0.0,0.0,0.0,0.0,0.0,0.0,0.0,0.0,0.0,0.0,0.0,0.0,0.0,0.0,0.0,0.0,0.0,0.0,0.0,0.0,0.0,-2.1066,-2.1942,-2.3256,-2.3723,-2.4179,0.0,0.0,0.0,0.0,0.0,0.0,-2.801,-2.7765,-2.8184,-2.9438,-2.9814,-3.0035,-3.0086,-3.0308,-3.0335,-3.0251,-2.9454,-2.8698,-2.7921,-2.6903,-2.5966,-2.5083,-2.3715,-2.278,-2.2092,-2.0325,-1.9382,-1.9055,-1.8535,-1.829,-1.8253,-1.8437,-1.8647,-1.8917,-1.9251,-1.949,-1.97,-1.9951,0.0,-2.0036,-2.0583,0.0,0.0,0.0,0.0,-2.5654,-2.7679,-2.8568,-2.9386,-3.1162,-3.1789,-3.2029,-3.2225,-3.2269,-3.1432,0.0,-2.7979,-2.7772,-2.7268,0.0,0.0,0.0,0.0,-2.8144,-2.8556,-3.0454,-3.1898,-3.2213,-3.3695,-3.4402,-3.3863,-3.379,-3.3156,-3.1692,-3.0895,-3.0004,-2.8921,-2.7045,-2.5736,-2.5088,0.0,0.0,0.0,0.0,0.0,0.0,0.0,0.0,0.0,0.0,0.0,0.0,0.0,0.0,0.0,0.0,0.0,0.0,0.0,0.0,0.0,0.0,0.0,0.0,0.0,0.0,0.0,0.0,0.0,-2.4227,-2.5582,0.0,0.0,0.0,0.0,-2.8514,-2.8986,-2.9837,-3.1212,-3.082,-3.1123,-3.2353,-3.258,-3.2492,-3.1972,-3.2144,-3.1846,-3.1049,-3.0417,-2.9554,-2.8421,-2.7507,-2.6499,-2.5517,-2.4273,-2.349,-2.2885,-2.1117,-1.996,-1.9365,-1.9186,-1.8803,-1.8363,-1.9085,-1.9428,-1.9653,-2.0575,-2.0789,-2.0612,-2.05,-2.0501,-2.0681,-2.1471,-2.2057,0.0,0.0,-2.5969,-2.6995,-2.9055,-3.0004,-3.07,-3.2029,-3.2566,-3.2767,-3.2906,-3.2999,-3.2545,0.0,-3.0511,-2.9903,-2.8227,0.0,-2.7864,-2.792,-2.7975,-2.8547,-3.0083,-3.1108,-3.2011,-3.286,-3.3881,-3.4561,-3.463,-3.4074,-3.3334,-3.2495,-3.1692,-3.051,-2.8869,-2.8665,-2.748,-2.5063,-2.4854,0.0,0.0,0.0,0.0,0.0,0.0,0.0,0.0,0.0,0.0,0.0,0.0,0.0,0.0,0.0,0.0,0.0,0.0,0.0,0.0,0.0,0.0,0.0,0.0,0.0,0.0,0.0,0.0,-2.74,-2.8425,0.0,-2.966,-3.0123,-3.0717,-3.1525,-3.1573,-3.209,-3.3302,-3.296,-3.296,-3.343,-3.3242,-3.3043,-3.2747,-3.2401,-3.2064,-3.1705,-3.0829,-2.9901,-2.8923,-2.7701,-2.6557,-2.5468,-2.3985,-2.2901,-2.2132,-2.0826,-2.0095,-1.9745,-1.9249,-1.8829,-1.8547,-1.9007,-1.9297,-1.9506,-2.0145,-2.043,-2.0742,-2.1627,-2.2264,-2.2814,-2.3608,-2.4237,-2.4964,-2.6227,-2.7059,-2.8009,-2.978,-3.0688,-3.1433,-3.2676,-3.3241,-3.3696,-3.4445,-3.4203,-3.3817,-3.3888,-3.2493,-3.1098,-3.042,-3.0263,-3.0212,-3.0189,-3.0189,-3.041,-3.1046,-3.1826,-3.2508,-3.2953,-3.3808,-3.445,-3.4623,-3.4507,-3.3828,-3.2519,-3.221,-3.1314,-2.9642,-2.8988,-2.801,-2.6569,-2.5442,-2.4028,0.0,0.0,0.0,0.0,0.0,0.0,0.0,0.0,0.0,0.0,0.0,0.0,0.0,0.0,0.0,0.0,0.0,0.0,0.0,0.0,0.0,0.0,0.0,0.0,0.0,0.0,-2.9202,-2.9912,-3.0941,-3.1736,-3.2114,-3.2501,-3.3049,-3.3821,-3.3813,-3.4134,-3.4986,-3.457,-3.4324,-3.4453,-3.3893,-3.3452,-3.3143,-3.2399,-3.1874,-3.1519,-3.048,-2.949,-2.8502,-2.7206,-2.5995,-2.4862,-2.3406,-2.2269,-2.1459,-2.0548,-1.9991,-1.9617,-1.9431,-1.9207,-1.9137,-1.9521,-1.9739,-1.9761,-2.0375,-2.0736,-2.1128,-2.2347,-2.3151,-2.3733,-2.4525,-2.5239,-2.5986,-2.6995,-2.7856,-2.8787,-3.0306,-3.1185,-3.1983,-3.3296,-3.3913,-3.4458,-3.5502,-3.534,-3.5168,-3.5795,-3.4049,-3.2384,-3.2059,-3.1906,-3.1733,-3.1414,-3.1352,-3.1444,-3.1763,-3.2284,-3.2783,-3.3216,-3.3857,-3.4293,-3.4495,-3.4384,-3.3732,-3.2411,-3.2107,-3.1348,-2.9964,-2.9295,-2.8582,-2.7735,-2.5781,-2.4486,-2.3921,0.0,0.0,0.0,0.0,0.0,0.0,0.0,0.0,0.0,0.0,0.0,0.0,0.0,0.0,0.0,0.0,0.0,0.0,0.0,0.0,0.0,0.0,0.0,-2.8388,-2.9705,-3.0993,-3.165,-3.3072,-3.3941,-3.3734,-3.5007,-3.5675,-3.5288,-3.5685,-3.6077,-3.6346,-3.5675,-3.5376,-3.5509,-3.4673,-3.3885,-3.3161,-3.2296,-3.1392,-3.045,-2.9442,-2.8285,-2.7136,-2.5963,-2.4838,-2.3717,-2.2542,-2.1721,-2.1108,-2.0264,-1.9559,-1.9051,-1.9736,-1.9991,-2.0053,-2.0634,-2.07,-2.0617,-2.1394,-2.1764,-2.1913,-2.2643,-2.3052,-2.3398,-2.414,-2.4917,-2.5828,-2.7318,-2.8268,-2.9239,-3.0683,-3.1545,-3.2407,-3.3847,-3.4447,-3.4987,-3.6007,-3.638,-3.6482,-3.65,-3.5172,-3.3813,-3.3019,-3.2713,-3.2281,-3.1503,-3.1297,0.0,-3.2338,-3.2484,-3.2838,-3.3688,-3.3972,-3.4148,-3.4269,-3.368,-3.2964,-3.2238,-3.1354,-3.0528,-2.9718,-2.9682,-2.9288,-2.8407,-2.6008,-2.4735,-2.4666,0.0,0.0,0.0,0.0,0.0,0.0,0.0,0.0,0.0,0.0,0.0,0.0,0.0,0.0,0.0,0.0,0.0,0.0,0.0,0.0,0.0,0.0,-3.0277,-2.9978,-3.2367,-3.4183,-3.4265,-3.5596,-3.6406,-3.6142,-3.6283,-3.6433,-3.6552,-3.6961,-3.7238,-3.7294,-3.7223,-3.6831,-3.6107,-3.5331,-3.4195,-3.2646,-3.1827,-3.0701,-2.9219,-2.8076,-2.7156,-2.6448,-2.4908,-2.4015,-2.347,-2.212,-2.1147,-2.0467,-1.9903,-1.9352,-1.8804,-1.9307,-1.9254,-1.9058,-1.9857,-2.0281,-2.0614,-2.135,-2.1799,-2.2153,-2.2959,-2.3663,-2.4309,-2.5091,-2.5835,-2.6585,-2.758,-2.8498,-2.9392,-3.0285,-3.1517,-3.2689,-3.3442,-3.4467,-3.5553,-3.657,-3.6515,-3.646,-3.703,-3.6227,-3.5227,-3.4532,-3.433,-3.3927,-3.303,-3.2865,0.0,-3.3089,-3.3125,-3.3284,-3.3625,-3.3698,-3.3815,-3.4074,-3.343,-3.2705,-3.2019,-3.1216,-3.0412,-2.9664,-2.9589,-2.9138,-2.8278,-2.6954,-2.6302,0.0,0.0,0.0,0.0,0.0,0.0,0.0,0.0,0.0,0.0,0.0,0.0,0.0,0.0,0.0,0.0,0.0,0.0,0.0,0.0,0.0,0.0,-3.1627,-3.2804,-3.2704,-3.4298,-3.5655,-3.6195,-3.7224,-3.7794,-3.7521,-3.779,-3.7941,-3.7881,-3.8223,-3.828,-3.7862,-3.7611,-3.7003,-3.598,-3.5027,-3.377,-3.225,-3.1261,-3.0041,-2.8638,-2.7367,-2.6407,-2.5616,-2.4249,-2.3261,0.0,-2.1505,-2.0541,-1.9814,-1.923,-1.8798,0.0,0.0,0.0,0.0,0.0,-2.0359,-2.0769,-2.1386,-2.1753,-2.2187,-2.3017,-2.378,-2.458,-2.5272,-2.6042,-2.6774,-2.7464,-2.8304,-2.9227,-2.9865,-3.1183,-3.2593,-3.3442,-3.4677,-3.595,-3.6996,-3.7033,-3.703,-3.7485,-3.7116,0.0,-3.567,-3.5333,-3.483,-3.3961,-3.3774,-3.3586,-3.325,-3.3214,-3.3226,-3.3386,-3.3415,-3.3559,-3.3815,-3.287,0.0,0.0,0.0,-2.9876,-2.945,-2.9725,0.0,0.0,0.0,-2.8334,-2.8334,0.0,0.0,0.0,-2.6323,-2.6976,0.0,0.0,0.0,0.0,0.0,0.0,0.0,0.0,0.0,0.0,0.0,0.0,0.0,0.0,0.0,0.0,-3.3852,-3.5857,-3.6002,-3.5913,-3.63,-3.7564,-3.8243,-3.8503,-3.8287,-3.9254,-3.9634,-3.9067,-3.9384,-3.9178,-3.8218,0.0,0.0,0.0,0.0,-3.3125,-3.194,-3.0787,-2.9517,-2.8201,-2.7027,-2.5942,-2.478,-2.3699,-2.2767,-2.1752,-2.0809,-2.0009,-1.9341,-1.86,-1.8246,-1.8221,-1.8753,-1.9161,-1.9413,-2.0213,-2.0687,-2.1009,-2.1497,0.0,0.0,-2.2848,-2.3649,-2.4408,-2.4991,-2.577,-2.6563,-2.7086,-2.7913,-2.8779,-2.9361,-3.0713,-3.2261,-3.3585,-3.4909,-3.6209,-3.7161,-3.7542,-3.7703,-3.7667,-3.7596,-3.7309,-3.6452,-3.5915,-3.5298,-3.4458,-3.4112,-3.371,-3.3033,-3.2905,-3.2898,-3.3024,0.0,0.0,-3.3502,-3.2273,-3.1549,-3.1673,-3.0282,-2.9455,-2.9455,-3.0134,-3.0498,-3.0498,-3.0428,-3.0404,-3.0404,-3.0277,-3.0225,-3.0239,-2.8749,-2.8858,0.0,0.0,0.0,0.0,0.0,0.0,0.0,0.0,0.0,0.0,0.0,0.0,0.0,0.0,0.0,-3.4443,-3.5416,-3.6442,-3.8331,-3.8473,-3.8429,-3.8556,-3.9006,-3.9446,-3.9816,-3.9743,-3.9656,-3.9705,-3.9935,-3.9604,-3.8552,-3.8183,0.0,-3.6228,-3.5045,-3.3489,-3.164,-3.0437,-2.889,-2.7027,0.0,0.0,-2.4164,-2.2838,-2.2207,-2.1942,-2.0784,-2.0067,-1.959,-1.9092,-1.8629,-1.8221,-1.86,-1.9091,-1.9627,-2.0324,-2.0772,-2.1125,-2.171,-2.2102,-2.2396,-2.2911,-2.3603,-2.4234,-2.4892,-2.555,0.0,-2.6811,-2.7565,-2.8352,-2.8889,-3.0567,-3.2319,-3.2947,-3.461,-3.616,-3.6545,-3.686,-3.7038,-3.6943,-3.6843,-3.6729,-3.6417,-3.6191,-3.5741,-3.4765,-3.4076,-3.3617,-3.3424,-3.2825,-3.2488,-3.2672,-3.2752,-3.2894,-3.3178,-3.2506,-3.2101,-3.2237,-3.1519,-3.1059,-3.1059,-3.1158,-3.1182,-3.1126,-3.1057,-3.1031,-3.1031,-3.0893,-3.1437,-3.2604,-3.1057,-3.1138,0.0,0.0,0.0,0.0,0.0,0.0,0.0,0.0,0.0,0.0,0.0,-2.8907,-3.0387,0.0,-3.3905,-3.5617,-3.6935,-3.8101,-3.9148,-3.9535,-3.9619,-3.9371,-3.9425,-3.9661,-4.0137,-4.0083,-4.0077,-4.0273,-4.0429,-4.0075,-3.9024,-3.84,-3.744,-3.6041,-3.4751,-3.3114,-3.1194,-3.0018,-2.8504,-2.6618,-2.5605,-2.4604,-2.3754,-2.2544,-2.1979,-2.166,-2.0564,-2.0,-1.9788,-1.9167,-1.8682,-1.8471,-1.8753,-1.9082,-1.9548,-2.0333,-2.0827,-2.1188,-2.1772,-2.2183,-2.2474,-2.2948,-2.3543,-2.4189,-2.4835,-2.5453,-2.6111,-2.6549,-2.7276,-2.7944,-2.8367,-2.9895,-3.1494,-3.2356,-3.3851,-3.5203,-3.5778,-3.6002,-3.6096,-3.5994,-3.5882,-3.5769,-3.5725,-3.5591,-3.5346,-3.4883,-3.4137,-3.3509,-3.3127,-3.2416,-3.2038,-3.2335,-3.2404,-3.2588,-3.288,-3.2457,-3.2091,-3.181,-3.1514,-3.1352,-3.1352,-3.1704,-3.1871,-3.1845,-3.2593,-3.2966,-3.2966,-3.3194,-3.3671,-3.438,-3.3592,-3.3584,0.0,0.0,0.0,0.0,0.0,0.0,0.0,-2.4577,-2.6373,-2.7653,-2.9427,-3.1072,-3.2147,-3.4282,-3.6009,-3.6345,-3.8252,-3.9673,-3.9567,-3.9973,-4.0194,-3.9914,-3.9575,-3.9581,-4.0037,-4.0245,-4.0468,-4.0636,-4.0739,-4.0351,-3.9315,-3.8262,-3.7008,-3.5518,-3.4095,-3.2437,-3.0651,-2.9362,-2.7897,-2.6218,-2.5303,-2.4341,-2.3329,-2.2362,-2.1741,-2.1293,-2.0292,-1.9837,-1.9786,-1.9138,-1.8812,-1.874,-1.8932,-1.9231,-1.9539,-2.0411,-2.0954,-2.1387,-2.1875,-2.2308,-2.2669,-2.2973,-2.3543,-2.4189,-2.4835,-2.5397,-2.5988,-2.6404,-2.6982,-2.7625,-2.7993,-2.9168,-3.0529,-3.1785,-3.2905,-3.3985,-3.4948,-3.5048,-3.5015,-3.4968,-3.4797,-3.4671,-3.4624,-3.4609,-3.4601,-3.4899,-3.4244,-3.3529,-3.2884,-3.2171,-3.1771,-3.1982,-3.2073,-3.2301,-3.2669,-3.2463,-3.2144,-3.1674,-3.1619,-3.1619,-3.1646,-3.2429,-3.2839,-3.2839,-3.42,-3.4915,-3.4915,-3.5395,-3.5645,-3.5741,-3.5659,-3.5626,-2.095,-2.1599,-2.2034,-2.192,-2.2928,-2.4299,0.0,-2.7092,-2.8594,-2.9869,-3.1259,-3.2608,-3.3729,-3.4977,-3.6342,-3.7943,-3.9058,-3.9885,-4.0378,-4.0373,-4.0194,-3.9914,-3.9551,-3.9527,-4.0037,-4.0229,-4.0392,-4.0517,-4.0585,-4.0086,-3.8832,-3.7748,-3.6492,-3.4993,-3.3575,-3.1757,-2.9683,-2.8255,-2.6802,-2.5218,-2.422,-2.3438,-2.2891,-2.1928,-2.1293,-2.0997,-2.0192,-1.9754,-1.9621,-1.9217,-1.9042,-1.9025,-1.9201,-1.946,-1.9942,-2.0809,-2.1471,-2.204,-2.2206,-2.2728,-2.3275,-2.3158,-2.3543,-2.4189,-2.4835,-2.5397,-2.5988,-2.6404,-2.6959,-2.7488,-2.791,-2.8842,-3.0,-3.1181,-3.2127,-3.303,-3.4022,-3.4086,-3.3921,-3.382,-3.3684,-3.3531,-3.3443,-3.3511,-3.3903,-3.4841,-3.4334,-3.3707,-3.3229,-3.2553,-3.1987,-3.1685,-3.1839,-3.2127,-3.2669,-3.2777,-3.2911,-3.314,-3.3151,-3.3179,-3.3237,-3.4018,-3.4407,-3.4365,-3.5222,-3.5675,-3.5675,-3.5684,-3.5984,-3.6568,-3.6484,-3.6415,-2.0971,-2.1904,-2.267,-2.3012,-2.4489,-2.6115,-2.6973,-2.8368,-2.9872,-3.1206,-3.2238,-3.3292,-3.4539,-3.6103,-3.7468,0.0,-3.9535,-4.0457,-4.0584,-4.0446,-4.0194,-3.9914,-3.9551,-3.9527,-4.0055,-4.0142,-4.0259,-4.0475,-4.0493,-3.9935,-3.8778,-3.769,-3.6368,-3.4795,-3.2917,-3.1052,-2.9136,-2.7408,-2.5812,-2.4315,-2.3525,-2.2758,-2.2187,-2.164,-2.1114,-2.0555,-2.0473,-2.0201,-1.9968,-1.9826,-1.9844,-1.9925,-1.9864,-2.0098,-2.0557,-2.1041,-2.1655,-2.2307,-2.2644,-2.3029,-2.3394,-2.3554,-2.3812,-2.4189,-2.4835,-2.5397,-2.5948,-2.6258,-2.6803,-2.7335,-2.7675,-2.8271,-2.9049,-3.0223,-3.1097,-3.1892,-3.2708,-3.2997,-3.3039,-3.2949,-3.2718,-3.2501,-3.2446,-3.2586,-3.2911,-3.3511,-3.3387,-3.3237,-3.3222,-3.2343,-3.1683,-3.1551,-3.1839,-3.2161,-3.2539,-3.2787,-3.2979,-3.3152,-3.3646,-3.396,-3.3972,-3.4749,-3.5151,-3.5119,-3.5927,-3.6374,-3.6374,-3.6826,-3.7156,-3.7413,-3.7291,-3.7202,-2.1165,-2.2178,-2.3203,-2.4081,-2.5656,-2.7224,-2.8009,-2.9231,-3.0582,-3.1964,-3.2815,-3.3686,-3.4856,-3.6557,-3.7929,-3.8339,-3.963,-4.0571,-4.0616,-4.0446,-4.0194,-3.9935,-3.9551,-3.9434,-3.9723,-3.9781,-3.9899,-4.0158,-4.0135,-3.9682,-3.8778,-3.7632,-3.6291,-3.4662,-3.2581,-3.0561,-2.8686,-2.6749,-2.4991,-2.3594,-2.2808,-2.2123,-2.1665,-2.1392,-2.0917,-2.0464,-2.0736,-2.0744,-2.0602,-2.0345,-2.0437,-2.068,-2.0502,-2.0722,-2.1098,-2.1502,-2.2025,-2.2713,-2.3176,-2.3594,-2.3923,-2.4178,-2.4356,-2.4543,-2.5135,-2.5591,-2.6002,-2.6272,-2.675,-2.7269,-2.7575,-2.789,-2.8403,-2.9474,-3.0152,-3.0744,-3.1654,-3.1913,-3.2041,-3.213,-3.1823,-3.1595,-3.1667,-3.1781,-3.1951,-3.2327,-3.2541,-3.278,-3.3048,-3.2364,-3.1917,-3.2071,-3.2403,-3.2735,-3.3038,-3.3261,-3.3428,-3.3577,-3.4193,-3.458,-3.4562,-3.5367,-3.5849,-3.5849,-3.669,-3.712,-3.7136,-3.7713,-3.7967,-3.7899,-3.781,-3.7685,-2.2344,-2.3192,-2.4107,-2.5424,-2.6357,-2.738,-2.8837,-2.9791,-3.075,-3.2117,-3.3096,-3.3894,-3.4586,-3.5828,-3.7109,-3.8224,-3.9144,-3.9967,-4.0614,-4.0462,-4.0194,-3.9916,-3.9532,-3.921,0.0,-3.8997,-3.9133,-3.9329,-3.9312,-3.9176,-3.8745,-3.7483,-3.6151,-3.4662,-3.2471,-3.0344,-2.8217,-2.6137,-2.4397,-2.3027,-2.2038,-2.1393,-2.122,-2.0952,-2.0907,-2.0997,-2.0997,-2.1096,-2.1329,-2.0689,-2.0755,-2.1078,-2.0968,-2.1108,-2.1578,-2.2327,-2.2927,-2.3379,-2.3804,-2.4462,-2.5056,-2.5204,-2.5318,-2.5461,-2.5918,-2.6078,-2.6165,-2.6404,-2.6841,-2.7284,-2.769,-2.7905,-2.8271,-2.9326,-2.9412,-2.9628,-3.1089,-3.0964,-3.0773,-3.1417,-3.1161,-3.0895,-3.1073,-3.1058,-3.1204,-3.1667,-3.2104,-3.25,-3.2768,-3.2883,-3.3084,-3.3481,-3.3774,-3.4073,-3.4434,-3.4528,-3.4674,-3.503,-3.5117,-3.5202,-3.5285,-3.6159,-3.6658,-3.6658,-3.7467,-3.788,-3.7948,-3.7984,-3.7967,-3.7899,-3.7917,-3.7793,-2.1934,-2.3257,-2.4625,-2.5683,-2.6816,-2.7953,-2.8799,-2.9629,-3.0482,-3.147,-3.2438,-3.3351,-3.422,-3.5564,-3.6765,-3.7375,-3.8685,-3.9695,-3.9885,-4.0126,-4.0212,-3.9998,-3.9575,0.0,0.0,0.0,0.0,-3.9294,-3.9295,-3.9142,-3.8745,-3.7632,-3.6291,-3.4662,-3.2188,-3.0057,-2.8192,-2.5828,-2.4028,-2.2788,-2.1787,-2.1293,-2.121,-2.0912,-2.0934,-2.124,-2.124,-2.1415,-2.1553,-2.1419,-2.1433,-2.1519,-2.1494,-2.1797,-2.2402,-2.3075,-2.3728,-2.4264,-2.4531,-2.4945,-2.5361,-2.5961,-2.6156,-2.6304,-2.6886,-2.6875,-2.6775,-2.7198,-2.7229,-2.7284,-2.769,-2.7905,-2.8115,-2.8688,-2.9073,-2.9434,-2.9724,-3.0235,-3.0638,-3.0594,-3.0719,-3.0762,-3.0762,-3.094,-3.1351,-3.2064,-3.2617,-3.2972,-3.2917,-3.3297,-3.3484,-3.333,-3.368,-3.4002,-3.4125,-3.4391,-3.4616,-3.4745,-3.5366,-3.5775,-3.5829,-3.6666,-3.7129,-3.7148,-3.7524,-3.7721,-3.781,-3.7898,-3.8151,-3.8546,-3.8546,-3.8759,-2.1822,-2.3259,-2.4688,-2.5678,-2.6813,-2.7815,-2.84,-2.918,-2.9907,-3.0494,-3.1376,-3.2313,-3.3035,-3.4448,-3.5717,-3.6381,-3.8007,-3.9252,-3.9471,-3.9981,-4.025,-4.0038,-3.9599,-3.9192,0.0,0.0,0.0,-3.937,-3.9081,-3.8856,-3.8854,-3.7764,-3.6368,-3.4846,-3.2192,-3.0063,-2.8397,-2.5865,-2.3913,-2.2488,-2.1643,-2.123,-2.1158,-2.0964,-2.1024,-2.1428,-2.1428,-2.1599,-2.1805,-2.1807,-2.195,-2.2114,-2.2126,-2.2478,-2.3075,-2.3666,-2.4311,-2.4933,-2.5241,-2.5558,-2.6076,-2.687,-2.7143,-2.7291,-2.776,-2.7752,-2.7653,-2.8028,-2.79,-2.7794,-2.8152,-2.8122,-2.8103,-2.8348,-2.8686,-2.902,-2.9048,-2.9554,-3.0023,-3.0182,-3.0366,-3.0543,-3.0718,-3.1132,-3.164,-3.2287,-3.2958,-3.3395,-3.342,-3.3809,-3.4068,-3.4017,-3.4313,-3.4607,-3.4794,-3.5013,-3.5209,-3.5346,-3.5931,-3.6327,-3.6423,-3.6938,-3.7279,-3.7354,-3.7733,-3.8005,-3.8078,-3.8492,-3.8904,-3.9333,-3.9333,-3.9526,-2.2122,-2.3237,-2.4244,-2.5479,-2.6336,-2.7086,-2.7715,-2.8465,-2.9032,-2.919,-3.0043,-3.0811,-3.1206,-3.2543,-3.4026,-3.5327,-3.7108,-3.8595,-3.9325,-3.9995,-4.0304,-4.0019,-3.9637,-3.9266,0.0,0.0,0.0,-3.954,0.0,-3.8481,-3.9176,-3.7863,-3.6492,-3.5175,-3.2473,-3.0283,-2.8743,-2.6223,-2.3998,-2.2101,-2.1502,-2.1271,-2.1201,-2.1021,-2.1173,-2.1505,-2.1505,-2.1744,-2.2116,-2.194,-2.2224,-2.2699,-2.2724,-2.315,-2.3751,-2.4334,-2.4909,-2.5453,-2.5828,-2.644,-2.7162,-2.7842,-2.818,-2.8366,-2.8671,-2.8768,-2.8781,-2.892,-2.8847,-2.8741,-2.897,-2.8621,-2.8281,-2.8411,-2.8348,-2.8403,-2.9046,-2.8946,-2.9094,-3.0208,-3.0196,-3.0277,-3.1028,-3.1655,-3.215,-3.2398,-3.3049,-3.3642,-3.405,-3.4448,-3.4883,-3.5333,-3.5515,-3.5783,-3.6216,-3.6301,-3.6402,-3.6643,-3.6748,-3.6829,-3.6987,-3.7066,-3.7217,-3.7329,-3.8188,-3.8712,-3.8823,-3.9687,-4.0101,-4.0155,-4.0137,-4.0116,-2.2223,-2.3709,-2.4985,-2.5425,-2.6258,-2.7046,-2.7203,-2.7338,-2.7659,-2.8394,-2.9075,-2.9791,-3.0695,-3.1776,-3.2958,-3.4337,-3.612,-3.7656,-3.8497,-3.9631,-4.0302,-4.0022,-4.0107,-4.0095,-3.9815,-3.987,0.0,0.0,-3.9614,-3.9137,-3.9209,-3.7994,-3.6692,-3.5385,-3.2737,-3.0623,-2.917,-2.602,-2.3875,-2.2777,-2.2327,-2.1869,-2.1444,-2.1366,-2.1597,-2.194,-2.194,-2.2169,-2.2546,-2.2668,-2.2881,-2.3165,-2.3501,-2.3948,-2.4504,-2.5111,-2.5664,-2.6208,-2.6892,-2.7297,-2.7709,-2.8573,-2.9101,-2.9459,-2.9961,-2.9944,-2.9763,-3.003,-2.9898,-2.9598,-2.9332,-2.9273,-2.9159,-2.8761,-2.87,-2.8683,-2.8757,-2.9061,-2.9357,-2.9416,-3.0105,-3.094,-3.1804,-3.2231,-3.2563,-3.2866,-3.3346,-3.3745,-3.405,-3.4448,-3.4835,-3.5135,-3.5441,-3.5667,-3.5756,-3.5975,-3.6191,-3.6402,-3.6444,-3.6527,-3.6766,-3.7306,-3.7708,-3.7893,-3.8684,-3.9211,-3.9412,-3.9704,-4.0192,-4.078,-4.0824,-4.1167,-2.2858,-2.4188,-2.5262,-2.5453,-2.6145,-2.6708,-2.639,-2.653,-2.6732,-2.6772,-2.7361,-2.8113,-2.8927,-3.0095,-3.1539,-3.3306,-3.5204,-3.6894,-3.8128,-3.9206,-4.0034,-4.0478,-4.0497,-4.0514,-4.0597,-4.0688,-4.0748,0.0,-3.9909,-3.9406,-3.9299,-3.8165,-3.6935,-3.5657,-3.3158,-3.071,-2.8287,-2.5873,-2.4322,-2.3519,-2.315,-2.2628,-2.2035,-2.2035,-2.2161,-2.2324,0.0,-2.2555,-2.3015,-2.3167,-2.3455,-2.379,-2.4238,-2.4791,-2.5346,-2.5873,-2.6496,-2.7095,-2.7762,-2.8235,-2.8688,-2.9162,-2.9699,-3.0176,-3.0613,-3.0851,-3.0956,-3.1125,-3.0973,-3.0735,-3.0536,-3.0145,-2.9797,-2.9469,-2.9187,-2.892,-2.8858,-2.9092,-2.9432,-2.984,-3.0658,-3.1543,-3.24,-3.2726,-3.3011,-3.3293,-3.3658,-3.3949,-3.425,-3.4448,-3.4739,-3.5041,-3.5274,-3.5441,-3.5577,-3.5756,-3.5915,-3.6131,-3.6457,-3.6775,-3.7022,-3.775,-3.8235,-3.8454,-3.935,-3.9821,-3.9946,-4.0501,-4.1008,-4.1434,-4.1522,-4.1777,-2.3714,-2.4632,-2.5263,-2.5606,-2.6147,-2.6357,-2.5593,-2.5798,-2.589,-2.4942,-2.5403,-2.6162,-2.6694,-2.817,-3.0015,-3.2095,-3.4222,-3.6202,-3.789,-3.8748,-3.9689,-4.1043,-4.0867,-4.082,-4.1277,-4.1523,-4.1375,-4.0866,-3.9974,-3.9459,-3.9404,-3.8262,-3.6961,-3.5513,-3.3328,-3.0508,-2.7082,-2.5988,-2.5099,-2.4406,-2.3959,-2.3434,-2.2916,-2.2852,-2.2852,-2.2852,0.0,0.0,-2.3446,-2.374,-2.4154,-2.4624,-2.5075,-2.5627,-2.6333,-2.6769,-2.7377,-2.8039,-2.8573,-2.9212,-2.9727,-2.9727,-3.0129,-3.0703,-3.1029,-3.1625,-3.2094,-3.2094,-3.2091,-3.2034,-3.1941,-3.1187,-3.0434,-3.0339,-2.9783,-2.9213,-2.9259,-2.9213,-2.9579,-3.0874,-3.153,-3.2139,-3.3014,-3.333,-3.3503,-3.3745,-3.4,-3.425,-3.4497,-3.4546,-3.4643,-3.5041,-3.5105,-3.5261,-3.5667,-3.5729,-3.5898,-3.6222,-3.6853,-3.7346,-3.7629,-3.8326,-3.8812,-3.9042,-3.9992,-4.0525,-4.0508,-4.1462,-4.1962,-4.2005,-4.2037,-4.2055,-2.4128,-2.4888,-2.5309,-2.5887,-2.6205,-2.6245,-2.554,-2.4965,-2.4521,-2.4467,-2.4426,-2.4692,-2.5588,-2.7187,-2.8853,-3.0402,-3.2903,-3.525,-3.6988,-3.8317,-3.9635,-4.1043,-4.1271,-4.1526,-4.1989,-4.2176,0.0,0.0,0.0,-3.9968,-3.942,-3.8262,-3.6193,-3.3157,-3.1946,-3.0193,-2.7643,-2.6688,-2.5931,-2.5324,-2.4802,-2.4288,-2.3936,-2.374,-2.3677,-2.3666,-2.3863,0.0,-2.4311,-2.4802,-2.5217,-2.5603,-2.6208,-2.6756,-2.7351,-2.7815,-2.8338,-2.8889,-2.9435,-3.0054,-3.0539,-3.0418,-3.0763,-3.1364,-3.1739,-3.2231,-3.2641,-3.2641,-3.3008,-3.322,-3.2599,-3.2063,-3.1562,-3.107,-3.0389,-2.9886,-2.9973,-2.993,-3.0218,-3.158,-3.1903,-3.2386,-3.3673,-3.405,-3.4151,-3.4201,-3.4349,-3.4497,-3.4643,-3.4643,-3.4739,-3.4899,-3.5041,-3.5432,-3.6223,-3.6367,-3.676,-3.7585,-3.7784,-3.7962,-3.8225,-3.8946,-3.948,-3.9708,-4.0533,-4.1052,-4.1216,-4.1534,-4.1754,-4.1841,-4.1945,-4.2005,-2.4502,-2.5249,-2.5665,-2.6004,-2.6073,-2.5869,-2.5057,-2.4312,-2.3702,-2.3489,-2.3407,-2.3641,-2.4715,-2.5928,-2.7487,-2.9828,-3.1836,-3.3844,-3.5963,-3.7506,-3.8912,-4.0211,-4.106,-4.1638,-4.1953,-4.2186,-4.205,-4.1542,0.0,-4.0087,-3.9454,-3.7994,-3.5829,-3.2989,-3.199,-3.0484,-2.8365,-2.7417,-2.6688,-2.6164,-2.5594,-2.517,-2.4957,-2.4743,-2.4683,-2.4826,-2.4886,0.0,-2.5499,-2.5791,-2.6195,-2.6718,-2.7217,-2.7683,-2.826,-2.8789,-2.9296,-2.9718,-3.0269,-3.0807,-3.1276,-3.1492,-3.1736,-3.1992,-3.2342,-3.2819,-3.3245,-3.3245,-3.3678,-3.402,-3.3697,-3.3337,-3.2866,-3.2187,-3.1193,-3.0452,-3.0493,-3.0724,-3.1232,-3.2245,-3.2708,-3.3252,-3.4317,-3.4546,-3.4659,-3.4707,-3.4787,-3.4851,-3.4994,-3.5374,-3.5559,-3.5479,-3.5607,-3.605,-3.6882,-3.711,-3.7405,-3.7933,-3.8306,-3.8622,-3.8922,-3.9641,-4.013,-4.0429,-4.0856,-4.1169,-4.1318,-4.1408,-4.156,-4.1692,-4.1841,-4.1858,-2.4932,-2.5558,-2.5898,-2.6137,-2.5967,-2.5455,-2.4661,-2.3839,-2.3113,-2.2676,-2.2536,-2.2824,-2.3915,-2.4899,-2.6419,-2.9206,-3.0769,-3.2497,-3.4989,-3.6574,-3.7982,-3.941,-4.0663,-4.1461,-4.1723,-4.1992,0.0,0.0,0.0,0.0,-3.9098,-3.7589,-3.5677,-3.3391,-3.2405,-3.0954,-2.8944,-2.8078,-2.743,-2.6985,-2.6383,-2.6025,-2.5873,-2.5664,-2.5664,-2.5816,-2.5873,0.0,0.0,-2.6756,-2.7217,-2.7815,-2.8195,-2.8648,-2.917,-2.9685,-3.0176,-3.0658,-3.1102,-3.1549,-3.2074,-3.2602,-3.2711,-3.2672,-3.298,-3.3403,-3.3899,-3.3933,-3.4284,-3.4691,-3.4723,-3.4429,-3.3969,-3.3292,-3.2269,-3.1516,-3.1476,-3.1866,-3.2437,-3.3165,-3.3634,-3.4205,-3.4908,-3.5024,-3.5088,-3.5182,-3.5228,-3.5295,-3.5602,-3.6122,-3.6496,-3.6571,-3.6504,-3.685,-3.7701,-3.7883,-3.8048,-3.8362,-3.8903,-3.9372,-3.9614,-4.0178,-4.0631,-4.0871,-4.0982,-4.1076,-4.118,-4.1318,-4.1426,-4.156,-4.1692,-4.1692,-2.5445,-2.5638,-2.5619,-2.6553,-2.6016,-2.5217,-2.4846,-2.3731,-2.2737,-2.2621,-2.2231,-2.2169,-2.3038,-2.4472,-2.6032,-2.7668,-2.9493,-3.1601,-3.4146,-3.5624,-3.7205,-3.9265,-4.0436,-4.1183,-4.1505,-4.177,-4.164,0.0,0.0,0.0,-3.8042,-3.7326,-3.5784,-3.3391,-3.2645,-3.1261,-2.9247,-2.8597,-2.8091,-2.7842,-2.7242,-2.6905,-2.6837,-2.6633,-2.6577,-2.6645,-2.6892,0.0,0.0,-2.7947,-2.8338,-2.8725,-2.9233,-2.9747,-3.019,-3.0539,-3.1058,-3.1622,-3.1951,-3.2437,-3.2949,-3.3314,-3.3346,-3.3293,-3.3694,-3.4101,-3.448,-3.4642,-3.4961,-3.5274,-3.5453,-3.5091,-3.4491,-3.3915,-3.3802,-3.3739,-3.3642,-3.3607,-3.3816,-3.4398,-3.4498,-3.4682,-3.5397,-3.5532,-3.5532,-3.5532,-3.5577,-3.583,-3.6586,-3.6738,-3.7233,-3.8437,-3.7835,-3.7734,-3.8605,-3.8672,-3.9058,-3.9834,-3.9935,-4.0119,-4.0383,-4.0434,-4.0631,-4.0871,-4.0935,-4.0982,-4.1093,-4.118,-4.1272,-4.1426,-4.156,-4.1604,-2.4847,-2.5439,-2.5742,-2.6008,-2.5521,-2.4838,-2.4107,-2.3091,-2.2278,-2.2236,-2.2116,-2.2224,-2.3071,-2.4113,-2.5458,-2.7392,-2.8894,-3.0697,-3.3206,-3.5103,-3.6615,-3.7708,-3.9571,-4.0742,0.0,0.0,-4.1192,0.0,0.0,0.0,-3.7801,-3.7118,-3.5753,-3.3499,-3.2912,-3.1656,-2.9637,-2.9107,-2.8739,-2.8481,-2.7894,-2.7577,-2.7577,-2.7443,-2.7377,-2.751,-2.7829,0.0,0.0,-2.8917,-2.931,-2.9747,-3.0176,-3.0598,-3.1073,-3.1495,-3.1879,-3.2312,-3.2834,-3.3208,-3.361,-3.3984,-3.4184,-3.4317,-3.4399,-3.4643,-3.5024,-3.5207,-3.5498,-3.5756,-3.5941,-3.5648,-3.5255,-3.5083,-3.4742,-3.4466,-3.4411,-3.4623,-3.4898,-3.5111,-3.5418,-3.5685,-3.595,-3.6002,-3.6216,-3.6679,-3.6747,-3.6977,-3.7684,-3.8196,-3.8662,-3.9115,-3.8717,-3.8705,-3.9396,-3.9547,-3.9766,-4.0171,-4.0238,-4.0337,-4.06,-4.0648,-4.0697,-4.0888,-4.0888,-4.0982,-4.1093,-4.118,-4.1272,-4.1426,-4.156,-4.1604,-2.4253,-2.5047,-2.5564,-2.5495,-2.5087,-2.4552,-2.3747,-2.2838,-2.2152,-2.2088,-2.2137,-2.2432,-2.3211,-2.3952,-2.5163,-2.7363,-2.8395,-2.9862,-3.259,-3.4582,-3.5965,-3.6534,0.0,-4.0149,0.0,-4.0447,0.0,0.0,0.0,0.0,0.0,-3.6892,-3.5738,-3.3922,-3.3203,-3.2024,-3.0368,-2.9721,-2.9261,-2.9008,-2.8481,-2.8222,-2.8235,-2.817,-2.8235,-2.8365,0.0,0.0,0.0,-2.9808,-3.0237,-3.0613,-3.1029,-3.1422,-3.1879,-3.2272,-3.2656,-3.298,-3.3539,-3.3949,-3.425,-3.4594,-3.5008,-3.527,-3.5178,-3.535,-3.5549,-3.581,-3.6114,-3.6444,-3.655,-3.6431,-3.6259,-3.6317,-3.5948,-3.556,-3.5523,-3.5776,-3.6007,-3.599,-3.6267,-3.6509,-3.6509,-3.67,-3.7029,-3.7559,-3.7836,-3.8191,-3.8801,-3.9388,-3.979,-3.989,-3.9717,-3.9727,-4.0054,-4.0188,-4.0288,-4.0337,-4.0337,-4.0453,-4.0697,-4.0697,-4.0745,-4.0888,-4.0888,-4.0935,-4.1047,-4.1134,-4.1255,-4.1363,-4.1515,-4.1604,-2.3829,-2.4519,-2.4849,-2.5154,-2.4904,-2.4462,-2.399,-2.3225,-2.2519,-2.2258,-2.2285,-2.2626,-2.3365,-2.4044,-2.5221,-2.745,-2.7928,-2.9159,-3.2444,-3.3957,-3.5141,-3.6266,-3.8136,-3.9337,-3.9405,-3.9654,0.0,0.0,0.0,0.0,0.0,-3.6569,-3.578,-3.4831,-3.3517,-3.2382,-3.1569,-3.0225,-2.9602,-2.9602,-2.9071,-2.8803,-2.8803,-2.9022,-2.9099,0.0,0.0,0.0,0.0,-3.0598,-3.097,-3.1351,-3.1811,-3.2247,-3.2641,-3.2895,-3.3282,-3.3761,-3.4151,-3.4546,-3.4947,-3.5198,-3.5594,-3.6019,-3.6216,-3.6131,-3.6062,-3.6468,-3.6913,-3.7314,-3.7297,-3.7429,-3.7577,-3.7577,-3.7577,-3.7522,-3.7394,-3.7299,-3.7241,-3.7091,-3.7031,-3.697,-3.697,-3.7602,-3.807,-3.8023,-3.8636,-3.9346,-4.0018,-4.0078,-4.0346,-4.1007,-4.1093,-4.0935,-4.0534,-4.0485,-4.0485,-4.0485,-4.0485,-4.0534,-4.0697,-4.0697,-4.0745,-4.0888,-4.0888,-4.0888,-4.0888,-4.1071,-4.1209,-4.1209,-4.1453,-4.1604,-2.3005,-2.3847,-2.4329,-2.4163,-2.4103,-2.3791,-2.2493,-2.2144,-2.2088,-2.1903,-2.2254,-2.2838,-2.3629,-2.4251,-2.5352,-2.7524,-2.7908,-2.9065,-3.2304,-3.3726,-3.4853,-3.6049,-3.7918,-3.9147,0.0,0.0,0.0,0.0,0.0,0.0,0.0,-3.6492,-3.578,-3.4831,-3.358,-3.2493,-3.1584,-3.0596,-3.0021,-2.9927,-2.9637,-2.9498,-2.9498,-2.956,0.0,0.0,0.0,0.0,0.0,-3.1394,-3.1739,-3.1966,-3.2382,-3.2819,-3.3277,-3.3523,-3.3882,-3.43,-3.4707,-3.5024,-3.5287,-3.5667,-3.6019,-3.636,-3.6591,-3.6533,-3.6492,-3.697,-3.7317,-3.7559,-3.7559,-3.7703,-3.7828,-3.7828,-3.7828,-3.7775,-3.7739,-3.7649,-3.7559,-3.7522,-3.7466,-3.7569,-3.8026,-3.8288,-3.8762,-3.9776,-4.0129,-4.051,-4.1174,-4.1279,-4.1279,-4.1318,-4.1307,-4.1105,-4.068,-4.0648,-4.0648,-4.0648,-4.0648,-4.0697,-4.084,-4.084,-4.084,-4.0888,-4.0888,-4.0935,-4.1047,-4.1134,-4.13,-4.1453,-4.156,-4.156,-2.2044,-2.2848,-2.3243,-2.3122,-2.3264,-2.3053,-2.1864,-2.1856,-2.2053,-2.1923,-2.2415,-2.3112,-2.3874,-2.4433,-2.5486,-2.7565,-2.8156,-2.9353,-3.2225,-3.3809,-3.5136,-3.6372,0.0,0.0,0.0,0.0,0.0,0.0,0.0,0.0,0.0,-3.6321,-3.5839,-3.5178,-3.3999,-3.3103,-3.2533,-3.1565,-3.0869,-3.053,-3.0378,-3.0173,-3.0007,-3.0068,0.0,0.0,0.0,0.0,0.0,-3.2007,-3.2358,-3.2594,-3.298,-3.3366,-3.3745,-3.4101,-3.4448,-3.4787,-3.5228,-3.5487,-3.5722,-3.6088,-3.6509,-3.6873,-3.7069,-3.7052,-3.7031,-3.7354,-3.7631,-3.7827,-3.7827,-3.7967,-3.8088,-3.8088,-3.8088,-3.8088,-3.8072,-3.7985,-3.788,-3.781,-3.7774,-3.7972,-3.8667,-3.9004,-3.9629,-4.0811,-4.1197,-4.1487,-4.1881,-4.1884,-4.1797,-4.1666,-4.1622,-4.1488,-4.1059,-4.0965,-4.0918,-4.0918,-4.0888,-4.0905,-4.0982,-4.0935,-4.0935,-4.0982,-4.1,-4.1029,-4.1123,-4.1226,-4.1408,-4.1604,-4.1604,-4.1515,0.0,-2.1524,-2.1864,-2.2171,-2.2359,-2.2342,-2.1954,-2.2132,0.0,-2.2242,-2.2754,-2.3428,-2.41,-2.4695,-2.5712,-2.7596,-2.8638,-2.995,-3.2176,-3.4111,0.0,0.0,-3.7955,0.0,0.0,0.0,0.0,0.0,0.0,0.0,0.0,-3.6133,-3.5879,-3.5612,-3.4639,-3.4085,-3.4026,-3.2882,-3.2017,-3.1426,-3.1257,-3.0912,-3.0444,-3.0582,0.0,0.0,0.0,0.0,0.0,-3.2508,-3.2834,-3.315,-3.3555,-3.3899,-3.4201,-3.4594,-3.4899,-3.5182,-3.5684,-3.5975,-3.6199,-3.6533,-3.6974,-3.7449,-3.7577,-3.7649,-3.7649,-3.7703,-3.7897,-3.8135,-3.8135,-3.8252,-3.8382,-3.8382,-3.8382,-3.8401,-3.8322,-3.8307,-3.8274,-3.8142,-3.8108,-3.8345,-3.914,-3.9841,-4.054,-4.1271,-4.1944,-4.2287,-4.2145,-4.2072,-4.2048,-4.2005,-4.2005,-4.1902,-4.1648,-4.1408,-4.1209,-4.1209,-4.1152,-4.1093,-4.1093,-4.0982,-4.0982,-4.1093,-4.1093,-4.1169,-4.1209,-4.1363,-4.1471,-4.1604,-4.1604,-4.1515,-1.8949,0.0,-2.1595,-2.1724,-2.1988,-2.2091,0.0,-2.1724,-2.2052,-2.2429,-2.2961,-2.3569,-2.429,-2.5337,-2.6495,-2.7772,-2.9127,-3.0537,-3.2058,-3.3991,0.0,-3.6844,-3.7759,-3.8044,0.0,0.0,0.0,0.0,0.0,0.0,0.0,-3.567,-3.5461,-3.4775,-3.4862,-3.4673,-3.4154,-3.3299,-3.2775,-3.2614,-3.2053,-3.1731,-3.1569,-3.1264,0.0,0.0,0.0,0.0,-3.2358,-3.2904,-3.324,-3.345,-3.3848,-3.425,-3.4594,-3.4899,-3.5228,-3.5532,-3.5898,-3.6216,-3.6485,-3.7031,-3.7392,-3.7613,-3.7915,-3.7966,-3.7984,-3.8,-3.8168,-3.8318,-3.8318,-3.835,-3.8382,-3.8382,-3.8382,-3.8401,-3.8401,-3.8368,-3.8551,-3.9119,-3.9213,-3.9634,-4.089,-4.1233,-4.1556,-4.2214,-4.2444,-4.253,-4.249,-4.2427,-4.2323,-4.2264,-4.2121,-4.2055,-4.1902,-4.1648,-4.1408,-4.1209,-4.118,-4.118,-4.118,-4.1134,-4.1117,-4.118,-4.129,-4.1335,-4.1363,-4.1471,-4.156,-4.1604,-4.1604,-4.1515,-1.8137,-1.9468,-2.0758,-2.0923,-2.144,-2.1874,-2.1683,-2.1882,-2.2254,-2.2695,-2.3234,-2.3836,-2.4463,-2.563,-2.6816,-2.7848,-2.9555,-3.1479,0.0,0.0,-3.5527,-3.6584,-3.7249,0.0,0.0,0.0,0.0,0.0,0.0,0.0,0.0,-3.4727,-3.4721,-3.4487,-3.4767,-3.4803,-3.4664,-3.4115,-3.3711,-3.348,-3.2768,-3.2357,-3.2228,-3.1633,-3.161,0.0,0.0,0.0,-3.285,-3.3293,-3.3607,-3.3797,-3.43,-3.4643,-3.4947,-3.5228,-3.5532,-3.5854,-3.6199,-3.6615,-3.7048,-3.7392,-3.7631,-3.788,-3.8034,-3.8168,-3.8267,-3.8252,-3.835,-3.8446,-3.8446,-3.8496,-3.8546,-3.8546,-3.8546,-3.8546,-3.8546,-3.8839,-3.9223,-3.9615,-3.9999,-4.0586,-4.1632,-4.1796,-4.205,-4.2734,-4.2745,-4.2688,-4.2688,-4.2588,-4.2508,-4.245,-4.2346,-4.2264,-4.2157,-4.1952,-4.1719,-4.1498,-4.1363,-4.1318,-4.1318,-4.1255,-4.1209,-4.1318,-4.1408,-4.1471,-4.1471,-4.156,-4.1604,-4.1604,-4.1604,-4.1708,-1.7872,-1.8784,-1.9785,-2.0205,-2.0964,-2.1678,-2.1953,-2.2298,-2.266,-2.3021,-2.3545,-2.4154,-2.4823,-2.5962,-2.7153,-2.8203,-3.0173,0.0,-3.5491,-3.5403,-3.5455,-3.6394,-3.6713,0.0,0.0,0.0,0.0,0.0,0.0,0.0,0.0,-3.3759,-3.3953,-3.4307,-3.4427,-3.4737,-3.5264,-3.5067,-3.4676,-3.409,-3.3439,-3.2911,-3.2556,-3.191,-3.1936,0.0,0.0,0.0,-3.3293,-3.3642,-3.3899,-3.4201,-3.4707,-3.4994,-3.5228,-3.5532,-3.5871,-3.6199,-3.6574,-3.7108,-3.7649,-3.7792,-3.8078,-3.8319,-3.8513,-3.8624,-3.8693,-3.8661,-3.8601,-3.8541,-3.8541,-3.864,-3.8719,-3.8719,-3.883,-3.8891,-3.8891,-3.9515,-4.0088,-4.017,-4.0738,-4.1418,-4.2083,-4.2176,-4.2341,-4.3032,-4.2936,-4.284,-4.284,-4.2745,-4.2649,-4.2649,-4.2566,-4.2486,-4.2346,-4.2205,-4.2037,-4.1866,-4.1604,-4.1471,-4.1426,-4.1318,-4.13,-4.1426,-4.156,-4.1604,-4.1604,-4.1604,-4.1657,-4.178,-4.178,-4.2156,-1.7305,-1.8236,-1.9336,-2.0483,-2.0994,-2.1437,-2.2371,-2.2721,-2.296,-2.341,-2.385,-2.4547,-2.5824,-2.696,-2.8234,-2.985,-3.164,-3.3533,0.0,0.0,-3.5344,-3.6353,0.0,0.0,0.0,0.0,0.0,0.0,0.0,0.0,0.0,-3.3382,-3.3606,-3.3649,-3.4188,-3.485,-3.5623,-3.5474,-3.516,-3.4613,-3.3922,-3.3382,-3.291,-3.2481,-3.2342,0.0,0.0,-3.3187,-3.3346,-3.3848,-3.4201,-3.4448,-3.4804,-3.5165,-3.5577,-3.5844,-3.6148,-3.6527,-3.7069,-3.7429,-3.7774,-3.8797,-3.9171,-3.9349,-4.0261,-4.0152,-3.9698,-3.973,-3.9277,-3.8743,-3.8743,-3.8822,-3.8881,-3.8881,-3.9356,-3.9792,-3.9792,-4.0373,-4.113,-4.1776,-4.2014,-4.2344,-4.3065,-4.3176,-4.3159,-4.3196,-4.3123,-4.3067,-4.3067,-4.2917,-4.2783,-4.2783,-4.2667,-4.2548,-4.2503,-4.2346,-4.2205,-4.2061,-4.1866,-4.1692,-4.156,-4.156,-4.156,-4.156,-4.1604,-4.1604,-4.1604,-4.1604,-4.1955,-4.2622,-4.2622,-4.3026,-1.6931,-1.7776,-1.8915,-2.0563,-2.1211,-2.1737,-2.2735,-2.3116,-2.3382,-2.3738,-2.4506,-2.5363,-2.6192,-2.7626,-2.9296,-3.1265,0.0,-3.3697,-3.5472,-3.5254,-3.5269,0.0,0.0,0.0,0.0,0.0,0.0,0.0,0.0,0.0,0.0,0.0,-3.2886,-3.3469,-3.3922,-3.463,-3.5672,-3.5718,-3.5465,-3.4848,-3.4167,-3.3621,-3.32,-3.2665,-3.2563,-3.2904,0.0,-3.345,-3.3745,-3.4151,-3.4448,-3.4739,-3.5118,-3.5487,-3.5871,-3.6343,-3.669,-3.6987,-3.7392,-3.7972,-3.8671,-3.9226,-3.9781,-4.037,-4.0884,-4.0836,-4.062,-4.0751,-3.9829,-3.8833,-3.8833,-3.8881,-3.9021,-3.9446,-3.9804,-4.0179,-4.0559,-4.1264,-4.1912,-4.2231,-4.2653,-4.3057,-4.3408,-4.3411,-4.3394,-4.3305,-4.3233,-4.3123,-4.3104,-4.303,-4.2936,-4.288,-4.2765,-4.2667,-4.2548,-4.2468,-4.2305,-4.2055,-4.1884,-4.178,-4.1692,-4.1648,-4.1604,-4.1604,-4.1604,-4.1815,-4.2254,-4.2254,-4.264,-4.3395,-4.3395,-4.3816,-1.6741,-1.7438,-1.8531,-2.0557,-2.1361,-2.1965,-2.3099,-2.354,-2.3855,-2.4319,-2.525,-2.6198,-2.693,-2.8766,-3.0665,-3.2225,-3.2918,-3.3827,-3.538,-3.5186,0.0,0.0,0.0,0.0,0.0,0.0,0.0,0.0,0.0,0.0,0.0,0.0,-3.2387,-3.3577,-3.3758,-3.45,-3.58,-3.6037,-3.5689,-3.4805,-3.4333,-3.378,-3.3198,-3.281,-3.285,-3.3309,-3.345,-3.3694,-3.4151,-3.4448,-3.4739,-3.5041,-3.5441,-3.5844,-3.6216,-3.6811,-3.7182,-3.7445,-3.7809,-3.8582,-3.946,-3.9892,-4.0591,-4.1357,-4.1622,-4.1613,-4.1562,-4.1693,-4.067,-3.9486,-3.9254,-3.9217,-3.9412,-4.0023,-4.0466,-4.0849,-4.1383,-4.2106,-4.2662,-4.2595,-4.3075,-4.3497,-4.3497,-4.3481,-4.3411,-4.3411,-4.3322,-4.3233,-4.3178,-4.3141,-4.3049,-4.2938,-4.288,-4.2765,-4.2609,-4.2526,-4.2382,-4.2072,-4.1927,-4.1866,-4.1841,-4.1692,-4.1648,-4.1648,-4.1604,-4.2008,-4.2816,-4.2816,-4.3289,-4.4185,-4.4185,-4.4606,-1.6683,-1.7308,-1.8164,-2.0656,-2.1267,-2.1698,-2.3451,-2.3959,-2.4376,-2.5458,-2.5929,-2.6768,-2.8652,-3.1049,-3.2658,-3.2443,-3.3368,-3.4456,-3.5452,0.0,0.0,0.0,0.0,0.0,0.0,0.0,0.0,0.0,0.0,0.0,0.0,0.0,0.0,-3.3939,-3.3985,-3.4683,-3.6117,-3.6352,-3.5707,-3.427,-3.4327,-3.3794,-3.2655,-3.3043,-3.324,-3.3361,-3.3848,-3.405,-3.4151,-3.4643,-3.5041,-3.5291,-3.5487,-3.6002,-3.6574,-3.6935,-3.7299,-3.772,-3.8672,-3.9157,-3.9675,-4.1285,-4.2004,-4.2356,-4.3177,-4.3033,-4.2588,-4.2619,-4.205,-4.1208,-4.0322,-4.0185,-4.0327,-4.0364,-4.1475,-4.2495,-4.2419,-4.2986,-4.349,-4.344,-4.3442,-4.3497,-4.3497,-4.3497,-4.3497,-4.3497,-4.3446,-4.3394,-4.3394,-4.3215,-4.3104,-4.3104,-4.2956,-4.2824,-4.2609,-4.2526,-4.2445,-4.2287,-4.2145,-4.2037,-4.2005,-4.1841,-4.1797,-4.1797,-4.1648,-4.2008,-4.2816,-4.2816,-4.357,-4.501,-4.501,-4.5414,-1.6394,-1.72,-1.8315,-2.095,-2.1692,-2.2184,-2.3786,-2.4654,-2.5332,-2.5925,-2.705,-2.8377,-2.9809,-3.1636,-3.2825,-3.2457,-3.3402,-3.4375,0.0,0.0,0.0,0.0,0.0,0.0,0.0,0.0,0.0,0.0,0.0,0.0,0.0,0.0,0.0,-3.3939,-3.4089,-3.485,-3.6399,-3.6122,-3.5548,-3.4663,-3.4663,-3.412,-3.3027,-3.324,-3.3503,-3.3797,-3.4,-3.43,-3.4643,-3.4994,-3.5274,-3.5549,-3.6045,-3.6468,-3.6873,-3.7261,-3.7843,-3.8491,-3.9085,-4.0056,-4.1139,-4.188,-4.2548,-4.3195,-4.3594,-4.3597,-4.3434,-4.3497,-4.2934,-4.2147,-4.1301,-4.1096,-4.1256,-4.1757,-4.234,-4.2854,-4.3245,-4.3531,-4.3686,-4.3532,-4.3497,-4.3497,-4.3497,-4.3497,-4.3497,-4.3497,-4.3463,-4.3446,-4.3394,-4.3269,-4.316,-4.3104,-4.2936,-4.2804,-4.2745,-4.2566,-4.2463,-4.2445,-4.2205,-4.2079,-4.2037,-4.197,-4.1945,-4.1945,-4.1797,-4.237,-4.361,-4.3529,-4.429,-4.58,-4.58,-4.5958,-1.6243,-1.7044,-1.8261,-2.1179,-2.2032,-2.258,-2.4169,-2.526,-2.6091,-2.6572,-2.8198,-2.983,-3.0839,-3.2046,-3.2875,0.0,-3.3567,0.0,0.0,0.0,0.0,0.0,0.0,0.0,0.0,0.0,0.0,0.0,0.0,0.0,0.0,0.0,0.0,0.0,-3.4283,-3.5031,-3.6538,-3.6042,-3.5462,-3.4951,-3.4845,-3.425,-3.3309,-3.345,-3.3745,-3.4101,-3.43,-3.4594,-3.4994,-3.5274,-3.5594,-3.5932,-3.6509,-3.6873,-3.72,-3.7751,-3.8456,-3.9175,-3.986,-4.0995,-4.2118,-4.2496,-4.3091,-4.3667,-4.3786,-4.3883,-4.3961,-4.3974,-4.3596,-4.3039,-4.25,-4.2166,-4.211,-4.2667,-4.2983,-4.3305,-4.3707,-4.3804,-4.3738,-4.3532,-4.3497,-4.3497,-4.3497,-4.3497,-4.3497,-4.3497,-4.3497,-4.3497,-4.3446,-4.3286,-4.3142,-4.3049,-4.2918,-4.2822,-4.2783,-4.2685,-4.2584,-4.2503,-4.2305,-4.2205,-4.2145,-4.2097,-4.203,-4.203,-4.1927,-4.2617,-4.4078,-4.4014,-4.4759,-4.6172,-4.6172,-4.6172,-1.6244,-1.6849,-1.781,-2.125,-2.2205,-2.2767,-2.4601,-2.5685,-2.6594,-2.7532,-2.9304,-3.095,-3.1733,-3.2443,0.0,-3.3498,0.0,0.0,0.0,0.0,0.0,0.0,0.0,0.0,0.0,0.0,0.0,0.0,0.0,0.0,0.0,0.0,0.0,0.0,-3.4475,-3.5226,-3.6693,-3.6146,-3.5623,-3.509,-3.4707,-3.4064,-3.3309,-3.3848,-3.4101,-3.4151,-3.4643,-3.4994,-3.5135,-3.5487,-3.5975,-3.6544,-3.6869,-3.7164,-3.7536,-3.8469,-3.9049,-3.9623,-4.118,-4.194,-4.2349,-4.324,-4.3652,-4.3804,-4.3883,-4.3961,-4.4005,-4.4005,-4.4005,-4.4005,-4.4005,-4.341,-4.2816,-4.2816,-4.3429,-4.3942,-4.3837,-4.3804,-4.3738,-4.3532,-4.3497,-4.3497,-4.3497,-4.3497,-4.3497,-4.3497,-4.3497,-4.3497,-4.3497,-4.3304,-4.3123,-4.292,-4.2882,-4.2862,-4.2822,-4.2783,-4.2724,-4.2503,-4.2503,-4.2445,-4.2287,-4.2145,-4.2103,-4.2103,-4.203,-4.2679,-4.4078,-4.4096,-4.4824,-4.6172,-4.6172,-4.6172,-1.6458,-1.7071,-1.8022,-2.1469,-2.2412,-2.2988,-2.4804,-2.629,-2.775,-2.9395,-3.0243,-3.0761,-3.1019,-3.2069,0.0,-3.2759,0.0,0.0,0.0,0.0,0.0,0.0,0.0,0.0,0.0,0.0,0.0,0.0,0.0,0.0,0.0,0.0,0.0,0.0,-3.4577,-3.5112,-3.61,-3.5607,-3.5147,-3.4675,-3.4192,-3.3798,-3.3607,-3.3949,-3.425,-3.4546,-3.4804,-3.5135,-3.5487,-3.5915,-3.6385,-3.6869,-3.7105,-3.7709,-3.8451,-3.9032,-3.9986,-4.1107,-4.1812,-4.2516,-4.3167,-4.3474,-4.3701,-4.3883,-4.3897,-4.3961,-4.4005,-4.4005,-4.4005,-4.4005,-4.4005,-4.3819,-4.3633,-4.3633,-4.3775,-4.3915,-4.3837,-4.3719,-4.3634,-4.3532,-4.3497,-4.3497,-4.3497,-4.3497,-4.3497,-4.3497,-4.3497,-4.3463,-4.3304,-4.3251,-4.3123,-4.292,-4.2882,-4.2882,-4.2862,-4.2822,-4.2745,-4.2588,-4.2544,-4.2445,-4.2287,-4.2246,-4.2246,-4.2246,-4.2672,-4.3324,-4.4216,-4.4717,-4.5369,-4.6172,-4.6172,-4.6172,-1.662,-1.7206,-1.8168,-2.1609,-2.2579,-2.3333,-2.5839,-2.7151,-2.8403,-3.0294,-3.0718,-3.0838,-3.1129,-3.2104,0.0,0.0,0.0,0.0,0.0,0.0,0.0,0.0,0.0,0.0,0.0,0.0,0.0,0.0,0.0,0.0,0.0,0.0,0.0,0.0,-3.4233,-3.4659,-3.5502,-3.5002,-3.4676,-3.4482,-3.4082,-3.3848,-3.3848,-3.4151,-3.4448,-3.4804,-3.5165,-3.5515,-3.5915,-3.6385,-3.6986,-3.7619,-3.7795,-3.8522,-3.9535,-4.0113,-4.1016,-4.1977,-4.2516,-4.3094,-4.3548,-4.3682,-4.38,-4.3897,-4.3929,-4.3974,-4.4005,-4.4005,-4.4005,-4.4005,-4.4005,-4.4005,-4.4005,-4.3974,-4.3929,-4.3883,-4.3753,-4.3667,-4.3582,-4.3513,-4.3497,-4.3589,-4.392,-4.3699,-4.3608,-4.392,-4.3699,-4.3428,-4.3251,-4.3214,-4.3123,-4.292,-4.2882,-4.2882,-4.2882,-4.2862,-4.2948,-4.3138,-4.3073,-4.3077,-4.3298,-4.2971,-4.2769,-4.2769,-4.3451,-4.4129,-4.4749,-4.5134,-4.5628,-4.6172,-4.6172,-4.6172,-1.6779,-1.7327,-1.8251,-2.175,-2.2853,-2.3933,-2.7343,-2.81,-2.8616,-3.0423,-3.0797,-3.0982,-3.1668,-3.2271,-3.2861,0.0,0.0,0.0,0.0,0.0,0.0,0.0,0.0,0.0,0.0,0.0,0.0,0.0,0.0,0.0,0.0,0.0,0.0,-3.3383,-3.3599,-3.4079,-3.48,-3.4486,-3.4358,0.0,-3.4204,-3.4101,-3.4151,-3.4399,-3.4691,-3.4977,-3.5711,-3.6131,-3.6385,-3.6881,-3.7672,-3.8561,-3.8823,-3.9625,-4.0709,-4.1452,-4.1977,-4.2422,-4.324,-4.3548,-4.3667,-4.3832,-4.3897,-4.3929,-4.3974,-4.4005,-4.4005,-4.4005,-4.4005,-4.4005,-4.4005,-4.4005,-4.3974,-4.3897,-4.3883,-4.3832,-4.3649,-4.3582,-4.36,-4.3624,-4.3608,-4.3864,-4.4672,-4.4195,-4.3975,-4.4709,-4.4195,-4.3611,-4.336,-4.3306,-4.3214,-4.2938,-4.2955,-4.3009,-4.3009,-4.3063,-4.3405,-4.4047,-4.3962,-4.4186,-4.4778,-4.4025,-4.3607,-4.3607,-4.4339,-4.4938,-4.5404,-4.5475,-4.5758,-4.6172,-4.6172,-4.6172,-1.697,-1.7543,-1.8463,-2.1905,-2.3888,-2.5571,-2.769,-2.8171,-2.8676,-3.0439,-3.076,-3.0751,-3.0859,-3.1369,0.0,0.0,0.0,0.0,0.0,0.0,0.0,0.0,0.0,0.0,0.0,0.0,0.0,0.0,0.0,0.0,0.0,0.0,0.0,-3.3584,-3.3768,-3.4013,-3.4297,-3.4415,-3.4266,0.0,-3.403,-3.4201,-3.4399,-3.4691,-3.5024,-3.5487,-3.6002,-3.6343,-3.6585,-3.7533,-3.8263,-3.8806,-3.9526,-4.0489,-4.1488,-4.1814,-4.2465,-4.3259,-4.3493,-4.3682,-4.3832,-4.3883,-4.3929,-4.3974,-4.4005,-4.4005,-4.4005,-4.4005,-4.4005,-4.4005,-4.4005,-4.3942,-4.3897,-4.3837,-4.3837,-4.3786,-4.3615,-4.3548,-4.3716,-4.4323,-4.4452,-4.4709,-4.5498,-4.5498,-4.5443,-4.5626,-4.5444,-4.5022,-4.4254,-4.4088,-4.3759,-4.2992,-4.3462,-4.3824,-4.3824,-4.4421,-4.4777,-4.4772,-4.4749,-4.4719,-4.4668,-4.4464,-4.4375,-4.4375,-4.5142,-4.549,-4.5404,-4.6023,-4.6288,-4.6172,-4.6172,-4.6172,-1.7133,-1.768,-1.8571,-2.2029,-2.3976,-2.5476,-2.7225,-2.7927,-2.8572,-2.9898,-3.0459,-3.0672,-3.0568,-3.1041,0.0,0.0,0.0,0.0,0.0,0.0,0.0,0.0,0.0,0.0,0.0,0.0,0.0,0.0,0.0,0.0,0.0,-3.2648,-3.2874,-3.3301,-3.3466,-3.3576,-3.3738,-3.399,-3.4062,-3.3899,-3.4151,-3.4546,-3.4961,-3.5071,-3.5396,-3.58,-3.6259,-3.6591,-3.6864,-3.8029,-3.8851,-3.9511,-4.0488,-4.1487,-4.245,-4.263,-4.3027,-4.3548,-4.3667,-4.3786,-4.3915,-4.3929,-4.3974,-4.4005,-4.4005,-4.4005,-4.4005,-4.4005,-4.4005,-4.4005,-4.4005,-4.3961,-4.3883,-4.3804,-4.3753,-4.3686,-4.3548,-4.3826,-4.4195,-4.4635,-4.5021,-4.5535,-4.6342,-4.6471,-4.6324,-4.5902,-4.581,-4.5589,-4.5,-4.4887,-4.4647,-4.4095,-4.4421,-4.4675,-4.4675,-4.5055,-4.5373,-4.5606,-4.56,-4.5652,-4.5837,-4.5793,-4.557,-4.5195,-4.5963,-4.6265,-4.6081,-4.6442,-4.6495,-4.6301,-4.6221,-4.6172,-1.7087,-1.7875,-1.9037,-2.2216,-2.3712,-2.4848,-2.6599,-2.7613,-2.8447,-2.9312,-3.0122,-3.0633,-3.051,0.0,0.0,0.0,0.0,0.0,0.0,0.0,0.0,0.0,0.0,0.0,0.0,0.0,0.0,0.0,0.0,0.0,-3.2951,-3.2897,-3.2897,-3.2951,-3.3043,-3.3203,-3.3346,-3.3607,-3.3848,-3.4101,-3.4399,-3.4866,-3.5424,-3.547,-3.5694,-3.6062,-3.6468,-3.6794,-3.7158,-3.848,-3.9475,-4.0271,-4.145,-4.245,-4.3251,-4.334,-4.3516,-4.3667,-4.3753,-4.3851,-4.3929,-4.3974,-4.4005,-4.4005,-4.4005,-4.4005,-4.4005,-4.4005,-4.4005,-4.4005,-4.3974,-4.3929,-4.3851,-4.3786,-4.3667,-4.3603,-4.3697,-4.4232,-4.4782,-4.5076,-4.5773,-4.6526,-4.7205,-4.7296,-4.7038,-4.6341,-4.6174,-4.6043,-4.576,-4.5703,-4.5591,-4.5327,-4.5417,-4.5508,-4.5508,-4.5635,-4.5956,-4.6422,-4.641,-4.6629,-4.716,-4.7043,-4.6676,-4.6016,-4.6659,-4.6934,-4.6795,-4.6684,-4.6542,-4.6398,-4.6253,-4.6172,-1.6474,-1.8399,-2.06,-2.2587,-2.3749,-2.4843,-2.6531,-2.7579,-2.8437,-2.924,-3.0055,-3.0574,0.0,0.0,0.0,0.0,0.0,0.0,0.0,0.0,0.0,0.0,0.0,0.0,0.0,0.0,0.0,0.0,0.0,0.0,-3.3081,-3.2951,-3.2951,-3.3058,-3.3203,-3.3346,-3.345,-3.3745,-3.3949,-3.4101,-3.4594,-3.5024,-3.5424,-3.5739,-3.6045,-3.6259,-3.6591,-3.697,-3.7365,-3.9124,-4.0091,-4.0601,-4.214,-4.2996,-4.3394,-4.3394,-4.3569,-4.3771,-4.3804,-4.3883,-4.3974,-4.4005,-4.4005,-4.4005,-4.4005,-4.4005,-4.4005,-4.4005,-4.4005,-4.3974,-4.3929,-4.3851,-4.3786,-4.3667,-4.3566,-4.3716,-4.4397,-4.4635,-4.5112,-4.6526,-4.7443,-4.8012,-4.8122,-4.8082,-4.8025,-4.7895,-4.7736,-4.7379,-4.663,-4.644,-4.6069,-4.5381,-4.5924,-4.6341,-4.6341,-4.6993,-4.7325,-4.7201,-4.7158,-4.7142,-4.7025,-4.6998,-4.6944,-4.6837,-4.6944,-4.6934,-4.6795,-4.6684,-4.6542,-4.6398,-4.6253,-4.6172,-1.7009,-1.854,-2.0184,-2.1933,-2.3023,-2.3983,-2.5164,-2.6471,-2.7627,-2.8392,-2.9168,-2.9811,0.0,0.0,0.0,0.0,0.0,0.0,0.0,0.0,0.0,0.0,0.0,0.0,0.0,0.0,0.0,0.0,0.0,-3.2704,-3.3419,-3.3398,-3.3361,-3.345,-3.3503,-3.3591,-3.3848,-3.3949,-3.4201,-3.4546,-3.4977,-3.535,-3.5622,-3.6002,-3.6301,-3.6509,-3.6834,-3.7164,-3.7609,-3.9403,-4.031,-4.0672,-4.2414,-4.3214,-4.3429,-4.3463,-4.3618,-4.3804,-4.3851,-4.3929,-4.4005,-4.4005,-4.4005,-4.4005,-4.4005,-4.4005,-4.4005,-4.3942,-4.3942,-4.3929,-4.3851,-4.3786,-4.3667,-4.3615,-4.3897,-4.4397,-4.5204,-4.5369,-4.5847,-4.748,-4.8067,-4.8267,-4.8247,-4.8226,-4.8148,-4.8046,-4.7943,-4.7733,-4.7329,-4.7234,-4.7047,-4.6685,-4.6975,-4.7174,-4.7174,-4.7416,-4.7511,-4.7302,-4.7276,-4.716,-4.6998,-4.6998,-4.6998,-4.6998,-4.6998,-4.698,-4.6888,-4.6684,-4.659,-4.6495,-4.6319,-4.6172,-1.7251,-1.8277,-1.9316,-2.1049,-2.2277,-2.3299,-2.4093,-2.5564,-2.6924,0.0,-2.8283,0.0,0.0,0.0,0.0,0.0,0.0,0.0,0.0,0.0,0.0,0.0,0.0,0.0,0.0,0.0,0.0,0.0,0.0,-3.2736,-3.339,-3.3614,-3.3694,-3.3694,-3.3745,-3.3899,-3.4101,-3.425,-3.4497,-3.4899,-3.5287,-3.556,-3.5861,-3.6191,-3.6509,-3.6736,-3.7031,-3.7337,-3.7774,-3.9589,-4.0438,-4.0743,-4.2541,-4.3322,-4.3446,-4.3566,-4.3667,-4.3804,-4.3883,-4.3942,-4.4005,-4.4005,-4.4005,-4.4005,-4.3974,-4.3974,-4.3942,-4.3897,-4.3883,-4.3851,-4.3753,-4.3667,-4.3637,-4.3839,-4.4303,-4.4984,-4.5993,-4.6379,-4.6874,-4.8047,-4.8267,-4.8247,-4.8169,-4.8148,-4.8087,-4.7902,-4.7861,-4.7801,-4.7699,-4.7717,-4.7717,-4.7717,-4.7717,-4.7717,-4.7717,-4.7572,-4.745,-4.7302,-4.7267,-4.7133,-4.6998,-4.6998,-4.6998,-4.6998,-4.6998,-4.6998,-4.6998,-4.6778,-4.6637,-4.659,-4.635,-4.6221,-1.6523,-1.74,-1.8464,-2.0158,-2.18,-2.3217,-2.4012,-2.5492,-2.6678,-2.6591,-2.7771,0.0,0.0,0.0,0.0,0.0,0.0,0.0,0.0,0.0,0.0,0.0,0.0,0.0,0.0,0.0,0.0,0.0,-3.1609,-3.2208,-3.2654,-3.3326,-3.3694,-3.3694,-3.3949,-3.4101,-3.4101,-3.4594,-3.4899,-3.4899,-3.535,-3.5711,-3.6019,-3.6318,-3.6673,-3.7069,-3.7203,-3.7429,-3.7829,-3.9716,-4.0598,-4.0953,-4.2701,-4.3446,-4.3479,-4.3582,-4.3667,-4.3804,-4.3883,-4.3942,-4.4005,-4.4005,-4.4005,-4.3974,-4.3929,-4.3915,-4.3883,-4.3818,-4.3804,-4.3771,-4.3634,-4.3615,-4.3784,-4.447,-4.4672,-4.5149,-4.6709,-4.7645,-4.8176,-4.8208,-4.8187,-4.8169,-4.8032,-4.7947,-4.7902,-4.7902,-4.7801,-4.7717,-4.7717,-4.7717,-4.7717,-4.7717,-4.7717,-4.7717,-4.7717,-4.7572,-4.745,-4.7302,-4.7267,-4.7133,-4.6998,-4.6998,-4.6998,-4.6998,-4.6998,-4.6998,-4.6998,-4.6842,-4.6731,-4.659,-4.6447,-4.6301,-1.6459,-1.7304,-1.8217,-1.9379,-2.0891,-2.2314,-2.3114,-2.4176,-2.5254,-2.6221,-2.6816,0.0,0.0,0.0,0.0,0.0,0.0,0.0,0.0,0.0,0.0,0.0,0.0,0.0,0.0,0.0,0.0,0.0,0.0,0.0,-3.3048,-3.3356,-3.3713,-3.4184,-3.43,-3.4448,-3.4594,-3.4994,-3.5228,-3.535,-3.5639,-3.5888,-3.6216,-3.6527,-3.6851,-3.7108,-3.7411,-3.7935,-3.869,-3.9968,-4.0924,-4.1699,-4.292,-4.3446,-4.3532,-4.3582,-4.3634,-4.3667,-4.3786,-4.3851,-4.3883,-4.3883,-4.3883,-4.3883,-4.3851,-4.3837,-4.3818,-4.3701,-4.3667,-4.3634,-4.3548,-4.3918,-4.4634,-4.5938,-4.6195,-4.6469,-4.7549,-4.8007,-4.8226,-4.8187,-4.813,-4.805,-4.7966,-4.7902,-4.7861,-4.7759,-4.7717,-4.7717,-4.7717,-4.7717,-4.7717,-4.7717,-4.7717,-4.7675,-4.7572,-4.745,-4.732,-4.7249,-4.7133,-4.7043,-4.6998,-4.6998,-4.6998,-4.6998,-4.6998,-4.6998,-4.6998,-4.6888,-4.6795,-4.6731,-4.6477,-4.6381,-1.6109,-1.6848,-1.7668,-1.8513,-1.9959,-2.1369,-2.2158,-2.317,-2.4227,-2.5247,0.0,0.0,0.0,0.0,0.0,0.0,0.0,0.0,0.0,0.0,0.0,0.0,0.0,0.0,0.0,0.0,0.0,0.0,0.0,0.0,-3.299,-3.3285,-3.3791,-3.4626,-3.4643,-3.4739,-3.5041,-3.5274,-3.5458,-3.5622,-3.5817,-3.6079,-3.6402,-3.665,-3.693,-3.7203,-3.7844,-3.8492,-3.9193,-4.0184,-4.1141,-4.2119,-4.3047,-4.3463,-4.3532,-4.3582,-4.3582,-4.3615,-4.3753,-4.3804,-4.3804,-4.3804,-4.3804,-4.3804,-4.3771,-4.3719,-4.3719,-4.36,-4.3548,-4.3621,-4.3862,-4.4709,-4.5755,-4.68,-4.7238,-4.7547,-4.8038,-4.813,-4.8148,-4.8126,-4.8028,-4.7947,-4.7861,-4.7819,-4.7801,-4.7699,-4.7717,-4.7717,-4.7717,-4.7717,-4.7717,-4.7717,-4.7657,-4.7615,-4.7511,-4.7381,-4.7249,-4.7196,-4.7088,-4.6998,-4.6998,-4.6998,-4.6998,-4.6998,-4.6998,-4.6998,-4.6998,-4.6888,-4.6842,-4.6778,-4.659,-4.6447,0.0,0.0,0.0,-1.7595,-1.904,-2.0465,-2.1215,0.0,-2.3693,-2.3606,0.0,0.0,0.0,0.0,0.0,0.0,0.0,0.0,0.0,0.0,0.0,0.0,0.0,0.0,0.0,0.0,0.0,0.0,-3.1018,-3.1654,-3.2348,-3.3023,-3.3886,-3.4833,-3.4883,-3.5041,-3.5291,-3.5503,-3.5622,-3.5622,-3.6036,-3.6293,-3.6502,-3.6708,-3.6987,-3.735,-3.8452,-3.8995,-3.9229,-4.036,-4.13,-4.2137,-4.3116,-4.3497,-4.3532,-4.3582,-4.3582,-4.3634,-4.3771,-4.3804,-4.3804,-4.3804,-4.3804,-4.3771,-4.3634,-4.3582,-4.36,-4.355,-4.3534,-4.3718,-4.4562,-4.5938,-4.7094,-4.7035,-4.762,-4.8148,-4.805,-4.7992,-4.797,-4.7902,-4.792,-4.7861,-4.7717,-4.7717,-4.7717,-4.7717,-4.7717,-4.7717,-4.7717,-4.7717,-4.7717,-4.7699,-4.7572,-4.7511,-4.7511,-4.7312,-4.7196,-4.7178,-4.7088,-4.6998,-4.6998,-4.6998,-4.6998,-4.6998,-4.6998,-4.6998,-4.6998,-4.6998,-4.6934,-4.6778,-4.6684,-4.6447,-1.5334,0.0,0.0,0.0,0.0,0.0,0.0,0.0,-2.2224,-2.3318,0.0,0.0,0.0,0.0,0.0,0.0,0.0,0.0,0.0,0.0,0.0,0.0,0.0,0.0,0.0,0.0,0.0,0.0,-3.0625,-3.1054,-3.1797,-3.311,-3.3981,-3.4243,-3.4961,-3.5383,-3.5503,-3.5684,-3.5861,-3.6036,-3.6191,-3.6402,-3.6643,-3.6891,-3.7126,-3.7388,-3.8544,-3.9409,-4.0076,-4.1196,-4.2139,-4.2886,-4.3318,-4.3497,-4.3479,-4.3513,-4.3532,-4.3513,-4.3566,-4.3566,-4.3566,-4.3566,-4.3566,-4.3566,-4.3532,-4.3532,-4.3642,-4.4213,-4.4378,-4.4673,-4.6011,-4.6689,-4.7145,-4.7615,-4.7882,-4.7984,-4.7943,-4.7824,-4.7783,-4.7902,-4.7819,-4.7759,-4.7717,-4.7717,-4.7717,-4.7717,-4.7717,-4.7717,-4.7717,-4.7717,-4.7657,-4.7572,-4.7511,-4.7425,-4.7312,-4.7223,-4.7133,-4.7043,-4.7043,-4.6998,-4.6998,-4.6998,-4.6998,-4.6998,-4.6998,-4.6998,-4.6998,-4.6998,-4.698,-4.6934,-4.6684,-4.6447,-1.5265,-1.5843,-1.6651,-1.7457,0.0,0.0,-2.0458,-2.0979,-2.14,0.0,0.0,0.0,0.0,0.0,0.0,0.0,0.0,0.0,0.0,0.0,0.0,0.0,0.0,0.0,0.0,-3.0346,-3.0399,-3.0493,-3.0526,-3.0841,-3.1629,-3.2862,-3.3717,-3.4091,-3.4768,-3.529,-3.5667,-3.5861,-3.6053,-3.6225,-3.6318,-3.6502,-3.6702,-3.697,-3.7341,-3.7884,-3.9082,-4.002,-4.0849,-4.1996,-4.2759,-4.3214,-4.341,-4.3497,-4.3497,-4.3497,-4.3497,-4.3497,-4.3497,-4.3497,-4.3497,-4.3497,-4.3497,-4.3497,-4.3497,-4.3718,-4.4103,-4.458,-4.5168,-4.5846,-4.6704,-4.7158,-4.7524,-4.7879,-4.7925,-4.7861,-4.7819,-4.7759,-4.7717,-4.7819,-4.7759,-4.7717,-4.7717,-4.7717,-4.7717,-4.7717,-4.7717,-4.7717,-4.7717,-4.7657,-4.7615,-4.7511,-4.7425,-4.7312,-4.7196,-4.7133,-4.7088,-4.698,-4.6998,-4.6998,-4.6998,-4.6998,-4.6998,-4.6998,-4.6998,-4.6998,-4.6998,-4.6998,-4.6934,-4.6842,-4.6684,-4.6447,-1.548,-1.5978,-1.672,-1.7519,0.0,0.0,-1.9793,-2.0469,-2.0928,0.0,0.0,0.0,0.0,0.0,0.0,0.0,0.0,0.0,0.0,0.0,0.0,0.0,0.0,0.0,-2.9493,-2.9499,-2.9736,-3.0344,-3.0477,-3.085,-3.1658,-3.239,-3.3205,-3.4044,-3.4361,-3.4914,-3.5681,-3.6045,-3.6208,-3.6208,-3.6419,-3.6585,-3.6702,-3.7009,-3.7627,-3.8557,-3.9763,-4.0741,-4.1477,-4.2611,-4.3123,-4.3214,-4.341,-4.3497,-4.3497,-4.3497,-4.3497,-4.3497,-4.3497,-4.3497,-4.3497,-4.3497,-4.3497,-4.3497,-4.3497,-4.4066,-4.471,-4.4893,-4.5974,-4.7088,-4.6952,-4.7423,-4.797,-4.7902,-4.7861,-4.7819,-4.7699,-4.7675,-4.7657,-4.7657,-4.7657,-4.7657,-4.7657,-4.7657,-4.7657,-4.7657,-4.7657,-4.7657,-4.7657,-4.7554,-4.7468,-4.7468,-4.7312,-4.7178,-4.7196,-4.7088,-4.6998,-4.6998,-4.6998,-4.6998,-4.6998,-4.6998,-4.6998,-4.6998,-4.6998,-4.698,-4.698,-4.698,-4.6842,-4.659,-4.659,-4.6447,0.0,0.0,0.0,0.0,0.0,0.0,-1.9665,-1.9857,-2.0038,0.0,0.0,0.0,0.0,0.0,0.0,0.0,0.0,0.0,0.0,0.0,0.0,0.0,0.0,0.0,-2.8682,-2.8727,-2.8971,-2.9582,-3.0179,-3.0618,-3.0908,-3.1708,-3.2286,-3.253,-3.3922,-3.4806,-3.5045,-3.5831,-3.6208,-3.6259,-3.6544,-3.6643,-3.6702,-3.7105,-3.7721,-3.8557,-3.9763,-4.0741,-4.1477,-4.2611,-4.3123,-4.3196,-4.3376,-4.3446,-4.3497,-4.3497,-4.3497,-4.3497,-4.3497,-4.3497,-4.3497,-4.3497,-4.3497,-4.3497,-4.3446,-4.3997,-4.4876,-4.6063,-4.7065,-4.7773,-4.7706,-4.7816,-4.7884,-4.7759,-4.7657,-4.7554,-4.7554,-4.745,-4.7363,-4.7363,-4.7468,-4.7511,-4.7407,-4.7363,-4.7363,-4.7363,-4.7363,-4.7363,-4.7363,-4.7363,-4.732,-4.7267,-4.7223,-4.7151,-4.7043,-4.7043,-4.6998,-4.6998,-4.6998,-4.6998,-4.6998,-4.6998,-4.6998,-4.6998,-4.6998,-4.6952,-4.6842,-4.6842,-4.6749,-4.659,-4.6495,-4.635,0.0,0.0,0.0,-1.86,0.0,0.0,0.0,-1.9655,-1.9657,-1.9978,-1.9913,-2.0022,-2.0662,0.0,0.0,0.0,0.0,0.0,0.0,0.0,0.0,0.0,0.0,0.0,-2.7844,-2.7923,-2.8296,-2.9334,-2.9764,-3.0211,-3.0757,-3.1223,-3.1674,-3.2174,-3.3539,-3.4465,-3.4882,-3.5788,-3.6276,-3.6301,-3.6544,-3.6702,-3.6702,-3.7122,-3.7934,-3.9089,-3.9886,-4.0881,-4.2034,-4.2698,-4.3012,-4.316,-4.334,-4.3411,-4.3428,-4.3497,-4.3497,-4.3497,-4.3497,-4.3463,-4.3446,-4.3446,-4.3393,-4.3431,-4.378,-4.4748,-4.5933,-4.7019,-4.7597,-4.7824,-4.7741,-4.7657,-4.7554,-4.7511,-4.745,-4.7407,-4.7407,-4.7363,-4.7276,-4.7249,-4.7294,-4.7338,-4.732,-4.7302,-4.7302,-4.7302,-4.7302,-4.7302,-4.7302,-4.7276,-4.7267,-4.7196,-4.7133,-4.7088,-4.6998,-4.6998,-4.6998,-4.6998,-4.6998,-4.6998,-4.6998,-4.6998,-4.698,-4.6888,-4.6888,-4.6842,-4.6684,-4.6637,-4.659,-4.6495,-4.6429,-4.635,0.0,0.0,0.0,0.0,0.0,-1.9744,0.0,0.0,0.0,-1.9357,-1.9198,0.0,0.0,0.0,0.0,0.0,0.0,0.0,0.0,0.0,0.0,0.0,0.0,0.0,0.0,-2.7188,-2.7781,-2.892,-2.9268,-2.9762,-3.0637,-3.0828,-3.1261,-3.2053,-3.3213,-3.4079,-3.466,-3.5786,-3.6301,-3.6301,-3.6544,-3.6702,-3.6702,-3.7105,-3.8129,-3.962,-3.9953,-4.102,-4.2609,-4.2745,-4.2899,-4.3086,-4.3287,-4.3359,-4.3376,-4.3428,-4.3444,-4.3444,-4.3444,-4.3411,-4.334,-4.334,-4.336,-4.3597,-4.4507,-4.5708,-4.6852,-4.7565,-4.7717,-4.7615,-4.7511,-4.7363,-4.7302,-4.7302,-4.7276,-4.7276,-4.7276,-4.7276,-4.7232,-4.7178,-4.7133,-4.7178,-4.7232,-4.7232,-4.7232,-4.7232,-4.7232,-4.7232,-4.7232,-4.7205,-4.7133,-4.7133,-4.7043,-4.6998,-4.6998,-4.6998,-4.6998,-4.6998,-4.6998,-4.6998,-4.6934,-4.6952,-4.6888,-4.6778,-4.6731,-4.6684,-4.6542,-4.6429,-4.6381,-4.6381,-4.6398,-4.6301,0.0,0.0,0.0,0.0,-1.9591,0.0,0.0,0.0,-1.9289,-1.9164,0.0,0.0,0.0,0.0,0.0,0.0,0.0,0.0,0.0,0.0,0.0,0.0,0.0,0.0,0.0,-2.6554,-2.7383,-2.7549,-2.8688,-2.9546,-2.9917,-3.052,-3.1026,-3.1326,-3.294,-3.3823,-3.3909,-3.5511,-3.6301,-3.6301,-3.6544,-3.6702,-3.6702,-3.7009,-3.8033,-3.962,-3.9893,-4.0999,-4.2609,-4.2745,-4.2842,-4.2938,-4.3086,-4.316,-4.3214,-4.3232,-4.3232,-4.3232,-4.3232,-4.3251,-4.3214,-4.3214,-4.367,-4.4431,-4.586,-4.63,-4.6524,-4.7191,-4.7363,-4.7363,-4.732,-4.7302,-4.7302,-4.7302,-4.7249,-4.7223,-4.7223,-4.7133,-4.7025,-4.7025,-4.7025,-4.7043,-4.7025,-4.7025,-4.7025,-4.7025,-4.7025,-4.7025,-4.7025,-4.7043,-4.7025,-4.7025,-4.6998,-4.6998,-4.6998,-4.6998,-4.6998,-4.6998,-4.6998,-4.6952,-4.6842,-4.6684,-4.6637,-4.6637,-4.6637,-4.6542,-4.6429,-4.6398,-4.6381,-4.6398,-4.6253,-4.6221,0.0,0.0,0.0,0.0,0.0,0.0,-1.9365,0.0,-1.9164,0.0,0.0,0.0,0.0,0.0,0.0,0.0,-1.9121,0.0,0.0,0.0,0.0,0.0,0.0,0.0,0.0,0.0,0.0,0.0,-2.7595,-2.8616,-2.9638,-3.0068,-3.0516,-3.1055,-3.2768,-3.3731,-3.3789,-3.541,-3.6276,-3.6301,-3.6544,-3.6702,-3.6719,-3.7444,-3.8475,-3.9656,-4.0273,-4.1328,-4.2566,-4.2667,-4.2727,-4.2842,-4.2956,-4.3031,-4.316,-4.3178,-4.3214,-4.3214,-4.3214,-4.3178,-4.3196,-4.352,-4.4132,-4.4961,-4.5995,-4.6578,-4.6931,-4.7212,-4.7276,-4.7205,-4.716,-4.7053,-4.7007,-4.6898,-4.687,-4.6842,-4.6842,-4.6795,-4.6795,-4.6795,-4.6795,-4.6795,-4.6795,-4.6888,-4.6998,-4.6998,-4.6998,-4.6998,-4.6998,-4.6998,-4.6998,-4.6998,-4.6998,-4.698,-4.6888,-4.6888,-4.6842,-4.6778,-4.6795,-4.6731,-4.6684,-4.6637,-4.659,-4.6495,-4.6477,-4.6398,-4.6253,-4.6253,-4.6253,-4.6253,-4.6221,-4.6172,-1.9675,0.0,0.0,0.0,0.0,0.0,0.0,0.0,0.0,0.0,0.0,0.0,0.0,0.0,-1.8205,-1.8074,0.0,-1.8495,0.0,0.0,0.0,0.0,0.0,0.0,0.0,0.0,0.0,0.0,0.0,-2.7649,-2.921,-2.9588,-3.0118,-3.0958,-3.2669,-3.359,-3.3731,-3.5385,-3.6208,-3.6276,-3.6502,-3.6643,-3.6719,-3.7755,-3.8712,-3.9633,-4.0547,-4.1528,-4.2445,-4.2548,-4.2627,-4.2745,-4.2786,-4.288,-4.2974,-4.3068,-4.3123,-4.3123,-4.3105,-4.3194,-4.3389,-4.401,-4.4764,-4.5534,-4.6277,-4.6801,-4.7232,-4.7169,-4.7098,-4.698,-4.6934,-4.6842,-4.6731,-4.6637,-4.659,-4.659,-4.659,-4.659,-4.659,-4.659,-4.659,-4.659,-4.659,-4.6731,-4.6888,-4.6888,-4.6888,-4.6888,-4.6888,-4.6888,-4.6888,-4.6888,-4.6888,-4.6842,-4.6731,-4.6749,-4.6684,-4.659,-4.659,-4.6542,-4.6542,-4.6495,-4.6447,-4.635,-4.635,-4.6319,-4.6172,-4.6172,-4.6172,-4.6172,-4.6172,-4.6172,0.0,0.0,0.0,-1.932,0.0,0.0,0.0,0.0,-1.8896,0.0,0.0,0.0,0.0,-1.8298,-1.813,-1.7944,-1.7811,0.0,0.0,0.0,0.0,0.0,0.0,0.0,0.0,0.0,0.0,0.0,0.0,0.0,-2.8439,-2.921,-3.0045,-3.0958,-3.257,-3.3473,-3.3607,-3.5343,-3.6225,-3.6225,-3.6419,-3.6544,-3.6719,-3.7592,-3.8585,-3.9564,-4.0424,-4.1392,-4.2328,-4.2445,-4.2566,-4.2609,-4.2609,-4.2609,-4.2649,-4.2862,-4.292,-4.29,-4.286,-4.3249,-4.3904,-4.4695,-4.5504,-4.6295,-4.6954,-4.707,-4.698,-4.6842,-4.6731,-4.6637,-4.6637,-4.659,-4.659,-4.659,-4.659,-4.659,-4.659,-4.659,-4.659,-4.659,-4.659,-4.659,-4.659,-4.659,-4.6637,-4.6637,-4.6637,-4.6637,-4.6637,-4.6637,-4.6637,-4.6637,-4.6637,-4.659,-4.659,-4.659,-4.659,-4.659,-4.6495,-4.6398,-4.6398,-4.6253,-4.6221,-4.6221,-4.6221,-4.6221,-4.6172,-4.6172,-4.6172,-4.6172,-4.6172,-4.6172,0.0,0.0,-2.0776,-2.018,0.0,0.0,0.0,0.0,0.0,0.0,0.0,0.0,0.0,-1.8194,-1.807,-1.7878,-1.7687,-1.7526,0.0,0.0,0.0,0.0,0.0,0.0,0.0,0.0,0.0,0.0,0.0,0.0,0.0,-2.8151,-2.9304,-3.0174,-3.2227,-3.3423,-3.359,-3.5241,-3.6122,-3.6225,-3.6419,-3.6846,-3.7433,-3.8325,-3.928,-4.0264,-4.11,-4.1747,-4.2205,-4.2287,-4.2427,-4.2526,-4.257,-4.2609,-4.2609,-4.2688,-4.2709,-4.2781,-4.33,-4.362,-4.3971,-4.5154,-4.572,-4.6052,-4.6656,-4.6795,-4.6749,-4.6684,-4.6637,-4.659,-4.6495,-4.6495,-4.6447,-4.6368,-4.6319,-4.6319,-4.6319,-4.6319,-4.6319,-4.6319,-4.6319,-4.6319,-4.6319,-4.6319,-4.6416,-4.659,-4.659,-4.659,-4.659,-4.659,-4.659,-4.659,-4.659,-4.659,-4.6495,-4.6398,-4.6319,-4.6319,-4.6319,-4.627,-4.627,-4.6221,-4.6172,-4.6172,-4.6172,-4.6172,-4.6172,-4.6172,-4.6172,-4.6172,-4.6172,-4.6172,-2.0935,-2.1294,0.0,-2.0898,-2.068,0.0,-1.9811,0.0,0.0,0.0,0.0,0.0,0.0,0.0,-1.7944,-1.7772,-1.7595,-1.7408,0.0,-1.7158,0.0,0.0,0.0,0.0,0.0,0.0,0.0,0.0,0.0,0.0,0.0,0.0,-2.8805,-2.9711,-3.1733,-3.306,-3.3482,-3.484,-3.5762,-3.6122,-3.6293,-3.6842,-3.7756,-3.8684,-3.9581,-4.0541,-4.1402,-4.1866,-4.2037,-4.2145,-4.2305,-4.2364,-4.245,-4.245,-4.245,-4.257,-4.257,-4.2656,-4.3386,-4.3811,-4.4235,-4.5285,-4.5846,-4.6166,-4.6495,-4.659,-4.6542,-4.6495,-4.6447,-4.635,-4.6204,-4.6204,-4.6154,-4.6073,-4.6073,-4.6073,-4.6073,-4.6073,-4.6073,-4.6073,-4.6073,-4.6073,-4.6073,-4.6073,-4.6221,-4.6398,-4.6447,-4.6447,-4.6447,-4.6447,-4.6447,-4.6447,-4.6447,-4.6398,-4.635,-4.627,-4.6172,-4.6172,-4.6172,-4.6172,-4.6172,-4.6172,-4.6172,-4.6172,-4.6172,-4.6172,-4.6172,-4.6172,-4.6172,-4.6172,-4.6172,-4.6172]},{"header":{"parameterUnit":"m.s-1","parameterCategory":1,"la1":30.6,"la2":29.2853,"lo1":-89.7004,"lo2":-87.6739,"dy":0.0162,"dx":0.0183,"nx":112,"ny":82,"refTime":"2023-06-17T12:00:00:Z","depth":0,"parameterNumber":3,"parameterNumberName":"V-component_of_WINDS"},"data":[0.0,0.0,0.0,0.0,0.0,0.0,0.0,0.0,0.0,0.0,0.0,0.0,0.0,0.0,0.0,0.0,0.0,0.0,0.0,0.0,0.0,0.0,0.0,0.0,0.0,0.0,0.0,0.0,0.0,0.0,0.0,0.0,0.0,0.0,0.0,0.0,0.0,0.0,0.0,0.0,0.0,0.0,0.0,0.0,0.0,0.0,0.0,0.0,0.0,0.0,0.0,0.0,0.0,0.0,0.0,0.0,0.0,0.0,0.0,0.0,0.0,0.0,0.0,0.0,0.0,0.0,0.0,0.0,0.0,0.0,0.0,0.0,0.0,0.0,0.0,0.0,0.0,0.0,0.0,0.0,0.0,0.0,0.0,0.0,0.0,0.0,0.0,0.0,0.0,0.0,-0.2439,-0.1719,-0.013,0.1008,0.1344,0.1595,0.1706,0.1602,0.0,0.0,0.0,0.0,0.0,0.0,0.0,0.0,0.0,0.0,0.0,0.0,0.0,0.0,0.0,0.0,0.0,0.0,0.0,0.0,0.0,0.0,0.0,0.0,0.0,0.0,0.0,0.0,0.0,0.0,0.0,0.0,0.0,0.0,0.0,0.0,0.0,0.0,0.0,0.0,0.0,0.0,0.0,0.0,0.0,0.0,0.0,0.0,0.0,0.0,0.0,0.0,0.0,0.0,0.0,0.0,0.0,0.0,0.0,0.0,0.0,0.0,0.0,0.0,0.0,0.0,0.0,0.0,0.0,0.0,0.0,0.0,0.0,0.0,0.0,0.0,0.0,0.0,0.0,0.0,0.0,0.0,0.0,0.0,0.0,0.0,0.0,0.0,0.0,0.0,0.0,0.0,0.0,0.0,0.0,0.0,0.0,0.0,0.0,0.0,0.0,0.0,0.0,0.0,-0.2852,-0.1897,-0.0857,-0.0134,0.0202,0.0511,0.0739,0.0674,0.0,0.0,0.0,0.0,0.0,0.0,0.0,0.0,0.0,0.0,0.0,0.0,0.0,0.0,0.0,0.0,0.0,0.0,0.0,0.0,0.0,0.0,0.0,0.0,0.0,0.0,0.0,0.0,0.0,0.0,0.0,0.0,0.0,0.0,0.0,0.0,0.0,0.0,0.0,0.0,0.0,0.0,0.0,0.0,0.0,0.0,0.0,0.0,0.0,0.0,0.0,0.0,0.0,0.0,0.0,0.0,0.0,0.0,0.0,0.0,0.0,0.0,0.0,0.0,0.0,0.0,0.0,0.0,0.0,0.0,0.0,0.0,0.0,0.0,0.0,0.0,0.0,0.0,0.0,0.0,0.0,0.0,0.0,0.0,0.0,0.0,0.0,0.0,0.0,0.0,0.0,0.0,0.0,0.0,0.0,0.0,0.0,0.0,0.0,0.0,0.0,0.0,0.0,-0.3577,-0.317,-0.261,-0.1798,-0.1141,-0.0872,-0.0446,-0.0184,-0.018,0.0162,0.0,0.0,0.0,0.0,0.0,0.0,0.0,0.0,0.0,0.0,0.0,0.0,0.0,0.0,0.0,0.0,0.0,0.0,0.0,0.0,0.0,0.0,0.0,0.0,0.0,0.0,0.0,0.0,0.0,0.0,0.0,0.0,0.0,0.0,0.0,0.0,0.0,0.0,0.0,0.0,0.0,0.0,0.0,0.0,0.0,0.0,0.0,0.0,0.0,0.0,0.0,0.0,0.0,0.0,0.0,0.0,0.0,0.0,0.0,0.0,0.0,0.0,0.0,0.0,0.0,0.0,0.0,0.0,0.0,0.0,0.0,0.0,0.0,0.0,0.0,0.0,0.0,0.0,0.0,0.0,0.0,0.0,0.0,0.0,0.0,0.0,0.0,0.0,0.0,0.0,0.0,0.0,0.0,0.0,0.0,0.0,0.0,0.0,0.0,0.0,0.0,0.0,-0.3904,-0.365,-0.3531,-0.2882,-0.228,-0.2012,-0.1528,-0.1214,-0.1059,-0.0963,0.0,0.0,0.0,0.0,0.0,0.0,0.0,0.0,0.0,0.0,0.0,0.0,0.0,0.0,0.0,0.0,0.0,0.0,0.0,0.0,0.0,0.0,0.0,0.0,0.0,0.0,0.0,0.0,0.0,0.0,0.0,0.0,0.0,0.0,0.0,0.0,0.0,0.0,0.0,0.0,0.0,0.0,0.0,0.0,0.0,0.0,0.0,0.0,0.0,0.0,0.0,0.0,0.0,0.0,0.0,0.0,0.0,0.0,0.0,0.0,0.0,0.0,0.0,0.0,0.0,0.0,0.0,0.0,0.0,0.0,0.0,0.0,0.0,0.0,0.0,0.0,0.0,0.0,0.0,0.0,0.0,0.0,0.0,0.0,0.0,0.0,0.0,0.0,0.0,0.0,0.0,0.0,0.0,0.0,0.0,0.0,0.0,0.0,0.0,0.0,0.0,0.0,-0.4604,-0.4525,-0.453,-0.4084,-0.3618,-0.3157,-0.2739,-0.2429,-0.218,-0.1876,0.0,0.0,0.0,0.0,0.0,0.0,0.0,0.0,0.0,0.0,0.0,0.0,0.0,0.0,0.0,0.0,0.0,0.0,0.0,0.0,0.0,0.0,0.0,0.0,0.0,0.0,0.0,0.0,0.0,0.0,0.0,0.0,0.0,0.0,0.0,0.0,0.0,0.0,0.0,0.0,0.0,0.0,0.0,0.0,0.0,0.0,0.0,0.0,0.0,0.0,0.0,0.0,0.0,0.0,0.0,0.0,0.0,0.0,0.0,0.0,0.0,0.0,0.0,0.0,0.0,0.0,0.0,0.0,0.0,0.0,0.0,0.0,0.0,0.0,0.0,0.0,0.0,0.0,0.0,0.0,0.0,0.0,0.0,0.0,0.0,0.0,0.0,0.0,0.0,0.0,0.0,0.0,0.0,0.0,0.0,0.0,0.0,0.0,0.0,0.0,0.0,0.0,-0.5246,-0.5333,0.0,-0.5153,-0.4824,-0.4561,-0.3945,-0.343,-0.3199,0.0,0.0,0.0,0.0,0.0,0.0,0.0,0.0,0.0,0.0,0.0,0.0,0.0,0.0,0.0,0.0,0.0,0.0,0.0,0.0,0.0,0.0,0.0,0.0,0.0,0.0,0.0,0.0,0.0,0.0,0.0,0.0,0.0,0.0,0.0,0.0,0.0,0.0,0.0,0.0,0.0,0.0,0.0,0.0,0.0,0.0,0.0,0.0,0.0,0.0,0.0,0.0,0.0,0.0,0.0,0.0,0.0,0.0,0.0,0.0,0.0,0.0,0.0,0.0,0.0,0.0,0.0,0.0,0.0,0.0,0.0,0.0,0.0,0.0,0.0,0.0,0.0,0.0,0.0,0.0,0.0,0.0,0.0,0.0,0.0,0.0,0.0,0.0,0.0,0.0,0.0,0.0,0.0,0.0,0.0,0.0,0.0,0.0,0.0,0.0,0.0,0.0,-0.5813,-0.5918,-0.6072,0.0,-0.6086,-0.5756,-0.5557,-0.4892,-0.4323,-0.3981,0.0,0.0,0.0,0.0,0.0,0.0,0.0,0.0,0.0,0.0,0.0,0.0,0.0,0.0,0.0,0.0,0.0,0.0,0.0,0.0,0.0,0.0,0.0,0.0,0.0,0.0,0.0,0.0,0.0,0.0,0.0,0.0,0.0,0.0,0.0,0.0,0.0,0.0,0.0,0.0,0.0,0.0,0.0,0.0,0.0,0.0,0.0,0.0,0.0,0.0,0.0,0.0,0.0,0.0,0.0,0.0,0.0,0.0,0.0,0.0,0.0,0.0,0.0,0.0,0.0,0.0,0.0,0.0,0.0,0.0,0.0,0.0,0.0,0.0,0.0,0.0,0.0,0.0,0.0,0.0,0.0,0.0,0.0,0.0,0.0,0.0,0.0,0.0,0.0,0.0,0.0,0.0,0.0,0.0,0.0,0.0,0.0,0.0,0.0,0.0,0.0,0.0,-0.6609,-0.6759,-0.6809,-0.6902,-0.6881,-0.6618,-0.5954,-0.5579,-0.5135,0.0,0.0,0.0,0.0,0.0,0.0,0.0,0.0,0.0,0.0,0.0,0.0,0.0,0.0,0.0,0.0,0.0,0.0,0.0,0.0,0.0,0.0,0.0,0.0,0.0,0.0,0.0,0.0,0.0,0.0,0.0,0.0,0.0,0.0,0.0,0.0,0.0,0.0,0.0,0.0,0.0,0.0,0.0,0.0,0.0,0.0,0.0,0.0,0.0,0.0,0.0,0.0,0.0,0.0,0.0,0.0,0.0,0.0,0.0,0.0,0.0,0.0,0.0,0.0,0.0,0.0,0.0,0.0,0.0,0.0,0.0,0.0,0.0,0.0,0.0,0.0,0.0,0.0,0.0,0.0,0.0,0.0,0.0,0.0,0.0,0.0,0.0,0.0,0.0,0.0,0.0,0.0,0.0,0.0,0.0,0.0,0.0,0.0,0.0,0.0,0.0,0.0,0.0,-0.6951,-0.7178,-0.737,-0.7618,-0.7461,-0.7265,-0.7064,-0.627,-0.5624,-0.5335,0.0,0.0,0.0,0.0,0.0,0.0,0.0,0.0,0.0,0.0,0.0,0.0,0.0,0.0,0.0,0.0,0.0,0.0,0.0,0.0,0.0,0.0,0.0,0.0,0.0,0.0,0.0,0.0,0.0,0.0,0.0,0.0,0.0,0.0,0.0,0.0,0.0,0.0,0.0,0.0,0.0,0.0,0.0,0.0,0.0,0.0,0.0,0.0,0.0,0.0,0.0,0.0,0.0,0.0,0.0,0.0,0.0,0.0,0.0,0.0,0.0,0.0,0.0,0.0,0.0,0.0,0.0,0.0,0.0,0.0,0.0,0.0,0.0,0.0,0.0,0.0,0.0,0.0,0.0,0.0,0.0,0.0,0.0,0.0,0.0,0.0,0.0,0.0,0.0,0.0,0.0,0.0,0.0,0.0,0.0,0.0,0.0,0.0,0.0,0.0,0.0,0.0,-0.7535,-0.7651,-0.7857,-0.8135,-0.7917,-0.7717,-0.7526,-0.6845,-0.622,-0.5797,0.0,0.0,0.0,0.0,0.0,0.0,0.0,0.0,0.0,0.0,0.0,0.0,0.0,0.0,0.0,0.0,0.0,0.0,0.0,0.0,0.0,0.0,0.0,0.0,0.0,0.0,0.0,0.0,0.0,0.0,0.0,0.0,0.0,0.0,0.0,0.0,0.0,0.0,0.0,0.0,0.0,0.0,0.0,0.0,0.0,0.0,0.0,0.0,0.0,0.0,0.0,0.0,0.0,0.0,0.0,0.0,0.0,0.0,0.0,0.0,0.0,0.0,0.0,0.0,0.0,0.0,0.0,0.0,0.0,0.0,0.0,0.0,0.0,0.0,0.0,0.0,0.0,0.0,0.0,0.0,0.0,0.0,0.0,0.0,0.0,0.0,0.0,0.0,0.0,0.0,0.0,0.0,0.0,0.0,0.0,0.0,0.0,0.0,0.0,0.0,0.0,0.0,-0.8213,-0.8173,-0.8193,-0.8495,-0.8338,-0.8072,-0.7615,-0.7364,-0.6839,-0.6021,0.0,0.0,0.0,0.0,0.0,0.0,0.0,0.0,0.0,0.0,0.0,0.0,0.0,0.0,0.0,0.0,0.0,0.0,0.0,0.0,0.0,0.0,0.0,0.0,0.0,0.0,0.0,0.0,0.0,0.0,0.0,0.0,0.0,0.0,0.0,0.0,0.0,0.0,0.0,0.0,0.0,0.0,0.0,0.0,0.0,0.0,0.0,0.0,0.0,0.0,0.0,0.0,0.0,0.0,0.0,0.0,0.0,0.0,0.0,0.0,-1.317,0.0,0.0,0.0,0.0,0.0,0.0,0.0,0.0,0.0,0.0,0.0,0.0,0.0,0.0,0.0,0.0,0.0,0.0,0.0,0.0,0.0,0.0,0.0,0.0,0.0,0.0,0.0,0.0,0.0,0.0,0.0,0.0,0.0,0.0,0.0,0.0,0.0,0.0,0.0,0.0,0.0,-0.8346,-0.8446,-0.8572,-0.8926,-0.8719,-0.8379,-0.8168,-0.7775,-0.718,-0.6332,-0.5676,0.0,0.0,0.0,0.0,0.0,0.0,0.0,0.0,0.0,0.0,0.0,0.0,0.0,0.0,0.0,0.0,0.0,0.0,0.0,0.0,0.0,0.0,0.0,0.0,0.0,0.0,0.0,0.0,0.0,0.0,0.0,0.0,0.0,0.0,0.0,0.0,0.0,0.0,0.0,0.0,0.0,0.0,0.0,0.0,0.0,0.0,0.0,0.0,0.0,0.0,0.0,0.0,0.0,0.0,0.0,0.0,0.0,0.0,0.0,0.0,-1.4389,0.0,0.0,0.0,0.0,0.0,0.0,0.0,0.0,0.0,0.0,0.0,0.0,0.0,0.0,0.0,0.0,0.0,0.0,0.0,0.0,0.0,0.0,0.0,0.0,0.0,0.0,0.0,0.0,0.0,0.0,0.0,0.0,0.0,0.0,0.0,0.0,0.0,0.0,0.0,0.0,-0.8539,-0.8717,-0.8907,-0.9214,-0.8958,-0.8638,-0.8316,-0.7942,-0.7372,-0.6595,-0.5964,0.0,0.0,0.0,0.0,0.0,0.0,0.0,0.0,0.0,0.0,0.0,0.0,0.0,0.0,0.0,0.0,0.0,0.0,0.0,0.0,0.0,0.0,0.0,0.0,0.0,0.0,0.0,0.0,0.0,0.0,0.0,0.0,0.0,0.0,0.0,0.0,0.0,0.0,0.0,0.0,0.0,0.0,0.0,0.0,0.0,0.0,0.0,0.0,0.0,0.0,0.0,0.0,0.0,-1.4784,-1.5814,-1.6676,-1.8129,-1.9019,-1.9323,-1.8153,-1.7169,-1.6413,0.0,0.0,0.0,0.0,0.0,0.0,0.0,0.0,0.0,0.0,0.0,0.0,0.0,0.0,0.0,0.0,0.0,0.0,0.0,0.0,0.0,0.0,0.0,0.0,0.0,-0.853,-0.7907,0.0,0.0,0.0,0.0,0.0,0.0,0.0,0.0,0.0,0.0,0.0,0.0,-0.8681,-0.8959,-0.9182,-0.9428,-0.92,-0.884,-0.8437,-0.8054,-0.7521,-0.6795,-0.6259,-0.5776,0.0,0.0,0.0,0.0,0.0,0.0,0.0,0.0,0.0,0.0,0.0,0.0,0.0,0.0,0.0,0.0,0.0,0.0,0.0,0.0,0.0,0.0,0.0,0.0,0.0,0.0,0.0,0.0,0.0,0.0,0.0,0.0,-0.0077,-0.0314,0.0,0.0,0.0,0.0,0.0,0.0,0.0,0.0,0.0,0.0,0.0,0.0,0.0,-1.1591,-1.2484,-1.3766,-1.4764,-1.5624,-1.6984,-1.8226,-1.9239,-2.0632,-2.138,-2.169,-2.2131,0.0,-1.874,-1.8539,0.0,0.0,0.0,0.0,0.0,0.0,0.0,0.0,0.0,0.0,0.0,0.0,0.0,0.0,0.0,0.0,0.0,0.0,0.0,0.0,0.0,0.0,-1.0126,-0.9982,-0.9396,-0.8836,0.0,-0.7717,-0.6987,-0.6934,0.0,0.0,0.0,0.0,0.0,0.0,0.0,0.0,-0.9005,-0.9361,-0.9591,-0.9633,-0.9597,-0.9368,-0.8964,-0.8355,-0.7729,-0.7003,-0.6578,-0.6044,-0.5317,-0.5209,0.0,0.0,0.0,0.0,0.0,0.0,0.0,0.0,0.0,0.0,0.0,0.0,0.0,0.0,0.0,0.0,0.0,0.0,0.0,0.0,0.0,0.0,0.0,0.0,0.0,0.0,0.0,0.0,0.0,-0.0041,-0.0561,-0.0952,-0.1432,-0.1881,0.0,0.0,0.0,0.0,0.0,0.0,0.0,0.0,0.0,-1.0968,-1.2126,-1.3321,-1.4435,-1.5818,-1.7019,-1.8081,-1.9382,-2.0522,-2.1501,-2.2763,-2.3645,-2.4196,-2.4619,-2.4283,-2.3392,-2.1576,-2.0699,-2.0431,0.0,0.0,0.0,0.0,-1.9764,-1.9627,-1.9821,-1.948,0.0,0.0,0.0,0.0,0.0,0.0,0.0,0.0,0.0,0.0,0.0,0.0,0.0,-1.1028,-1.0457,-0.9808,-0.9417,-0.8964,-0.8404,0.0,-0.7722,-0.7854,-0.8015,0.0,0.0,0.0,0.0,-0.9116,-0.9278,-0.9735,-0.9931,-0.9695,-0.9623,-0.9421,-0.9061,-0.8307,-0.7726,-0.7198,-0.6662,-0.6215,-0.5811,-0.5567,-0.5309,0.0,0.0,0.0,0.0,0.0,0.0,0.0,0.0,0.0,0.0,0.0,0.0,0.0,0.0,0.0,0.0,0.0,0.0,0.0,0.0,0.0,0.0,0.0,0.0,0.0,0.0,0.0,0.0,-0.0598,-0.115,-0.1728,-0.2232,-0.2755,0.0,0.0,0.0,0.0,0.0,0.0,-0.9169,-1.0174,-1.1316,-1.2724,-1.3982,-1.5221,-1.6506,-1.7853,-1.9233,-2.0501,-2.1597,-2.2623,-2.3636,-2.476,-2.574,-2.6548,-2.6923,-2.739,-2.7649,-2.4656,-2.3408,-2.3322,-2.2889,-2.2586,-2.244,-2.2566,-2.252,-2.2345,-2.2342,-2.203,-2.1499,-2.1024,0.0,-1.8521,-1.7971,0.0,0.0,0.0,0.0,-1.4147,-1.3951,-1.3094,-1.2247,-1.1962,-1.1335,-1.0639,-1.0161,-1.002,-0.9685,0.0,-0.8688,-0.889,-0.8926,0.0,0.0,0.0,0.0,-0.9691,-0.9693,-1.0116,-1.0287,-1.0002,-0.9821,-0.9622,-0.9153,-0.8425,-0.7807,-0.7462,-0.692,-0.6515,-0.6346,-0.6058,-0.5823,-0.5677,0.0,0.0,0.0,0.0,0.0,0.0,0.0,0.0,0.0,0.0,0.0,0.0,0.0,0.0,0.0,0.0,0.0,0.0,0.0,0.0,0.0,0.0,0.0,0.0,0.0,0.0,0.0,0.0,0.0,-0.2493,-0.3198,0.0,0.0,0.0,0.0,-0.6977,-0.8175,-0.9551,-1.0976,-1.214,-1.3452,-1.4915,-1.6422,-1.7642,-1.8645,-1.9988,-2.1279,-2.2559,-2.334,-2.4362,-2.5703,-2.668,-2.7681,-2.8589,-2.9577,-3.0202,-3.037,-2.7396,-2.5895,-2.5466,-2.5576,-2.518,-2.4704,-2.5212,-2.5319,-2.5268,-2.5636,-2.5108,-2.4134,-2.3171,-2.1229,-1.9118,-1.8257,-1.7545,0.0,0.0,-1.6306,-1.5429,-1.5205,-1.4311,-1.3349,-1.2536,-1.1773,-1.1203,-1.0851,-1.0563,-1.0184,0.0,-0.962,-0.9788,-0.9445,0.0,-0.9663,-0.9682,-0.9701,-0.9899,-1.0358,-1.056,-1.0633,-1.0677,-1.0359,-0.9992,-0.9604,-0.8812,-0.8234,-0.7801,-0.7462,-0.7114,-0.6665,-0.6684,-0.6344,-0.5786,-0.5738,0.0,0.0,0.0,0.0,0.0,0.0,0.0,0.0,0.0,0.0,0.0,0.0,0.0,0.0,0.0,0.0,0.0,0.0,0.0,0.0,0.0,0.0,0.0,0.0,0.0,0.0,0.0,0.0,-0.3607,-0.4312,0.0,-0.5765,-0.6609,-0.7588,-0.8743,-0.9955,-1.1364,-1.3034,-1.4076,-1.5369,-1.7033,-1.8143,-1.9367,-2.0862,-2.1958,-2.3189,-2.4548,-2.564,-2.6687,-2.7687,-2.8937,-3.0017,-3.0895,-3.1399,-3.1958,-3.2353,-3.1021,-2.9653,-2.8329,-2.8007,-2.7396,-2.6736,-2.6771,-2.6683,-2.6603,-2.6492,-2.6149,-2.55,-2.4338,-2.3055,-2.1839,-2.0978,-2.0248,-1.9504,-1.8794,-1.7825,-1.6829,-1.6169,-1.505,-1.3913,-1.3285,-1.2428,-1.1685,-1.1358,-1.1031,-1.0825,-1.0603,-1.0479,-1.0405,-1.04,-1.0494,-1.0699,-1.0765,-1.0765,-1.0843,-1.0918,-1.1114,-1.1114,-1.0707,-1.066,-1.0368,-0.9846,-0.9165,-0.8591,-0.8032,-0.7733,-0.7446,-0.7048,-0.7093,-0.6984,-0.6624,-0.6462,-0.6158,0.0,0.0,0.0,0.0,0.0,0.0,0.0,0.0,0.0,0.0,0.0,0.0,0.0,0.0,0.0,0.0,0.0,0.0,0.0,0.0,0.0,0.0,0.0,0.0,0.0,0.0,-0.3521,-0.4537,-0.5386,-0.6241,-0.7193,-0.8103,-0.9165,-1.0421,-1.1643,-1.3103,-1.4851,-1.5937,-1.7301,-1.8901,-1.9964,-2.1209,-2.2672,-2.3756,-2.4903,-2.6214,-2.7445,-2.8478,-2.9386,-3.0616,-3.1675,-3.2548,-3.2965,-3.3486,-3.4011,-3.3862,-3.2944,-3.1546,-3.0648,-3.0004,-2.9468,-2.9215,-2.8855,-2.8485,-2.7661,-2.7024,-2.6443,-2.537,-2.4396,-2.3527,-2.2671,-2.1843,-2.1043,-2.0158,-1.9055,-1.7988,-1.7234,-1.5975,-1.4829,-1.4133,-1.3188,-1.2457,-1.2138,-1.1825,-1.1597,-1.163,-1.131,-1.0993,-1.1039,-1.1299,-1.155,-1.1512,-1.1567,-1.16,-1.1639,-1.175,-1.169,-1.1275,-1.1083,-1.0812,-1.0218,-0.9616,-0.9038,-0.8457,-0.8229,-0.7962,-0.754,-0.7713,-0.7658,-0.7497,-0.7089,-0.6791,-0.6634,0.0,0.0,0.0,0.0,0.0,0.0,0.0,0.0,0.0,0.0,0.0,0.0,0.0,0.0,0.0,0.0,0.0,0.0,0.0,0.0,0.0,0.0,0.0,-0.2484,-0.3253,-0.4149,-0.5296,-0.6429,-0.7525,-0.8567,-0.9708,-1.0907,-1.1979,-1.3253,-1.4668,-1.6277,-1.7787,-1.9207,-2.0605,-2.1983,-2.318,-2.4204,-2.5346,-2.6458,-2.7537,-2.8556,-2.9676,-3.0807,-3.1777,-3.2664,-3.3559,-3.4382,-3.493,-3.5304,-3.5817,-3.5651,-3.4905,-3.3506,-3.2944,-3.2884,-3.2545,-3.1876,-3.0855,-2.9312,-2.7982,-2.694,-2.6278,-2.5157,-2.3914,-2.3109,-2.2239,-2.1481,-2.0962,-2.007,-1.8988,-1.8255,-1.7217,-1.6069,-1.507,-1.4268,-1.3606,-1.3284,-1.2883,-1.2651,-1.2657,-1.2197,-1.1643,-1.1369,-1.1826,-1.215,-1.1778,-1.1936,0.0,-1.2494,-1.2388,-1.2278,-1.2345,-1.1781,-1.126,-1.0887,-1.0217,-0.9608,-0.9092,-0.8917,-0.861,-0.8242,-0.8441,-0.8398,-0.8213,-0.7581,-0.7268,-0.7365,0.0,0.0,0.0,0.0,0.0,0.0,0.0,0.0,0.0,0.0,0.0,0.0,0.0,0.0,0.0,0.0,0.0,0.0,0.0,0.0,0.0,0.0,-0.2383,-0.3085,-0.4189,-0.5414,-0.6428,-0.7729,-0.8909,-0.9853,-1.092,-1.219,-1.3666,-1.4933,-1.6482,-1.8391,-1.9896,-2.1479,-2.3113,-2.4282,-2.5303,-2.6318,-2.7303,-2.8132,-2.8839,-2.9846,-3.1102,-3.2516,-3.3661,-3.478,-3.5969,-3.6815,-3.7,-3.6734,-3.7042,-3.6782,-3.6121,-3.4831,-3.4032,-3.3515,-3.3048,-3.2144,-3.0998,-3.0209,-2.906,-2.785,-2.724,-2.6396,-2.5505,-2.4765,-2.3987,-2.3212,-2.2333,-2.128,-2.02,-1.9201,-1.8105,-1.7107,-1.613,-1.5166,-1.4455,-1.4221,-1.3653,-1.318,-1.3386,-1.3365,-1.3083,-1.2483,-1.258,-1.2769,-1.2762,-1.2863,0.0,-1.3201,-1.3216,-1.3027,-1.2739,-1.2599,-1.2224,-1.1484,-1.0943,-1.039,-0.9637,-0.9321,-0.9009,-0.8646,-0.8765,-0.8839,-0.8713,-0.8498,-0.8356,0.0,0.0,0.0,0.0,0.0,0.0,0.0,0.0,0.0,0.0,0.0,0.0,0.0,0.0,0.0,0.0,0.0,0.0,0.0,0.0,0.0,0.0,-0.2142,-0.3086,-0.4015,-0.5049,-0.6207,-0.7446,-0.8765,-0.995,-1.0936,-1.2188,-1.3622,-1.5209,-1.6521,-1.8054,-2.0026,-2.1496,-2.301,-2.4613,-2.5919,-2.7103,-2.8158,-2.928,-3.0173,-3.0845,-3.1901,-3.305,-3.4304,-3.5283,-3.6337,0.0,-3.801,-3.8229,-3.8062,-3.7945,-3.7703,0.0,0.0,0.0,0.0,0.0,-3.2741,-3.1528,-3.0685,-2.9533,-2.8271,-2.7675,-2.6997,-2.6244,-2.5605,-2.4821,-2.4002,-2.3148,-2.2113,-2.0944,-1.9955,-1.9015,-1.8067,-1.7224,-1.6355,-1.5725,-1.5514,-1.4962,-1.4493,-1.4671,-1.4808,0.0,-1.4321,-1.4007,-1.3896,-1.3807,-1.3903,-1.3998,-1.3943,-1.3928,-1.3848,-1.3404,-1.3331,-1.2966,-1.2224,-1.1559,0.0,0.0,0.0,-0.9492,-0.9285,-0.9515,0.0,0.0,0.0,-0.9618,-0.9618,0.0,0.0,0.0,-0.9451,-0.9885,0.0,0.0,0.0,0.0,0.0,0.0,0.0,0.0,0.0,0.0,0.0,0.0,0.0,0.0,0.0,0.0,-0.2516,-0.3769,-0.514,-0.5849,-0.681,-0.8328,-0.9535,-1.0768,-1.198,-1.342,-1.5016,-1.6684,-1.7948,-1.9427,-2.1294,0.0,0.0,0.0,0.0,-2.8669,-2.9784,-3.1057,-3.2213,-3.3166,-3.413,-3.5059,-3.6055,-3.6845,-3.7519,-3.8252,-3.8728,-3.906,-3.9221,-3.8778,-3.847,-3.8201,-3.7004,-3.6419,-3.613,-3.4834,-3.3594,-3.2351,-3.0988,0.0,0.0,-2.784,-2.7086,-2.6404,-2.5879,-2.5104,-2.4234,-2.3649,-2.2604,-2.1491,-2.0655,-1.9945,-1.9193,-1.833,-1.7787,-1.7271,-1.7033,-1.6617,-1.6296,-1.6378,-1.6542,-1.6611,-1.6516,-1.5803,-1.5165,-1.4893,-1.5099,-1.5185,-1.4881,-1.4737,-1.4561,-1.4274,0.0,0.0,-1.3112,-1.2227,-1.1483,-1.1138,-1.0501,-1.0142,-1.0142,-1.045,-1.0651,-1.0651,-1.085,-1.0916,-1.0916,-1.132,-1.1678,-1.1911,-1.1108,-1.115,0.0,0.0,0.0,0.0,0.0,0.0,0.0,0.0,0.0,0.0,0.0,0.0,0.0,0.0,0.0,-0.1429,-0.2554,-0.3991,-0.5814,-0.687,-0.7731,-0.8724,-1.0179,-1.1591,-1.2841,-1.4269,-1.5821,-1.7471,-1.8941,-2.0616,-2.2483,-2.4325,0.0,-2.7798,-2.9276,-3.0553,-3.1502,-3.2639,-3.3528,-3.413,0.0,0.0,-3.7567,-3.8388,-3.9251,-4.0203,-4.0791,-4.0692,-4.0165,-4.0253,-3.9499,-3.8201,-3.7103,-3.6478,-3.6148,-3.5559,-3.4571,-3.3321,-3.1885,-3.056,-2.9319,-2.8041,-2.7152,-2.6563,-2.6002,-2.5328,0.0,-2.393,-2.3027,-2.2051,-2.1376,-2.1008,-2.0589,-1.9797,-1.9383,-1.9025,-1.8621,-1.8078,-1.7666,-1.7819,-1.8069,-1.8212,-1.8356,-1.7262,-1.6288,-1.6304,-1.6071,-1.5945,-1.6032,-1.5745,-1.5409,-1.5062,-1.484,-1.4474,-1.3912,-1.3133,-1.2564,-1.2213,-1.1394,-1.0999,-1.0999,-1.1187,-1.1349,-1.156,-1.1689,-1.1757,-1.1757,-1.2169,-1.2701,-1.3256,-1.2548,-1.266,0.0,0.0,0.0,0.0,0.0,0.0,0.0,0.0,0.0,0.0,0.0,0.4256,0.2926,0.0,0.0296,-0.1399,-0.2664,-0.4089,-0.6025,-0.7149,-0.8151,-0.9361,-1.0656,-1.2031,-1.343,-1.4986,-1.66,-1.8353,-1.9937,-2.1646,-2.3448,-2.5176,-2.6953,-2.8797,-3.0342,-3.1839,-3.3161,-3.4229,-3.5199,-3.6137,-3.691,-3.7888,-3.8954,-3.9644,-4.0271,-4.0953,-4.1471,-4.1464,-4.1024,-4.0411,-3.9388,-3.8081,-3.7004,-3.6461,-3.6191,-3.5756,-3.4834,-3.3581,-3.2126,-3.0814,-2.9555,-2.8087,-2.7203,-2.663,-2.6056,-2.5453,-2.4778,-2.4221,-2.3399,-2.2628,-2.2063,-2.1621,-2.1243,-2.0713,-2.034,-2.012,-1.9934,-1.965,-1.9395,-1.9543,-1.9788,-2.0032,-2.011,-1.9627,-1.8893,-1.7966,-1.7582,-1.7351,-1.7153,-1.6785,-1.6324,-1.5771,-1.563,-1.5196,-1.4553,-1.361,-1.2803,-1.229,-1.1861,-1.1567,-1.1567,-1.1854,-1.2075,-1.2144,-1.2593,-1.282,-1.282,-1.3411,-1.3947,-1.4328,-1.4086,-1.4256,0.0,0.0,0.0,0.0,0.0,0.0,0.0,0.9868,0.8953,0.7864,0.6591,0.52,0.3734,0.2247,0.0707,-0.1269,-0.2591,-0.4082,-0.6002,-0.7138,-0.836,-0.9859,-1.1068,-1.229,-1.3786,-1.5549,-1.7282,-1.9057,-2.0758,-2.2482,-2.4211,-2.5808,-2.751,-2.9409,-3.1106,-3.2721,-3.4191,-3.5304,-3.6521,-3.7792,-3.8411,-3.9143,-4.0003,-4.0551,-4.0888,-4.1123,-4.1604,-4.1823,-4.1717,-4.0123,-3.9001,-3.8211,-3.6956,-3.636,-3.6174,-3.5711,-3.4873,-3.3733,-3.2127,-3.0845,-2.9676,-2.8117,-2.7203,-2.663,-2.6056,-2.5508,-2.4878,-2.4408,-2.3767,-2.3078,-2.2567,-2.2079,-2.1676,-2.1439,-2.1267,-2.1133,-2.1207,-2.1268,-2.1247,-2.1324,-2.1638,-2.1876,-2.1952,-2.2048,-2.1621,-1.9745,-1.9276,-1.8874,-1.8228,-1.7741,-1.725,-1.656,-1.6342,-1.5842,-1.4974,-1.3947,-1.2987,-1.2317,-1.2296,-1.2296,-1.2227,-1.253,-1.277,-1.277,-1.3472,-1.3841,-1.3841,-1.448,-1.4947,-1.5171,-1.5413,-1.549,1.7814,1.7335,1.6454,1.5277,1.4537,1.3888,0.0,1.185,1.0691,0.9705,0.823,0.656,0.4891,0.3137,0.1348,-0.0662,-0.2218,-0.3928,-0.5855,-0.7119,-0.836,-0.9859,-1.1154,-1.2463,-1.3786,-1.5644,-1.7458,-1.9217,-2.1015,-2.2911,-2.4978,-2.6554,-2.8255,-3.0152,-3.1723,-3.303,-3.3847,-3.5048,-3.6221,-3.7388,-3.8018,-3.9008,-4.0255,-4.081,-4.1123,-4.1209,-4.1631,-4.1884,-4.1839,-4.0063,-3.9258,-3.9006,-3.7082,-3.6216,-3.5975,-3.5503,-3.5038,-3.4266,-3.216,-3.0998,-3.0196,-2.8218,-2.7203,-2.663,-2.6056,-2.5508,-2.4878,-2.4408,-2.3852,-2.3271,-2.2702,-2.2534,-2.2402,-2.2241,-2.2391,-2.2595,-2.2733,-2.2883,-2.2988,-2.3136,-2.3368,-2.3588,-2.3745,-2.3683,-2.3084,-2.1456,-2.0937,-2.0353,-1.9476,-1.8889,-1.8189,-1.7204,-1.6751,-1.6105,-1.4974,-1.4593,-1.414,-1.3389,-1.331,-1.3237,-1.3092,-1.34,-1.364,-1.3797,-1.4231,-1.4414,-1.4414,-1.4599,-1.4997,-1.5522,-1.5769,-1.5928,1.88,1.838,1.7871,1.6873,1.6363,1.5847,1.4951,1.3836,1.2603,1.1512,0.9856,0.7993,0.6013,0.4034,0.1964,0.0,-0.2072,-0.3896,-0.5794,-0.7041,-0.836,-0.9859,-1.1154,-1.2463,-1.3792,-1.5812,-1.7715,-1.9306,-2.1192,-2.3173,-2.5062,-2.6637,-2.8414,-3.038,-3.1649,-3.2865,-3.4114,-3.4924,-3.5855,-3.691,-3.8017,-3.9024,-3.9822,-4.0698,-4.1215,-4.1453,-4.1515,-4.1648,-4.163,-3.9765,-3.8947,-3.8686,-3.6775,-3.5888,-3.5605,-3.5367,-3.4994,-3.4349,-3.2641,-3.1407,-3.0351,-2.8701,-2.7513,-2.663,-2.6056,-2.5508,-2.4948,-2.4593,-2.4028,-2.345,-2.3017,-2.269,-2.2492,-2.2364,-2.2593,-2.2959,-2.333,-2.3864,-2.4337,-2.4492,-2.4767,-2.5052,-2.5122,-2.5004,-2.4576,-2.3683,-2.2626,-2.1688,-2.1063,-2.0112,-1.8943,-1.7489,-1.6751,-1.6123,-1.5346,-1.4856,-1.4425,-1.4072,-1.4109,-1.4067,-1.3985,-1.4305,-1.456,-1.4637,-1.4881,-1.4974,-1.4974,-1.516,-1.5486,-1.5881,-1.6118,-1.6273,2.0172,1.9794,1.9384,1.873,1.8216,1.7679,1.6829,1.5706,1.4505,1.3322,1.154,0.95,0.7171,0.4975,0.2735,0.0251,-0.173,-0.3728,-0.5708,-0.7041,-0.836,-0.9772,-1.1154,-1.2433,-1.3678,-1.577,-1.766,-1.9154,-2.1116,-2.3142,-2.5062,-2.6719,-2.8481,-3.0532,-3.1463,-3.263,-3.4035,-3.4546,-3.5361,-3.6331,-3.7586,-3.8512,-3.9084,-4.0233,-4.1052,-4.1498,-4.1363,-4.138,-4.1321,-3.9502,-3.8639,-3.8287,-3.6423,-3.5532,-3.5287,-3.5088,-3.4739,-3.4153,-3.2793,-3.1596,-3.0483,-2.92,-2.7895,-2.6784,-2.6256,-2.5591,-2.4892,-2.4607,-2.4086,-2.3497,-2.3138,-2.2787,-2.2492,-2.2515,-2.2721,-2.3167,-2.3745,-2.4598,-2.5259,-2.5557,-2.6,-2.6277,-2.622,-2.6082,-2.5873,-2.537,-2.4189,-2.3059,-2.2291,-2.0917,-1.9463,-1.7961,-1.7229,-1.659,-1.6024,-1.551,-1.5146,-1.4862,-1.4867,-1.4857,-1.4849,-1.5104,-1.5217,-1.5217,-1.5385,-1.5471,-1.5382,-1.5621,-1.5824,-1.6087,-1.6245,-1.6484,2.254,2.2008,2.1328,2.1051,2.0225,1.9261,1.8638,1.7461,1.6178,1.5233,1.3288,1.1095,0.8703,0.6237,0.3818,0.1168,-0.111,-0.3233,-0.5437,-0.6953,-0.836,-0.9767,-1.1149,-1.2363,0.0,-1.5362,-1.7219,-1.8759,-2.0793,-2.2847,-2.5041,-2.686,-2.8627,-3.0532,-3.1632,-3.2539,-3.3332,-3.3908,-3.4681,-3.5628,-3.6317,-3.7242,-3.8282,-3.9405,-4.0377,-4.1209,-4.1209,-4.118,-4.0972,-3.9323,-3.8425,-3.8025,-3.6134,-3.5304,-3.5041,-3.4546,-3.4151,-3.37,-3.2316,-3.1451,-3.0803,-2.951,-2.8242,-2.7185,-2.6722,-2.5739,-2.4721,-2.4408,-2.3956,-2.3509,-2.303,-2.28,-2.269,-2.2707,-2.2979,-2.3462,-2.429,-2.5074,-2.5707,-2.6246,-2.685,-2.7214,-2.7011,-2.6998,-2.6769,-2.622,-2.5652,-2.4602,-2.2838,-2.105,-1.9683,-1.9039,-1.8433,-1.7832,-1.7168,-1.6934,-1.6632,-1.6057,-1.5819,-1.5581,-1.5342,-1.5535,-1.5561,-1.5561,-1.5904,-1.5982,-1.5718,-1.5733,-1.5824,-1.6087,-1.6095,-1.6335,2.3316,2.3257,2.3165,2.2523,2.191,2.1256,2.0637,1.9426,1.8135,1.6821,1.4869,1.2635,0.9974,0.7316,0.4596,0.1877,-0.0675,-0.295,-0.4986,-0.6715,-0.8273,-0.951,-1.1068,0.0,0.0,0.0,0.0,-1.8742,-2.0784,-2.2827,-2.5041,-2.6719,-2.8481,-3.0532,-3.1083,-3.1952,-3.3302,-3.3357,-3.3841,-3.4758,-3.6081,-3.7254,-3.8265,-3.8717,-3.937,-4.0158,-4.0158,-4.0065,-3.9903,-3.864,-3.7691,-3.6899,-3.5596,-3.4883,-3.4497,-3.405,-3.3575,-3.3093,-3.2554,-3.1643,-3.0629,-2.9734,-2.867,-2.7598,-2.7003,-2.6181,-2.5298,-2.4813,-2.4196,-2.3509,-2.303,-2.28,-2.2665,-2.2414,-2.2714,-2.3204,-2.375,-2.4703,-2.5594,-2.613,-2.6822,-2.7335,-2.7335,-2.7134,-2.6658,-2.5734,-2.5028,-2.4066,-2.2623,-2.1417,-2.0419,-1.9535,-1.8765,-1.8175,-1.7859,-1.7428,-1.6977,-1.6666,-1.6679,-1.6587,-1.6423,-1.6613,-1.6726,-1.6636,-1.6511,-1.6402,-1.6147,-1.5989,-1.6194,-1.666,-1.666,-1.6954,2.4557,2.451,2.4367,2.3841,2.3308,2.2725,2.199,2.091,1.9608,1.7962,1.6073,1.38,1.0893,0.8112,0.5338,0.2464,-0.0166,-0.2573,-0.4672,-0.6511,-0.8189,-0.9428,-1.0982,-1.2357,0.0,0.0,0.0,-1.8673,-2.0562,-2.266,-2.4872,-2.6565,-2.8414,-3.0291,-3.0683,-3.1542,-3.3102,-3.2957,-3.3371,-3.4464,-3.5666,-3.6772,-3.778,-3.782,-3.8322,-3.9059,-3.9059,-3.8965,-3.8738,-3.777,-3.6894,-3.6087,-3.5068,-3.4448,-3.405,-3.3642,-3.3156,-3.2641,-3.2453,-3.1703,-3.0666,-2.9973,-2.8981,-2.7893,-2.7399,-2.6566,-2.5674,-2.5236,-2.4468,-2.3634,-2.3207,-2.2874,-2.2555,-2.2247,-2.2513,-2.2877,-2.3313,-2.4147,-2.5081,-2.5892,-2.6514,-2.7022,-2.7297,-2.6943,-2.6314,-2.5453,-2.4611,-2.3711,-2.2648,-2.1956,-2.1185,-2.0138,-1.9512,-1.8986,-1.8598,-1.8226,-1.7843,-1.7527,-1.7622,-1.7522,-1.7276,-1.7421,-1.7383,-1.7221,-1.7097,-1.6921,-1.6755,-1.6637,-1.6815,-1.7103,-1.7103,-1.7392,2.6132,2.5807,2.5216,2.5038,2.4452,2.3649,2.2847,2.1842,2.0613,1.8776,1.6825,1.4614,1.1512,0.8796,0.6,0.2935,0.0324,-0.2107,-0.4567,-0.6424,-0.8017,-0.9423,-1.0992,-1.2381,0.0,0.0,0.0,-1.8543,0.0,-2.2217,-2.4361,-2.6389,-2.8255,-2.9909,-3.0414,-3.1359,-3.2775,-3.2673,-3.3335,-3.4691,-3.5088,-3.5753,-3.6721,-3.678,-3.7233,-3.801,-3.801,-3.7851,-3.7545,-3.6695,-3.6089,-3.563,-3.466,-3.4,-3.3607,-3.3187,-3.2757,-3.2287,-3.2038,-3.1509,-3.0837,-3.0251,-2.9181,-2.8119,-2.7808,-2.6827,-2.5801,-2.5586,-2.4747,-2.3904,-2.3564,-2.2971,-2.2395,-2.2197,-2.2247,-2.2492,-2.3001,-2.344,-2.409,-2.5347,-2.5904,-2.6319,-2.6854,-2.6327,-2.5688,-2.5312,-2.4455,-2.3666,-2.3075,-2.2478,-2.1797,-2.1021,-2.0712,-2.0245,-1.946,-1.9301,-1.9152,-1.8772,-1.8523,-1.8362,-1.804,-1.7878,-1.7652,-1.7506,-1.7605,-1.754,-1.7387,-1.7463,-1.7541,-1.7564,-1.7556,-1.7652,2.6251,2.6564,2.656,2.5536,2.5246,2.4892,2.3752,2.2536,2.1223,1.9789,1.7557,1.5098,1.2401,0.9563,0.6705,0.3836,0.0946,-0.1726,-0.3876,-0.61,-0.7925,-0.9148,-1.1123,-1.2738,-1.3709,-1.5705,0.0,0.0,-2.0512,-2.2368,-2.4382,-2.6235,-2.8028,-2.9691,-3.013,-3.1026,-3.2396,-3.2859,-3.3471,-3.425,-3.4546,-3.4998,-3.5512,-3.5559,-3.5944,-3.6695,-3.6695,-3.6534,-3.6257,-3.5927,-3.5234,-3.4343,-3.3877,-3.3419,-3.2964,-3.2578,-3.212,-3.1652,-3.1073,-3.0718,-3.0372,-2.9588,-2.8848,-2.8201,-2.7696,-2.6844,-2.5987,-2.5648,-2.4866,-2.3968,-2.3332,-2.2871,-2.2476,-2.1969,-2.1824,-2.191,-2.2166,-2.2603,-2.3143,-2.3821,-2.4707,-2.5505,-2.5869,-2.5523,-2.5099,-2.4766,-2.4116,-2.3519,-2.3075,-2.2478,-2.1873,-2.1425,-2.0876,-2.0489,-2.0333,-1.9942,-1.9548,-1.9152,-1.9073,-1.8913,-1.8531,-1.8804,-1.8698,-1.8277,-1.8659,-1.8598,-1.8169,-1.8094,-1.8105,-1.837,-1.8176,-1.8221,2.7121,2.734,2.7209,2.6357,2.6031,2.5567,2.4076,2.2859,2.1455,1.954,1.7431,1.5106,1.2428,0.9706,0.6992,0.4385,0.146,-0.1208,-0.342,-0.5772,-0.7872,-0.9345,-1.1326,-1.2969,-1.4078,-1.6027,-1.7718,0.0,-2.0665,-2.2409,-2.42,-2.5986,-2.7706,-2.9394,-2.9725,-3.0443,-3.1693,-3.2527,-3.3171,-3.3745,-3.4,-3.4349,-3.4756,-3.4756,-3.4954,-3.5382,0.0,-3.5235,-3.4937,-3.4836,-3.4288,-3.3507,-3.3208,-3.2749,-3.2296,-3.1951,-3.1437,-3.0896,-3.0297,-2.9884,-2.9449,-2.9035,-2.843,-2.7894,-2.7443,-2.67,-2.5975,-2.5772,-2.497,-2.4013,-2.3537,-2.2923,-2.225,-2.1905,-2.1597,-2.1498,-2.1549,-2.1823,-2.228,-2.3001,-2.3953,-2.4755,-2.5087,-2.4886,-2.4539,-2.4189,-2.3677,-2.3224,-2.2777,-2.2478,-2.2025,-2.1578,-2.1195,-2.0876,-2.0644,-2.0333,-2.001,-1.9618,-1.9795,-1.9657,-1.9273,-1.9651,-1.9692,-1.9173,-1.9299,-1.9314,-1.9053,-1.8886,-1.8905,-1.9101,-1.8814,-1.8819,2.8136,2.7964,2.7449,2.7102,2.6608,2.5789,2.4075,2.2924,2.1437,1.8795,1.6894,1.4802,1.2025,0.9494,0.6999,0.4725,0.1943,-0.079,-0.3232,-0.5532,-0.7805,-0.9759,-1.1526,-1.3165,-1.4617,-1.6357,-1.799,-1.9165,-2.092,-2.2553,-2.4029,-2.5808,-2.7475,-2.9015,-2.9357,-2.998,-3.0881,-3.1807,-3.2563,-3.3134,-3.3435,-3.3781,-3.4134,-3.4201,-3.4201,-3.4201,0.0,0.0,-3.3797,-3.3591,-3.3245,-3.2826,-3.2532,-3.2074,-3.1522,-3.1204,-3.0673,-3.0068,-2.9588,-2.8958,-2.8457,-2.8457,-2.7973,-2.7284,-2.6973,-2.6302,-2.5758,-2.5758,-2.4847,-2.3921,-2.3851,-2.2867,-2.1809,-2.174,-2.1342,-2.1031,-2.0967,-2.1031,-2.1392,-2.2534,-2.3225,-2.3781,-2.4207,-2.4105,-2.3897,-2.3519,-2.315,-2.2777,-2.2402,-2.2327,-2.2176,-2.1578,-2.1512,-2.1292,-2.08,-2.0732,-2.0517,-2.0182,-2.0533,-2.0489,-2.0008,-2.0485,-2.0528,-2.0,-1.9939,-1.9875,-1.9866,-1.9777,-1.9679,-1.9587,-1.9379,-1.9387,2.7756,2.7763,2.7379,2.6807,2.655,2.5903,2.4131,2.2479,2.0851,1.903,1.6631,1.4184,1.2,0.9761,0.7395,0.4815,0.2084,-0.0538,-0.2992,-0.5641,-0.7974,-0.9759,-1.2029,-1.3894,-1.5179,-1.704,0.0,0.0,0.0,-2.2843,-2.4039,-2.5808,-2.7522,-2.9078,-2.992,-3.0325,-3.0433,-3.1248,-3.1879,-3.2413,-3.2765,-3.3124,-3.3403,-3.3591,-3.3658,-3.3642,-3.3455,0.0,-3.3156,-3.2765,-3.2422,-3.2043,-3.1652,-3.119,-3.0644,-3.0222,-2.9732,-2.9142,-2.8675,-2.8026,-2.7497,-2.763,-2.7217,-2.6552,-2.6164,-2.5523,-2.4933,-2.4933,-2.4313,-2.3587,-2.3146,-2.2347,-2.149,-2.0858,-2.0401,-2.0064,-1.9933,-1.9998,-2.0479,-2.1603,-2.1926,-2.2258,-2.3143,-2.3075,-2.2927,-2.2852,-2.2628,-2.2402,-2.2176,-2.2176,-2.2025,-2.1807,-2.1578,-2.1501,-2.155,-2.1422,-2.133,-2.1265,-2.1269,-2.1151,-2.0754,-2.1146,-2.1102,-2.067,-2.0988,-2.0917,-2.0549,-2.0257,-2.0027,-1.9845,-1.9671,-1.9587,2.7453,2.7434,2.7046,2.6693,2.6187,2.531,2.3675,2.189,2.0065,1.8187,1.6012,1.3856,1.1789,0.9566,0.7365,0.5058,0.2226,-0.0517,-0.283,-0.5522,-0.8005,-1.0119,-1.226,-1.4235,-1.5895,-1.7582,-1.9163,-2.0374,0.0,-2.3028,-2.4059,-2.6235,-2.7867,-2.8677,-2.9701,-3.0088,-2.9761,-3.0584,-3.1248,-3.1739,-3.2176,-3.2508,-3.2672,-3.2834,-3.2904,-3.2796,-3.2726,0.0,-3.2201,-3.1992,-3.1637,-3.1145,-3.0763,-3.0343,-2.978,-2.9296,-2.8789,-2.8325,-2.7736,-2.7136,-2.6595,-2.6308,-2.6045,-2.5791,-2.5382,-2.4731,-2.4154,-2.4154,-2.3582,-2.2947,-2.2622,-2.1857,-2.1039,-2.0505,-1.9776,-1.9121,-1.9054,-1.9385,-1.9897,-2.0741,-2.114,-2.1594,-2.2285,-2.2327,-2.2187,-2.2111,-2.1949,-2.1883,-2.1655,-2.1783,-2.2004,-2.217,-2.1927,-2.1876,-2.2161,-2.1969,-2.1814,-2.168,-2.1894,-2.1851,-2.1353,-2.1748,-2.1789,-2.1271,-2.1382,-2.1203,-2.0826,-2.0645,-2.0382,-2.011,-1.9845,-1.9853,2.709,2.6932,2.6469,2.6481,2.5629,2.4475,2.3098,2.1277,1.9309,1.7322,1.5416,1.3511,1.1471,0.9309,0.7203,0.5216,0.2354,-0.0425,-0.2754,-0.5548,-0.8247,-1.056,-1.2626,-1.4682,-1.6435,-1.8041,0.0,0.0,0.0,0.0,-2.4669,-2.6812,-2.8125,-2.8268,-2.9306,-2.9632,-2.9198,-2.9979,-3.0598,-3.1043,-3.1582,-3.1853,-3.1951,-3.212,-3.212,-3.2023,-3.1951,0.0,0.0,-3.119,-3.0763,-3.0222,-2.9842,-2.9407,-2.8917,-2.8417,-2.7894,-2.7364,-2.6799,-2.6239,-2.5627,-2.5016,-2.4874,-2.4957,-2.4515,-2.3936,-2.3298,-2.3213,-2.2692,-2.2101,-2.2014,-2.1305,-2.041,-1.9905,-1.9103,-1.838,-1.8449,-1.8864,-1.9394,-1.9928,-2.051,-2.0961,-2.1497,-2.1568,-2.1502,-2.1349,-2.1272,-2.1312,-2.1181,-2.149,-2.1929,-2.2521,-2.2369,-2.2251,-2.2541,-2.2426,-2.23,-2.2148,-2.2461,-2.2389,-2.1958,-2.2271,-2.2176,-2.1731,-2.1562,-2.1383,-2.1096,-2.0826,-2.0654,-2.0382,-2.011,-2.011,2.6581,2.6204,2.5619,2.5867,2.4905,2.3619,2.2668,2.072,1.866,1.7201,1.5066,1.2929,1.1174,0.9333,0.7281,0.4941,0.2386,-0.0207,-0.2762,-0.5802,-0.8589,-1.0797,-1.3334,-1.55,-1.698,-1.8597,-2.0085,0.0,0.0,0.0,-2.6268,-2.7244,-2.7957,-2.8268,-2.9009,-2.928,-2.8867,-2.9484,-2.9993,-3.0251,-3.0792,-3.1087,-3.1146,-3.1321,-3.1394,-3.1336,-3.1073,0.0,0.0,-3.0101,-2.9732,-2.9359,-2.8853,-2.8352,-2.7908,-2.7497,-2.6879,-2.6183,-2.5873,-2.5229,-2.4492,-2.4093,-2.4116,-2.4189,-2.3593,-2.3001,-2.2392,-2.2069,-2.1634,-2.1195,-2.0779,-2.0158,-1.9514,-1.8703,-1.8258,-1.8128,-1.8266,-1.8533,-1.8841,-1.956,-1.9817,-2.0124,-2.0643,-2.0722,-2.0722,-2.0722,-2.0644,-2.0791,-2.1123,-2.1211,-2.1605,-2.2641,-2.2621,-2.2561,-2.274,-2.278,-2.2778,-2.2998,-2.3057,-2.2814,-2.2385,-2.2413,-2.2176,-2.1731,-2.1651,-2.1562,-2.1392,-2.1096,-2.0916,-2.0654,-2.0382,-2.0292,2.5174,2.5218,2.5077,2.4573,2.3694,2.2561,2.1328,1.9548,1.78,1.6379,1.45,1.2638,1.0881,0.8956,0.6941,0.4584,0.202,-0.0603,-0.3197,-0.619,-0.896,-1.0991,-1.3819,-1.6049,0.0,0.0,-2.0988,0.0,0.0,0.0,-2.6715,-2.7592,-2.8059,-2.8109,-2.8736,-2.8881,-2.8495,-2.898,-2.9373,-2.9623,-3.0176,-3.0493,-3.0493,-3.0613,-3.0673,-3.0553,-3.0237,0.0,0.0,-2.917,-2.8803,-2.8352,-2.7894,-2.743,-2.6892,-2.6427,-2.5931,-2.5358,-2.4743,-2.4238,-2.3644,-2.3139,-2.2841,-2.2606,-2.2553,-2.2176,-2.1568,-2.1155,-2.0702,-2.0333,-1.9923,-1.9155,-1.8353,-1.7876,-1.7512,-1.7278,-1.7345,-1.7832,-1.8361,-1.8669,-1.913,-1.9578,-1.9825,-1.9854,-1.9869,-2.0123,-2.016,-2.0391,-2.0888,-2.1172,-2.1541,-2.213,-2.2353,-2.2685,-2.3206,-2.3063,-2.2959,-2.296,-2.2882,-2.2706,-2.2274,-2.2185,-2.2097,-2.1741,-2.1741,-2.1562,-2.1392,-2.1096,-2.0916,-2.0654,-2.0382,-2.0292,2.3834,2.4082,2.4048,2.326,2.2489,2.1532,2.0193,1.866,1.7075,1.5683,1.4035,1.2307,1.0578,0.86,0.6449,0.415,0.155,-0.1108,-0.3641,-0.6644,-0.9301,-1.1432,0.0,-1.6425,0.0,-2.0166,0.0,0.0,0.0,0.0,0.0,-2.7926,-2.83,-2.8213,-2.8609,-2.8708,-2.8319,-2.8576,-2.8881,-2.9135,-2.9623,-2.987,-2.9884,-2.9946,-2.9884,-2.9761,0.0,0.0,0.0,-2.8287,-2.7829,-2.7443,-2.6973,-2.6483,-2.5931,-2.5441,-2.4945,-2.4515,-2.3813,-2.3224,-2.2777,-2.2252,-2.1558,-2.1088,-2.1242,-2.1031,-2.0731,-2.0157,-1.9608,-1.9073,-1.8825,-1.8065,-1.7392,-1.7225,-1.6954,-1.6771,-1.6849,-1.7449,-1.7952,-1.7944,-1.8479,-1.8904,-1.8904,-1.9003,-1.9174,-1.9552,-1.9696,-1.9987,-2.0631,-2.0943,-2.1268,-2.1658,-2.2015,-2.2476,-2.3125,-2.2969,-2.2794,-2.2706,-2.2706,-2.2539,-2.2097,-2.2097,-2.2008,-2.1741,-2.1741,-2.1651,-2.1482,-2.1186,-2.0907,-2.0736,-2.0473,-2.0292,2.2812,2.2764,2.2374,2.206,2.1364,2.0526,1.9688,1.8145,1.6587,1.5441,1.3723,1.1904,1.0281,0.8279,0.6055,0.3675,0.1097,-0.1528,-0.4199,-0.6986,-0.9663,-1.2134,-1.4448,-1.6698,-1.869,-2.1643,0.0,0.0,0.0,0.0,0.0,-2.8315,-2.8717,-2.8585,-2.8753,-2.8776,-2.8425,-2.8557,-2.8587,-2.8587,-2.9071,-2.931,-2.931,-2.9149,-2.9099,0.0,0.0,0.0,0.0,-2.743,-2.704,-2.6658,-2.6107,-2.5535,-2.4933,-2.4564,-2.407,-2.353,-2.2927,-2.2327,-2.1731,-2.1359,-2.0654,-1.9863,-1.946,-1.9618,-1.9784,-1.8984,-1.8103,-1.74,-1.7392,-1.7057,-1.673,-1.673,-1.673,-1.6804,-1.7041,-1.7294,-1.7465,-1.7691,-1.7861,-1.8031,-1.8031,-1.834,-1.8671,-1.8854,-1.9158,-1.9617,-2.028,-2.0421,-2.0668,-2.1347,-2.1392,-2.1651,-2.2353,-2.2441,-2.2441,-2.2441,-2.2441,-2.2353,-2.2097,-2.2097,-2.2008,-2.1741,-2.1741,-2.1741,-2.1741,-2.1266,-2.0997,-2.0997,-2.0555,-2.0292,2.1266,2.1472,2.143,2.0729,2.0225,1.9438,1.7812,1.6763,1.5683,1.4361,1.2978,1.1449,0.9607,0.7588,0.5389,0.2893,0.0304,-0.2351,-0.5044,-0.7941,-1.0656,-1.2765,-1.6193,-1.9093,0.0,0.0,0.0,0.0,0.0,0.0,0.0,-2.8383,-2.8717,-2.8585,-2.868,-2.8621,-2.8438,-2.8159,-2.8118,-2.8276,-2.8495,-2.861,-2.861,-2.8546,0.0,0.0,0.0,0.0,0.0,-2.6577,-2.6164,-2.5886,-2.53,-2.4731,-2.4177,-2.3801,-2.3287,-2.2703,-2.2111,-2.1568,-2.1098,-2.0489,-1.9863,-1.9231,-1.8745,-1.8816,-1.8895,-1.8031,-1.7302,-1.6722,-1.6722,-1.6492,-1.6252,-1.6252,-1.6252,-1.6327,-1.6409,-1.6566,-1.6722,-1.6804,-1.6976,-1.722,-1.7631,-1.7854,-1.8178,-1.8866,-1.9033,-1.9323,-1.9971,-2.0022,-2.0245,-2.0826,-2.0934,-2.1284,-2.2087,-2.2185,-2.2185,-2.2185,-2.2185,-2.2097,-2.183,-2.183,-2.183,-2.1741,-2.1741,-2.1651,-2.1482,-2.1186,-2.0817,-2.0555,-2.0382,-2.0382,1.9503,1.9861,1.9851,1.9145,1.8755,1.8174,1.6551,1.5806,1.5015,1.3566,1.2297,1.0839,0.8926,0.6833,0.4494,0.1988,-0.0676,-0.3409,-0.5972,-0.8901,-1.1756,-1.4511,0.0,0.0,0.0,0.0,0.0,0.0,0.0,0.0,0.0,-2.8633,-2.8893,-2.887,-2.891,-2.8903,-2.8782,-2.8546,-2.841,-2.8346,-2.8452,-2.8384,-2.8105,-2.8039,0.0,0.0,0.0,0.0,0.0,-2.5804,-2.5394,-2.5123,-2.4515,-2.402,-2.3519,-2.3001,-2.2478,-2.1949,-2.1272,-2.0799,-2.0313,-1.9696,-1.8904,-1.8184,-1.7781,-1.7772,-1.7861,-1.7221,-1.6558,-1.6057,-1.6057,-1.5824,-1.5582,-1.5582,-1.5582,-1.5582,-1.5673,-1.5831,-1.5982,-1.6147,-1.6229,-1.6511,-1.7115,-1.7366,-1.7644,-1.8491,-1.8775,-1.9126,-1.953,-1.9754,-1.9936,-2.0209,-2.03,-2.0572,-2.1374,-2.1553,-2.1642,-2.1642,-2.1741,-2.175,-2.1562,-2.1651,-2.1651,-2.1562,-2.1571,-2.1472,-2.1293,-2.1006,-2.0645,-2.0292,-2.0292,-2.0473,0.0,1.7981,1.7784,1.74,1.7157,1.676,1.5804,1.5211,0.0,1.3036,1.1657,1.0187,0.8357,0.5986,0.3556,0.1084,-0.1752,-0.4543,-0.6913,-0.9862,0.0,0.0,-1.9339,0.0,0.0,0.0,0.0,0.0,0.0,0.0,0.0,-2.887,-2.9184,-2.9356,-2.9454,-2.95,-2.9448,-2.9477,-2.921,-2.867,-2.8768,-2.845,-2.7775,-2.7536,0.0,0.0,0.0,0.0,0.0,-2.517,-2.4743,-2.4418,-2.3824,-2.3298,-2.2852,-2.2252,-2.1807,-2.1349,-2.0498,-1.9942,-1.945,-1.8816,-1.7934,-1.6968,-1.673,-1.6566,-1.6566,-1.6394,-1.5891,-1.5311,-1.5311,-1.5068,-1.4734,-1.4734,-1.4734,-1.4741,-1.4999,-1.509,-1.5173,-1.5604,-1.5688,-1.5883,-1.6513,-1.6911,-1.7313,-1.7838,-1.8347,-1.8827,-1.9096,-1.9396,-1.9496,-1.9587,-1.9587,-1.9762,-2.0201,-2.0645,-2.0997,-2.0997,-2.1195,-2.1392,-2.1392,-2.1562,-2.1562,-2.1392,-2.1392,-2.1203,-2.0997,-2.0736,-2.0564,-2.0292,-2.0292,-2.0473,1.4672,0.0,1.6645,1.6445,1.6122,1.5612,0.0,1.4243,1.358,1.2433,1.1199,0.9703,0.7659,0.527,0.2785,0.0303,-0.2548,-0.5316,-0.7696,-1.1787,0.0,-1.7574,-1.9761,-2.1524,0.0,0.0,0.0,0.0,0.0,0.0,0.0,-2.8885,-2.9232,-2.905,-2.9644,-2.9745,-2.93,-2.8946,-2.8743,-2.8602,-2.8234,-2.795,-2.7808,-2.7178,0.0,0.0,0.0,0.0,-2.5394,-2.4683,-2.4261,-2.397,-2.3372,-2.2777,-2.2252,-2.1807,-2.1272,-2.0722,-2.0001,-1.946,-1.8993,-1.7861,-1.7139,-1.6648,-1.5899,-1.5726,-1.5733,-1.5643,-1.5228,-1.4901,-1.4901,-1.4817,-1.4734,-1.4734,-1.4734,-1.4741,-1.4741,-1.4824,-1.4895,-1.5212,-1.5348,-1.5612,-1.6625,-1.6869,-1.7213,-1.7919,-1.8126,-1.8272,-1.8365,-1.8558,-1.8843,-1.8928,-1.9196,-1.9387,-1.9762,-2.0201,-2.0645,-2.0997,-2.1096,-2.1096,-2.1096,-2.1186,-2.1177,-2.1096,-2.0925,-2.0835,-2.0736,-2.0564,-2.0382,-2.0292,-2.0292,-2.0473,1.3117,1.4209,1.529,1.5063,1.4873,1.4547,1.3947,1.3409,1.2783,1.1814,1.0527,0.8971,0.7015,0.4577,0.2052,-0.0425,-0.3367,-0.6619,0.0,0.0,-1.6378,-1.824,-2.0014,0.0,0.0,0.0,0.0,0.0,0.0,0.0,0.0,-2.8373,-2.8749,-2.8938,-2.9303,-2.9593,-2.9606,-2.9525,-2.9305,-2.8976,-2.8485,-2.8004,-2.7525,-2.6898,-2.6289,0.0,0.0,0.0,-2.4754,-2.4189,-2.3751,-2.3446,-2.2703,-2.2176,-2.1731,-2.1272,-2.0722,-2.0079,-1.945,-1.8656,-1.787,-1.7139,-1.6558,-1.5982,-1.556,-1.5228,-1.4977,-1.5068,-1.4817,-1.4566,-1.4566,-1.4489,-1.4412,-1.4412,-1.4412,-1.4412,-1.4412,-1.4521,-1.4665,-1.5009,-1.5154,-1.5478,-1.6399,-1.6675,-1.6883,-1.7483,-1.7815,-1.79,-1.79,-1.8187,-1.8373,-1.8458,-1.8743,-1.8928,-1.9212,-1.9563,-2.0011,-2.0464,-2.0736,-2.0826,-2.0826,-2.0907,-2.0997,-2.0826,-2.0645,-2.0564,-2.0564,-2.0382,-2.0292,-2.0292,-2.0292,-2.0568,1.2168,1.291,1.3661,1.3564,1.3549,1.348,1.3256,1.2745,1.2049,1.1166,0.9813,0.8199,0.6362,0.388,0.1364,-0.1046,-0.4375,0.0,-1.327,-1.5119,-1.6627,-1.8744,-2.0141,0.0,0.0,0.0,0.0,0.0,0.0,0.0,0.0,-2.7705,-2.8114,-2.8787,-2.8888,-2.9277,-2.9985,-3.0216,-3.0011,-2.9374,-2.8813,-2.8109,-2.7197,-2.6539,-2.5861,0.0,0.0,0.0,-2.4189,-2.3666,-2.3298,-2.2852,-2.2111,-2.1655,-2.1272,-2.0722,-2.0089,-1.945,-1.8736,-1.77,-1.6664,-1.6629,-1.6065,-1.5482,-1.5365,-1.4923,-1.4467,-1.4551,-1.4432,-1.4314,-1.4314,-1.4159,-1.3997,-1.3997,-1.4037,-1.4155,-1.4155,-1.4382,-1.469,-1.4919,-1.513,-1.5486,-1.6049,-1.6296,-1.6572,-1.6842,-1.7347,-1.7636,-1.7636,-1.7815,-1.7994,-1.7994,-1.8288,-1.8473,-1.8743,-1.9012,-1.9379,-1.9745,-2.0292,-2.0564,-2.0654,-2.0826,-2.0817,-2.0654,-2.0382,-2.0292,-2.0292,-2.0292,-2.0317,-2.0377,-2.0377,-2.0675,1.1078,1.1285,1.1619,1.2552,1.2614,1.2439,1.2337,1.2017,1.151,1.0423,0.9155,0.7622,0.5607,0.3191,0.0678,-0.176,-0.6222,-1.0493,0.0,0.0,-1.6953,-1.8824,0.0,0.0,0.0,0.0,0.0,0.0,0.0,0.0,0.0,-2.764,-2.8074,-2.8235,-2.8687,-2.9113,-2.9496,-2.9767,-2.9503,-2.8787,-2.8213,-2.7518,-2.6769,-2.5837,-2.5382,0.0,0.0,-2.4334,-2.4116,-2.3372,-2.2852,-2.2478,-2.1959,-2.1339,-2.0644,-2.0177,-1.9627,-1.8913,-1.7781,-1.7057,-1.6621,-1.6169,-1.5926,-1.5798,-1.5455,-1.4912,-1.4449,-1.4362,-1.4005,-1.3815,-1.3815,-1.3652,-1.3483,-1.3483,-1.384,-1.4189,-1.4189,-1.4595,-1.497,-1.5308,-1.5396,-1.5517,-1.6101,-1.625,-1.6351,-1.6581,-1.6878,-1.7073,-1.7073,-1.7448,-1.7721,-1.7721,-1.8001,-1.828,-1.8481,-1.8743,-1.9012,-1.9279,-1.9745,-2.011,-2.0382,-2.0382,-2.0382,-2.0382,-2.0292,-2.0292,-2.0292,-2.0292,-2.0463,-2.0788,-2.0788,-2.0985,1.0123,1.0108,1.027,1.0876,1.1278,1.1497,1.1522,1.115,1.0533,0.9651,0.8438,0.6915,0.4973,0.266,-0.0256,-0.4324,0.0,-1.1193,-1.3973,-1.5512,-1.7107,0.0,0.0,0.0,0.0,0.0,0.0,0.0,0.0,0.0,0.0,0.0,-2.7351,-2.8084,-2.8213,-2.8674,-2.9406,-2.9443,-2.9105,-2.8472,-2.7916,-2.7225,-2.6408,-2.5636,-2.5099,-2.4683,0.0,-2.397,-2.3519,-2.2927,-2.2478,-2.2025,-2.1415,-2.0799,-2.0089,-1.9222,-1.8594,-1.804,-1.7139,-1.6609,-1.6216,-1.5948,-1.577,-1.5497,-1.5184,-1.4863,-1.4484,-1.4231,-1.3909,-1.3561,-1.3561,-1.3483,-1.3436,-1.3582,-1.3803,-1.4031,-1.4363,-1.4714,-1.5048,-1.5371,-1.5524,-1.5671,-1.5906,-1.6123,-1.6224,-1.6407,-1.6595,-1.6878,-1.6979,-1.7167,-1.7347,-1.7434,-1.7714,-1.8001,-1.828,-1.8465,-1.8835,-1.9387,-1.9754,-1.9928,-2.011,-2.0201,-2.0292,-2.0292,-2.0292,-2.0394,-2.0609,-2.0609,-2.0797,-2.1165,-2.1165,-2.1371,0.928,0.9223,0.9189,0.9477,1.0018,1.0477,1.0588,1.0174,0.9517,0.8791,0.766,0.6169,0.4265,0.157,-0.1876,-0.6483,-0.9129,-1.1483,-1.4205,-1.5666,0.0,0.0,0.0,0.0,0.0,0.0,0.0,0.0,0.0,0.0,0.0,0.0,-2.6698,-2.7925,-2.7828,-2.8187,-2.925,-2.9052,-2.8643,-2.8059,-2.7555,-2.687,-2.5937,-2.529,-2.4754,-2.42,-2.397,-2.3593,-2.2927,-2.2478,-2.2025,-2.1578,-2.0876,-2.0177,-1.946,-1.8353,-1.7635,-1.7163,-1.6833,-1.6377,-1.5943,-1.5915,-1.5683,-1.5258,-1.5046,-1.4838,-1.4514,-1.4254,-1.3806,-1.3404,-1.342,-1.3408,-1.3379,-1.3586,-1.3736,-1.4066,-1.4553,-1.491,-1.5212,-1.5398,-1.5678,-1.5832,-1.5832,-1.5933,-1.6123,-1.6123,-1.6305,-1.6595,-1.6791,-1.6885,-1.7066,-1.7239,-1.7434,-1.7714,-1.8087,-1.8381,-1.8759,-1.9396,-1.9662,-1.9745,-1.9845,-2.011,-2.0201,-2.0201,-2.0292,-2.0489,-2.0883,-2.0883,-2.1114,-2.155,-2.155,-2.1756,0.8685,0.8488,0.823,0.8821,0.9082,0.9266,0.9475,0.9197,0.8632,0.7783,0.6766,0.5385,0.3518,-0.061,-0.4517,-0.697,-0.9332,-1.1696,-1.4234,0.0,0.0,0.0,0.0,0.0,0.0,0.0,0.0,0.0,0.0,0.0,0.0,0.0,0.0,-2.7484,-2.752,-2.7961,-2.8858,-2.8657,-2.8149,-2.7259,-2.7061,-2.6284,-2.5171,-2.4562,-2.4261,-2.4127,-2.3372,-2.3075,-2.2927,-2.2176,-2.1578,-2.1205,-2.0799,-1.9854,-1.8736,-1.8014,-1.7294,-1.6696,-1.6615,-1.632,-1.5929,-1.6055,-1.5705,-1.5312,-1.5396,-1.4922,-1.4353,-1.426,-1.3866,-1.3489,-1.3492,-1.3348,-1.3103,-1.3115,-1.3676,-1.4322,-1.4606,-1.5117,-1.5507,-1.5704,-1.5812,-1.5832,-1.5832,-1.5832,-1.5832,-1.5832,-1.6028,-1.6224,-1.6224,-1.6697,-1.6979,-1.6979,-1.7246,-1.752,-1.8087,-1.8381,-1.8566,-1.8827,-1.9096,-1.9379,-1.9587,-1.9845,-1.9936,-1.9936,-2.0201,-2.0489,-2.0883,-2.0883,-2.1251,-2.1953,-2.1953,-2.215,0.7776,0.7658,0.7586,0.799,0.7842,0.7801,0.8599,0.8489,0.7926,0.7007,0.6121,0.4494,0.1432,-0.2004,-0.5126,-0.727,-0.9499,-1.1752,0.0,0.0,0.0,0.0,0.0,0.0,0.0,0.0,0.0,0.0,0.0,0.0,0.0,0.0,0.0,-2.7484,-2.736,-2.7721,-2.8566,-2.8095,-2.74,-2.6598,-2.6598,-2.5828,-2.455,-2.4261,-2.3897,-2.3446,-2.315,-2.2703,-2.2176,-2.1655,-2.1195,-2.0731,-1.9775,-1.8984,-1.8184,-1.7375,-1.6948,-1.6737,-1.629,-1.6082,-1.5998,-1.5867,-1.5697,-1.5402,-1.533,-1.4905,-1.4533,-1.4343,-1.4054,-1.3694,-1.3519,-1.3452,-1.3405,-1.3568,-1.3859,-1.4235,-1.4785,-1.5095,-1.5363,-1.5737,-1.5832,-1.5832,-1.5832,-1.5832,-1.5832,-1.5832,-1.5927,-1.6028,-1.6224,-1.6501,-1.6784,-1.6979,-1.7347,-1.7621,-1.7815,-1.8288,-1.8574,-1.8566,-1.9012,-1.9288,-1.9379,-1.9571,-1.9671,-1.9671,-1.9936,-2.0323,-2.1035,-2.1113,-2.1602,-2.2338,-2.2338,-2.2415,0.7021,0.6929,0.6873,0.7241,0.6894,0.6635,0.7389,0.7422,0.6991,0.6196,0.4972,0.3004,-0.0269,-0.3015,-0.5428,0.0,-0.9704,0.0,0.0,0.0,0.0,0.0,0.0,0.0,0.0,0.0,0.0,0.0,0.0,0.0,0.0,0.0,0.0,0.0,-2.7148,-2.7493,-2.8419,-2.7656,-2.6966,-2.6218,-2.5902,-2.5228,-2.42,-2.397,-2.3519,-2.3001,-2.2703,-2.2252,-2.1655,-2.1195,-2.0654,-2.002,-1.8904,-1.8184,-1.7644,-1.7105,-1.6721,-1.6528,-1.6307,-1.6045,-1.5957,-1.5783,-1.5577,-1.5356,-1.5077,-1.479,-1.4496,-1.4394,-1.4165,-1.3984,-1.3809,-1.3701,-1.3682,-1.3863,-1.3966,-1.4175,-1.4943,-1.5083,-1.5274,-1.5737,-1.5832,-1.5832,-1.5832,-1.5832,-1.5832,-1.5832,-1.5832,-1.5832,-1.6028,-1.64,-1.6777,-1.7066,-1.734,-1.7628,-1.7721,-1.8009,-1.8295,-1.8481,-1.8835,-1.9012,-1.9096,-1.9296,-1.9487,-1.9487,-1.9662,-2.0213,-2.1142,-2.123,-2.171,-2.2644,-2.2644,-2.2644,0.6563,0.63,0.6046,0.6649,0.6315,0.5888,0.5793,0.5871,0.5835,0.5352,0.3145,0.0675,-0.1247,-0.3553,0.0,-0.7888,0.0,0.0,0.0,0.0,0.0,0.0,0.0,0.0,0.0,0.0,0.0,0.0,0.0,0.0,0.0,0.0,0.0,0.0,-2.6935,-2.7275,-2.8155,-2.7486,-2.6722,-2.5965,-2.51,-2.4522,-2.42,-2.3372,-2.3001,-2.2927,-2.2176,-2.1655,-2.1425,-2.0799,-1.9942,-1.8922,-1.8282,-1.7627,-1.7106,-1.7127,-1.6676,-1.6009,-1.6533,-1.631,-1.5729,-1.5738,-1.5458,-1.5083,-1.479,-1.4496,-1.4298,-1.4298,-1.4298,-1.4298,-1.4298,-1.4105,-1.3912,-1.3912,-1.4111,-1.449,-1.4987,-1.5083,-1.5274,-1.5737,-1.5832,-1.5832,-1.5832,-1.5832,-1.5832,-1.5832,-1.5832,-1.5832,-1.5832,-1.6298,-1.677,-1.7232,-1.7326,-1.7426,-1.7628,-1.7721,-1.7916,-1.8481,-1.8481,-1.8566,-1.8827,-1.9096,-1.9188,-1.9188,-1.9487,-2.0129,-2.1142,-2.1151,-2.162,-2.2644,-2.2644,-2.2644,0.5949,0.5671,0.5381,0.5903,0.5536,0.5044,0.5046,0.5289,0.5143,0.387,0.2049,0.0201,-0.149,-0.3725,0.0,-0.7789,0.0,0.0,0.0,0.0,0.0,0.0,0.0,0.0,0.0,0.0,0.0,0.0,0.0,0.0,0.0,0.0,0.0,0.0,-2.6772,-2.6942,-2.7451,-2.671,-2.5889,-2.5077,-2.4276,-2.3886,-2.3751,-2.3224,-2.2777,-2.2327,-2.1959,-2.1425,-2.0799,-2.001,-1.9143,-1.8282,-1.7797,-1.7384,-1.7119,-1.6468,-1.6359,-1.6504,-1.6155,-1.5896,-1.5712,-1.5609,-1.5261,-1.479,-1.4688,-1.4496,-1.4298,-1.4298,-1.4298,-1.4298,-1.4298,-1.4238,-1.4177,-1.4177,-1.4435,-1.4694,-1.4987,-1.5267,-1.5452,-1.5737,-1.5832,-1.5832,-1.5832,-1.5832,-1.5832,-1.5832,-1.5832,-1.5927,-1.6298,-1.6494,-1.677,-1.7232,-1.7326,-1.7326,-1.7426,-1.7628,-1.7815,-1.8187,-1.8388,-1.8566,-1.8827,-1.892,-1.892,-1.892,-1.9447,-2.0087,-2.0853,-2.1209,-2.1883,-2.2644,-2.2644,-2.2644,0.548,0.5179,0.4868,0.5288,0.4902,0.4325,0.4035,0.424,0.4055,0.265,0.1207,-0.0336,-0.1972,-0.4084,0.0,0.0,0.0,0.0,0.0,0.0,0.0,0.0,0.0,0.0,0.0,0.0,0.0,0.0,0.0,0.0,0.0,0.0,0.0,0.0,-2.6387,-2.6474,-2.6752,-2.6019,-2.5309,-2.471,-2.3754,-2.3372,-2.3372,-2.2927,-2.2478,-2.1959,-2.1339,-2.0712,-2.001,-1.9143,-1.844,-1.7944,-1.7524,-1.7151,-1.6782,-1.6411,-1.626,-1.6324,-1.5896,-1.5685,-1.5635,-1.5255,-1.4975,-1.4688,-1.4592,-1.4394,-1.4298,-1.4298,-1.4298,-1.4298,-1.4298,-1.4298,-1.4298,-1.4394,-1.4592,-1.479,-1.5172,-1.5356,-1.554,-1.573,-1.5832,-1.5865,-1.5985,-1.5905,-1.5872,-1.5985,-1.5905,-1.6021,-1.6494,-1.6588,-1.677,-1.7232,-1.7326,-1.7326,-1.7326,-1.7426,-1.768,-1.8089,-1.8394,-1.873,-1.9052,-1.902,-1.9042,-1.9042,-1.9573,-2.0111,-2.0867,-2.1287,-2.1886,-2.2644,-2.2644,-2.2644,0.497,0.4683,0.4382,0.4673,0.4236,0.3577,0.2934,0.283,0.2566,0.1661,0.047,-0.0947,-0.2631,-0.4464,-0.6388,0.0,0.0,0.0,0.0,0.0,0.0,0.0,0.0,0.0,0.0,0.0,0.0,0.0,0.0,0.0,0.0,0.0,0.0,-2.6081,-2.5898,-2.5914,-2.6224,-2.5402,-2.4849,0.0,-2.3508,-2.3001,-2.2927,-2.2553,-2.2101,-2.1645,-2.0411,-1.9618,-1.9143,-1.8388,-1.7969,-1.7777,-1.7387,-1.682,-1.6344,-1.6642,-1.6324,-1.5756,-1.5738,-1.5635,-1.5356,-1.4879,-1.4688,-1.4592,-1.4394,-1.4298,-1.4298,-1.4298,-1.4298,-1.4298,-1.4298,-1.4298,-1.4394,-1.4688,-1.479,-1.4879,-1.535,-1.554,-1.5547,-1.577,-1.5872,-1.5965,-1.6259,-1.6086,-1.6005,-1.6273,-1.6086,-1.6089,-1.6536,-1.6623,-1.6805,-1.7239,-1.7355,-1.7377,-1.7377,-1.7399,-1.7647,-1.8245,-1.8548,-1.887,-1.947,-1.9486,-1.9415,-1.9415,-1.9741,-2.0361,-2.1172,-2.1205,-2.1703,-2.2644,-2.2644,-2.2644,0.4192,0.3889,0.3589,0.3764,0.3198,0.2406,0.1876,0.1353,0.0939,0.0797,-0.0336,-0.1746,-0.3107,-0.4828,0.0,0.0,0.0,0.0,0.0,0.0,0.0,0.0,0.0,0.0,0.0,0.0,0.0,0.0,0.0,0.0,0.0,0.0,0.0,-2.5886,-2.5678,-2.5515,-2.5494,-2.5004,-2.4442,0.0,-2.3279,-2.2852,-2.2553,-2.2101,-2.1568,-2.0799,-1.9854,-1.9222,-1.8843,-1.8611,-1.8046,-1.7379,-1.7392,-1.7082,-1.6657,-1.6366,-1.6088,-1.5745,-1.5615,-1.5255,-1.4879,-1.479,-1.4592,-1.4394,-1.4298,-1.4298,-1.4298,-1.4298,-1.4298,-1.4298,-1.4298,-1.449,-1.4688,-1.4987,-1.4987,-1.5077,-1.5445,-1.5635,-1.5803,-1.6132,-1.6179,-1.6273,-1.656,-1.656,-1.654,-1.6607,-1.6765,-1.6833,-1.6877,-1.7145,-1.7237,-1.7261,-1.756,-1.7706,-1.7706,-1.7947,-1.8319,-1.8889,-1.8995,-1.9213,-1.9771,-1.9797,-1.9757,-1.9757,-2.0098,-2.0611,-2.1172,-2.1461,-2.1954,-2.2644,-2.2644,-2.2644,0.3564,0.3317,0.2983,0.2802,0.2256,0.1614,0.107,0.0366,-0.0312,-0.0522,-0.133,-0.2347,-0.3618,-0.5264,0.0,0.0,0.0,0.0,0.0,0.0,0.0,0.0,0.0,0.0,0.0,0.0,0.0,0.0,0.0,0.0,0.0,-2.5052,-2.5111,-2.5323,-2.5104,-2.4958,-2.4738,-2.4357,-2.385,-2.3298,-2.2927,-2.2327,-2.1634,-2.1492,-2.0954,-2.0255,-1.9381,-1.8745,-1.8379,-1.8037,-1.7705,-1.7282,-1.7186,-1.6973,-1.6615,-1.6258,-1.598,-1.5635,-1.5356,-1.5077,-1.4694,-1.4592,-1.4394,-1.4298,-1.4298,-1.4298,-1.4298,-1.4298,-1.4298,-1.4298,-1.4298,-1.4496,-1.479,-1.5083,-1.5172,-1.5363,-1.5635,-1.5843,-1.6086,-1.6246,-1.6386,-1.6573,-1.6867,-1.6914,-1.6975,-1.6934,-1.7014,-1.7158,-1.7387,-1.7569,-1.7699,-1.7816,-1.7947,-1.805,-1.805,-1.8203,-1.8563,-1.9124,-1.9239,-1.9614,-2.0169,-2.0269,-2.0289,-2.0122,-2.0464,-2.0841,-2.1244,-2.1533,-2.1928,-2.2333,-2.2544,-2.2644,0.2974,0.2751,0.2337,0.1748,0.1346,0.0868,0.0348,-0.0482,-0.1304,-0.1921,-0.2371,-0.3017,-0.422,0.0,0.0,0.0,0.0,0.0,0.0,0.0,0.0,0.0,0.0,0.0,0.0,0.0,0.0,0.0,0.0,0.0,-2.4718,-2.479,-2.479,-2.4718,-2.4562,-2.4345,-2.4116,-2.3751,-2.3372,-2.3001,-2.2553,-2.1787,-2.0867,-2.0789,-2.0401,-1.9784,-1.8984,-1.8345,-1.7823,-1.7435,-1.7267,-1.7198,-1.6958,-1.6722,-1.6494,-1.6312,-1.5838,-1.5356,-1.5172,-1.4885,-1.4592,-1.4394,-1.4298,-1.4298,-1.4298,-1.4298,-1.4298,-1.4298,-1.4298,-1.4298,-1.4394,-1.4592,-1.4885,-1.5077,-1.5356,-1.5655,-1.5797,-1.6099,-1.6299,-1.6406,-1.666,-1.6934,-1.7181,-1.7331,-1.7353,-1.7211,-1.7379,-1.7559,-1.791,-1.8003,-1.8074,-1.8313,-1.835,-1.8386,-1.8386,-1.8438,-1.8684,-1.9348,-1.958,-1.9913,-2.0506,-2.0822,-2.0782,-2.0488,-2.0774,-2.1019,-2.1326,-2.1522,-2.1827,-2.2131,-2.2434,-2.2644,0.2205,0.1893,0.135,0.069,0.0259,-0.0163,-0.0811,-0.1445,-0.2113,-0.2815,-0.3292,-0.3889,0.0,0.0,0.0,0.0,0.0,0.0,0.0,0.0,0.0,0.0,0.0,0.0,0.0,0.0,0.0,0.0,0.0,0.0,-2.4478,-2.4718,-2.4718,-2.4574,-2.4345,-2.4116,-2.397,-2.3519,-2.3224,-2.3001,-2.2252,-2.1568,-2.0867,-2.0323,-1.9775,-1.9381,-1.8745,-1.8031,-1.7523,-1.7624,-1.7121,-1.6507,-1.7026,-1.6828,-1.6224,-1.6224,-1.575,-1.5178,-1.5083,-1.479,-1.4394,-1.4298,-1.4298,-1.4298,-1.4298,-1.4298,-1.4298,-1.4298,-1.4298,-1.4394,-1.4592,-1.4885,-1.5077,-1.5356,-1.5642,-1.5803,-1.6159,-1.6246,-1.642,-1.6934,-1.7268,-1.7475,-1.7515,-1.7738,-1.7837,-1.7907,-1.8324,-1.8544,-1.8368,-1.8528,-1.8613,-1.8335,-1.8555,-1.8723,-1.8723,-1.8986,-1.9361,-1.9914,-2.0017,-2.0254,-2.0814,-2.0925,-2.0901,-2.0853,-2.0901,-2.1019,-2.1326,-2.1522,-2.1827,-2.2131,-2.2434,-2.2644,0.1451,0.1134,0.0661,0.0048,-0.0452,-0.0995,-0.1594,-0.22,-0.2843,-0.3549,-0.4229,-0.4922,0.0,0.0,0.0,0.0,0.0,0.0,0.0,0.0,0.0,0.0,0.0,0.0,0.0,0.0,0.0,0.0,0.0,-2.3436,-2.3948,-2.4043,-2.4127,-2.397,-2.3897,-2.374,-2.3372,-2.3224,-2.2852,-2.2327,-2.1645,-2.1031,-2.0566,-1.9854,-1.9301,-1.8904,-1.8264,-1.7627,-1.704,-1.7235,-1.6903,-1.633,-1.6707,-1.6588,-1.613,-1.5927,-1.5553,-1.5083,-1.4885,-1.4592,-1.4298,-1.4298,-1.4298,-1.4298,-1.4298,-1.4298,-1.4298,-1.449,-1.449,-1.4592,-1.4885,-1.5077,-1.5356,-1.5445,-1.5761,-1.6159,-1.6453,-1.6513,-1.6687,-1.7281,-1.7495,-1.7687,-1.7799,-1.7911,-1.8122,-1.8443,-1.8764,-1.8923,-1.8882,-1.8964,-1.9008,-1.8862,-1.8979,-1.906,-1.906,-1.9398,-1.968,-2.0078,-2.0189,-2.0506,-2.0925,-2.0925,-2.0925,-2.0925,-2.0925,-2.0917,-2.1121,-2.1522,-2.1725,-2.1928,-2.2342,-2.2644,0.0715,0.0399,0.0,-0.0505,-0.1119,-0.168,-0.2267,-0.2856,-0.3485,0.0,-0.5051,0.0,0.0,0.0,0.0,0.0,0.0,0.0,0.0,0.0,0.0,0.0,0.0,0.0,0.0,0.0,0.0,0.0,0.0,-2.2816,-2.338,-2.3537,-2.3593,-2.3593,-2.3519,-2.3298,-2.3001,-2.2777,-2.2402,-2.1807,-2.1098,-2.0634,-2.0186,-1.9548,-1.8904,-1.8416,-1.7861,-1.7212,-1.6621,-1.6804,-1.6544,-1.6152,-1.6436,-1.6305,-1.6028,-1.5642,-1.5356,-1.5083,-1.479,-1.449,-1.4298,-1.4298,-1.4298,-1.4298,-1.4394,-1.4394,-1.449,-1.4688,-1.479,-1.4885,-1.5172,-1.5356,-1.556,-1.5632,-1.6016,-1.6373,-1.674,-1.6881,-1.7061,-1.7607,-1.7687,-1.7799,-1.801,-1.8122,-1.8338,-1.8869,-1.8974,-1.9071,-1.9272,-1.9279,-1.9279,-1.9279,-1.9279,-1.9279,-1.9279,-1.9583,-1.9776,-2.0078,-2.0308,-2.0617,-2.0925,-2.0925,-2.0925,-2.0925,-2.0925,-2.0925,-2.0925,-2.1318,-2.1623,-2.1725,-2.2232,-2.2544,0.0036,-0.0304,-0.0685,-0.1233,-0.1811,-0.2389,-0.3002,-0.3583,-0.4106,-0.4749,-0.565,0.0,0.0,0.0,0.0,0.0,0.0,0.0,0.0,0.0,0.0,0.0,0.0,0.0,0.0,0.0,0.0,0.0,-2.1421,-2.2033,-2.2865,-2.3335,-2.3593,-2.3593,-2.3224,-2.3001,-2.3001,-2.2252,-2.1807,-2.1807,-2.1031,-2.0411,-1.9863,-1.9311,-1.8585,-1.7781,-1.7546,-1.7057,-1.6448,-1.6349,-1.6094,-1.5721,-1.6071,-1.6028,-1.5825,-1.554,-1.5356,-1.5083,-1.479,-1.449,-1.4298,-1.4298,-1.4298,-1.4394,-1.4592,-1.4694,-1.479,-1.4981,-1.5083,-1.5178,-1.5452,-1.5445,-1.5612,-1.6186,-1.6259,-1.6433,-1.7001,-1.7341,-1.7654,-1.7905,-1.8016,-1.801,-1.8318,-1.8646,-1.8869,-1.8869,-1.9071,-1.9279,-1.9279,-1.9279,-1.9279,-1.9279,-1.9279,-1.9279,-1.9279,-1.9583,-1.9776,-2.0078,-2.0308,-2.0617,-2.0925,-2.0925,-2.0925,-2.0925,-2.0925,-2.0925,-2.0925,-2.1224,-2.142,-2.1725,-2.203,-2.2333,-0.0431,-0.0831,-0.1274,-0.1695,-0.2288,-0.2888,-0.3506,-0.4046,-0.4567,-0.5335,-0.6006,0.0,0.0,0.0,0.0,0.0,0.0,0.0,0.0,0.0,0.0,0.0,0.0,0.0,0.0,0.0,0.0,0.0,0.0,0.0,-2.2082,-2.2288,-2.2527,-2.2841,-2.2703,-2.2478,-2.2252,-2.1655,-2.1272,-2.1031,-2.0576,-2.0098,-1.946,-1.8913,-1.8273,-1.77,-1.7049,-1.6692,-1.6523,-1.6351,-1.612,-1.5903,-1.6154,-1.6028,-1.5737,-1.554,-1.5452,-1.5356,-1.5077,-1.4885,-1.479,-1.479,-1.479,-1.479,-1.4885,-1.4987,-1.4981,-1.5261,-1.5356,-1.5452,-1.5635,-1.5876,-1.6135,-1.672,-1.7042,-1.7259,-1.766,-1.783,-1.7911,-1.8016,-1.8115,-1.8325,-1.8653,-1.8869,-1.8974,-1.9175,-1.9279,-1.9279,-1.9279,-1.9279,-1.9279,-1.9279,-1.9279,-1.9383,-1.9583,-1.9776,-2.0086,-2.03,-2.0617,-2.0822,-2.0925,-2.0925,-2.0925,-2.0925,-2.0925,-2.0925,-2.0925,-2.1121,-2.1326,-2.142,-2.192,-2.2123,-0.0879,-0.1252,-0.174,-0.2109,-0.2672,-0.3289,-0.3907,-0.4451,-0.5039,-0.5771,0.0,0.0,0.0,0.0,0.0,0.0,0.0,0.0,0.0,0.0,0.0,0.0,0.0,0.0,0.0,0.0,0.0,0.0,0.0,0.0,-2.1424,-2.1615,-2.1839,-2.2166,-2.2176,-2.2025,-2.1578,-2.1195,-2.0886,-2.0566,-2.0264,-1.9794,-1.9152,-1.8674,-1.8112,-1.7546,-1.6849,-1.6538,-1.6536,-1.6235,-1.6102,-1.6063,-1.6094,-1.5927,-1.5737,-1.554,-1.554,-1.5445,-1.5172,-1.5083,-1.5083,-1.5083,-1.5083,-1.5083,-1.5178,-1.5267,-1.5267,-1.5547,-1.5635,-1.5662,-1.5856,-1.6273,-1.6767,-1.7265,-1.7544,-1.7777,-1.808,-1.8115,-1.8122,-1.8233,-1.8436,-1.8646,-1.8974,-1.9078,-1.9071,-1.9272,-1.9279,-1.9279,-1.9279,-1.9279,-1.9279,-1.9279,-1.9376,-1.948,-1.968,-1.999,-2.03,-2.0522,-2.0719,-2.0925,-2.0925,-2.0925,-2.0925,-2.0925,-2.0925,-2.0925,-2.0925,-2.1121,-2.1224,-2.1318,-2.1725,-2.203,0.0,0.0,0.0,-0.2512,-0.3016,-0.3609,-0.4268,0.0,-0.547,-0.5995,0.0,0.0,0.0,0.0,0.0,0.0,0.0,0.0,0.0,0.0,0.0,0.0,0.0,0.0,0.0,0.0,0.0,0.0,-1.976,-2.036,-2.0907,-2.1445,-2.1692,-2.1766,-2.1797,-2.1578,-2.1205,-2.0809,-2.0566,-2.0566,-1.9872,-1.9399,-1.9002,-1.8603,-1.804,-1.7416,-1.702,-1.6753,-1.6551,-1.5898,-1.5854,-1.607,-1.5906,-1.5832,-1.5737,-1.554,-1.554,-1.5452,-1.5178,-1.5083,-1.5083,-1.5083,-1.5083,-1.5178,-1.5452,-1.554,-1.5547,-1.5743,-1.5845,-1.5912,-1.6219,-1.672,-1.7257,-1.7586,-1.7804,-1.8122,-1.8325,-1.8422,-1.8534,-1.8869,-1.8876,-1.8974,-1.9279,-1.9279,-1.9279,-1.9279,-1.9279,-1.9279,-1.9279,-1.9279,-1.9279,-1.9272,-1.9583,-1.968,-1.968,-2.0205,-2.0522,-2.0514,-2.0719,-2.0925,-2.0925,-2.0925,-2.0925,-2.0925,-2.0925,-2.0925,-2.0925,-2.0925,-2.1019,-2.1318,-2.1522,-2.203,-0.1713,0.0,0.0,0.0,0.0,0.0,0.0,0.0,-0.5644,-0.6248,0.0,0.0,0.0,0.0,0.0,0.0,0.0,0.0,0.0,0.0,0.0,0.0,0.0,0.0,0.0,0.0,0.0,0.0,-1.9323,-1.9594,-2.0063,-2.069,-2.1028,-2.1087,-2.111,-2.1051,-2.0809,-2.0498,-2.0186,-1.9872,-1.9548,-1.9152,-1.8772,-1.8193,-1.7708,-1.7335,-1.686,-1.6728,-1.6805,-1.6228,-1.6176,-1.6462,-1.5981,-1.5832,-1.5825,-1.573,-1.5737,-1.573,-1.5642,-1.5642,-1.5642,-1.5642,-1.5642,-1.5642,-1.5737,-1.5737,-1.5777,-1.6092,-1.6152,-1.637,-1.7089,-1.734,-1.7627,-1.804,-1.838,-1.866,-1.8764,-1.8959,-1.9063,-1.8869,-1.9078,-1.9175,-1.9279,-1.9279,-1.9279,-1.9279,-1.9279,-1.9279,-1.9279,-1.9279,-1.9376,-1.9583,-1.968,-1.9887,-2.0205,-2.0411,-2.0617,-2.0822,-2.0822,-2.0925,-2.0925,-2.0925,-2.0925,-2.0925,-2.0925,-2.0925,-2.0925,-2.0925,-2.0917,-2.1019,-2.1522,-2.203,-0.2111,-0.2474,-0.2973,-0.3235,0.0,0.0,-0.4723,-0.5231,-0.5784,0.0,0.0,0.0,0.0,0.0,0.0,0.0,0.0,0.0,0.0,0.0,0.0,0.0,0.0,0.0,0.0,-1.8324,-1.8537,-1.9054,-1.9075,-1.9272,-1.9668,-2.0237,-2.0561,-2.0585,-2.048,-2.0477,-2.0489,-2.0186,-1.9882,-1.9566,-1.9311,-1.9002,-1.87,-1.8031,-1.7711,-1.7565,-1.6994,-1.6988,-1.7234,-1.6649,-1.6521,-1.6588,-1.6015,-1.5832,-1.5832,-1.5832,-1.5832,-1.5832,-1.5832,-1.5832,-1.5832,-1.5832,-1.5832,-1.5832,-1.5832,-1.5912,-1.6052,-1.6226,-1.6552,-1.7027,-1.7578,-1.7867,-1.8005,-1.8499,-1.8757,-1.8974,-1.9078,-1.9175,-1.9279,-1.9078,-1.9175,-1.9279,-1.9279,-1.9279,-1.9279,-1.9279,-1.9279,-1.9279,-1.9279,-1.9376,-1.948,-1.968,-1.9887,-2.0205,-2.0522,-2.0617,-2.0719,-2.0917,-2.0925,-2.0925,-2.0925,-2.0925,-2.0925,-2.0925,-2.0925,-2.0925,-2.0925,-2.0925,-2.1019,-2.1224,-2.1522,-2.203,-0.2521,-0.2961,-0.344,-0.3724,0.0,0.0,-0.4981,-0.5485,-0.5952,0.0,0.0,0.0,0.0,0.0,0.0,0.0,0.0,0.0,0.0,0.0,0.0,0.0,0.0,0.0,-1.7809,-1.7988,-1.8312,-1.8961,-1.9044,-1.9184,-1.94,-1.9849,-2.005,-2.0054,-1.9938,-1.9955,-2.0187,-1.9775,-1.9557,-1.9557,-1.9161,-1.8843,-1.87,-1.7951,-1.7746,-1.7877,-1.7289,-1.7189,-1.7606,-1.7216,-1.6878,-1.6588,-1.6015,-1.5832,-1.5832,-1.5832,-1.5832,-1.5832,-1.5832,-1.5832,-1.5832,-1.5832,-1.5832,-1.5832,-1.5832,-1.6039,-1.6384,-1.6451,-1.7075,-1.7723,-1.8023,-1.8323,-1.8534,-1.8869,-1.8974,-1.9078,-1.9272,-1.9383,-1.9376,-1.9376,-1.9376,-1.9376,-1.9376,-1.9376,-1.9376,-1.9376,-1.9376,-1.9376,-1.9376,-1.9576,-1.9783,-1.9783,-2.0205,-2.0514,-2.0522,-2.0719,-2.0925,-2.0925,-2.0925,-2.0925,-2.0925,-2.0925,-2.0925,-2.0925,-2.0925,-2.0917,-2.0917,-2.0917,-2.1224,-2.1725,-2.1725,-2.203,0.0,0.0,0.0,0.0,0.0,0.0,-0.5315,-0.5788,-0.627,0.0,0.0,0.0,0.0,0.0,0.0,0.0,0.0,0.0,0.0,0.0,0.0,0.0,0.0,0.0,-1.749,-1.7604,-1.784,-1.8485,-1.8858,-1.9039,-1.8941,-1.9241,-1.9304,-1.9162,-1.9487,-1.9592,-1.9526,-1.9556,-1.9557,-1.9381,-1.8922,-1.8772,-1.87,-1.7797,-1.759,-1.7877,-1.7289,-1.7189,-1.7606,-1.7216,-1.6878,-1.6581,-1.6218,-1.6028,-1.5832,-1.5832,-1.5832,-1.5832,-1.5832,-1.5832,-1.5832,-1.5832,-1.5832,-1.5832,-1.6028,-1.6341,-1.6778,-1.7452,-1.7949,-1.8338,-1.8672,-1.8715,-1.8862,-1.9175,-1.9376,-1.9576,-1.9576,-1.9776,-1.9983,-1.9983,-1.9783,-1.968,-1.9879,-1.9983,-1.9983,-1.9983,-1.9983,-1.9983,-1.9983,-1.9983,-2.0086,-2.0308,-2.0411,-2.0624,-2.0822,-2.0822,-2.0925,-2.0925,-2.0925,-2.0925,-2.0925,-2.0925,-2.0925,-2.0925,-2.0925,-2.1027,-2.1224,-2.1224,-2.1428,-2.1725,-2.1928,-2.2232,0.0,0.0,0.0,-0.4681,0.0,0.0,0.0,-0.6056,-0.6434,-0.683,-0.7248,-0.7736,-0.8401,0.0,0.0,0.0,0.0,0.0,0.0,0.0,0.0,0.0,0.0,0.0,-1.7063,-1.7195,-1.7595,-1.833,-1.8599,-1.8695,-1.8664,-1.8761,-1.8844,-1.8764,-1.8976,-1.9202,-1.9336,-1.9431,-1.939,-1.9301,-1.8922,-1.87,-1.87,-1.7806,-1.7689,-1.8124,-1.7447,-1.7458,-1.7842,-1.7468,-1.716,-1.6784,-1.6312,-1.6123,-1.6021,-1.5832,-1.5832,-1.5832,-1.5832,-1.5927,-1.6028,-1.6028,-1.6116,-1.6238,-1.6587,-1.6953,-1.7517,-1.8285,-1.8629,-1.8959,-1.9168,-1.9376,-1.9576,-1.968,-1.9776,-1.9879,-1.9879,-1.9983,-2.0189,-2.03,-2.0197,-2.0094,-2.0086,-2.0078,-2.0078,-2.0078,-2.0078,-2.0078,-2.0078,-2.0189,-2.0308,-2.0522,-2.0617,-2.0719,-2.0925,-2.0925,-2.0925,-2.0925,-2.0925,-2.0925,-2.0925,-2.0925,-2.0917,-2.1121,-2.1121,-2.1224,-2.1522,-2.1623,-2.1725,-2.1928,-2.2021,-2.2232,0.0,0.0,0.0,0.0,0.0,-0.5895,0.0,0.0,0.0,-0.695,-0.7321,0.0,0.0,0.0,0.0,0.0,0.0,0.0,0.0,0.0,0.0,0.0,0.0,0.0,0.0,-1.6824,-1.7276,-1.8071,-1.8288,-1.8417,-1.8409,-1.8432,-1.8506,-1.8506,-1.86,-1.889,-1.9212,-1.9229,-1.9301,-1.9301,-1.8922,-1.87,-1.87,-1.7797,-1.778,-1.837,-1.7684,-1.773,-1.8087,-1.7815,-1.7441,-1.6972,-1.6508,-1.6319,-1.6218,-1.6021,-1.592,-1.592,-1.592,-1.6123,-1.6312,-1.6312,-1.6536,-1.6845,-1.7308,-1.7775,-1.8337,-1.8977,-1.9279,-1.948,-1.968,-1.9983,-2.0078,-2.0078,-2.0189,-2.0189,-2.0189,-2.0189,-2.0292,-2.0514,-2.0617,-2.0514,-2.0292,-2.0292,-2.0292,-2.0292,-2.0292,-2.0292,-2.0292,-2.0403,-2.0617,-2.0617,-2.0822,-2.0925,-2.0925,-2.0925,-2.0925,-2.0925,-2.0925,-2.0925,-2.1019,-2.1027,-2.1121,-2.1318,-2.142,-2.1522,-2.1827,-2.2021,-2.2123,-2.2123,-2.2131,-2.2333,0.0,0.0,0.0,0.0,-0.613,0.0,0.0,0.0,-0.7021,-0.7356,0.0,0.0,0.0,0.0,0.0,0.0,0.0,0.0,0.0,0.0,0.0,0.0,0.0,0.0,0.0,-1.6512,-1.7028,-1.7131,-1.7926,-1.8284,-1.7976,-1.8338,-1.8367,-1.8086,-1.8447,-1.8748,-1.8796,-1.9081,-1.9301,-1.9301,-1.8922,-1.87,-1.87,-1.7951,-1.7938,-1.837,-1.7866,-1.7827,-1.8087,-1.7815,-1.7527,-1.7239,-1.6972,-1.6784,-1.6588,-1.6487,-1.6487,-1.6487,-1.6487,-1.6494,-1.6588,-1.6588,-1.6873,-1.7502,-1.8296,-1.8824,-1.9152,-1.9789,-1.9983,-1.9983,-2.0086,-2.0078,-2.0078,-2.0078,-2.03,-2.0411,-2.0411,-2.0617,-2.0814,-2.0814,-2.0814,-2.0822,-2.0814,-2.0814,-2.0814,-2.0814,-2.0814,-2.0814,-2.0814,-2.0822,-2.0814,-2.0814,-2.0925,-2.0925,-2.0925,-2.0925,-2.0925,-2.0925,-2.0925,-2.1027,-2.1224,-2.1522,-2.1623,-2.1623,-2.1623,-2.1827,-2.2021,-2.2131,-2.2123,-2.2131,-2.2434,-2.2544,0.0,0.0,0.0,0.0,0.0,0.0,-0.681,0.0,-0.7356,0.0,0.0,0.0,0.0,0.0,0.0,0.0,-1.0545,0.0,0.0,0.0,0.0,0.0,0.0,0.0,0.0,0.0,0.0,0.0,-1.7243,-1.7708,-1.7985,-1.8067,-1.8155,-1.8202,-1.8634,-1.8794,-1.873,-1.9226,-1.939,-1.9301,-1.8922,-1.87,-1.8709,-1.8263,-1.8146,-1.8387,-1.8353,-1.8292,-1.8288,-1.8001,-1.7807,-1.7527,-1.7246,-1.7059,-1.6784,-1.6683,-1.6588,-1.6588,-1.6588,-1.6683,-1.6907,-1.7363,-1.783,-1.828,-1.9052,-1.9532,-1.98,-2.004,-2.0189,-2.0403,-2.0506,-2.0704,-2.0806,-2.1003,-2.1113,-2.1224,-2.1224,-2.1326,-2.1326,-2.1326,-2.1326,-2.1326,-2.1326,-2.1121,-2.0925,-2.0925,-2.0925,-2.0925,-2.0925,-2.0925,-2.0925,-2.0925,-2.0925,-2.0917,-2.1121,-2.1121,-2.1224,-2.1318,-2.1326,-2.142,-2.1522,-2.1623,-2.1725,-2.1928,-2.192,-2.2131,-2.2434,-2.2434,-2.2434,-2.2434,-2.2544,-2.2644,-0.5922,0.0,0.0,0.0,0.0,0.0,0.0,0.0,0.0,0.0,0.0,0.0,0.0,0.0,-0.9527,-0.9813,0.0,-1.0894,0.0,0.0,0.0,0.0,0.0,0.0,0.0,0.0,0.0,0.0,0.0,-1.7193,-1.79,-1.7954,-1.8097,-1.8327,-1.8767,-1.9004,-1.8794,-1.9313,-1.9557,-1.939,-1.9002,-1.8772,-1.8709,-1.8516,-1.8465,-1.8481,-1.8692,-1.8707,-1.8566,-1.828,-1.8094,-1.7815,-1.7613,-1.7434,-1.7254,-1.6965,-1.677,-1.677,-1.6871,-1.7124,-1.753,-1.823,-1.8656,-1.9094,-1.9643,-2.0107,-2.0292,-2.0388,-2.0601,-2.0917,-2.1019,-2.1224,-2.142,-2.1623,-2.1725,-2.1725,-2.1725,-2.1725,-2.1725,-2.1725,-2.1725,-2.1725,-2.1725,-2.142,-2.1121,-2.1121,-2.1121,-2.1121,-2.1121,-2.1121,-2.1121,-2.1121,-2.1121,-2.1224,-2.142,-2.1428,-2.1522,-2.1725,-2.1725,-2.1827,-2.1827,-2.1928,-2.203,-2.2232,-2.2232,-2.2342,-2.2644,-2.2644,-2.2644,-2.2644,-2.2644,-2.2644,0.0,0.0,0.0,-0.6937,0.0,0.0,0.0,0.0,-0.807,0.0,0.0,0.0,0.0,-0.9475,-0.9793,-1.0049,-1.0283,0.0,0.0,0.0,0.0,0.0,0.0,0.0,0.0,0.0,0.0,0.0,0.0,0.0,-1.7513,-1.79,-1.8142,-1.8327,-1.8899,-1.9131,-1.9014,-1.939,-1.9566,-1.9566,-1.9161,-1.8922,-1.8709,-1.8845,-1.8819,-1.8765,-1.8957,-1.8864,-1.8735,-1.8566,-1.8288,-1.8087,-1.8087,-1.8087,-1.7994,-1.7426,-1.7232,-1.7333,-1.7535,-1.8025,-1.8636,-1.8972,-1.9315,-1.9651,-2.0295,-2.0712,-2.0917,-2.1224,-2.142,-2.1623,-2.1623,-2.1725,-2.1725,-2.1725,-2.1725,-2.1725,-2.1725,-2.1725,-2.1725,-2.1725,-2.1725,-2.1725,-2.1725,-2.1725,-2.1623,-2.1623,-2.1623,-2.1623,-2.1623,-2.1623,-2.1623,-2.1623,-2.1623,-2.1725,-2.1725,-2.1725,-2.1725,-2.1725,-2.1928,-2.2131,-2.2131,-2.2434,-2.2544,-2.2544,-2.2544,-2.2544,-2.2644,-2.2644,-2.2644,-2.2644,-2.2644,-2.2644,0.0,0.0,-0.7562,-0.7595,0.0,0.0,0.0,0.0,0.0,0.0,0.0,0.0,0.0,-0.9674,-0.9862,-1.0166,-1.0418,-1.0687,0.0,0.0,0.0,0.0,0.0,0.0,0.0,0.0,0.0,0.0,0.0,0.0,0.0,-1.7421,-1.7782,-1.8041,-1.8983,-1.9297,-1.9004,-1.9534,-1.9715,-1.9566,-1.9161,-1.8977,-1.9073,-1.9213,-1.9264,-1.9205,-1.9494,-1.9356,-1.9012,-1.8827,-1.8558,-1.8381,-1.8179,-1.8087,-1.8087,-1.79,-1.78,-1.783,-1.8157,-1.8404,-1.8778,-1.9634,-1.9998,-2.0263,-2.1017,-2.1326,-2.1428,-2.1522,-2.1623,-2.1725,-2.1928,-2.1928,-2.203,-2.2241,-2.2342,-2.2342,-2.2342,-2.2342,-2.2342,-2.2342,-2.2342,-2.2342,-2.2342,-2.2342,-2.2139,-2.1725,-2.1725,-2.1725,-2.1725,-2.1725,-2.1725,-2.1725,-2.1725,-2.1725,-2.1928,-2.2131,-2.2342,-2.2342,-2.2342,-2.2443,-2.2443,-2.2544,-2.2644,-2.2644,-2.2644,-2.2644,-2.2644,-2.2644,-2.2644,-2.2644,-2.2644,-2.2644,-0.7465,-0.7908,0.0,-0.8179,-0.8408,0.0,-0.8563,0.0,0.0,0.0,0.0,0.0,0.0,0.0,-1.0049,-1.0312,-1.0572,-1.0878,0.0,-1.141,0.0,0.0,0.0,0.0,0.0,0.0,0.0,0.0,0.0,0.0,0.0,0.0,-1.7738,-1.794,-1.8973,-1.9377,-1.9234,-1.9611,-1.9722,-1.9715,-1.9399,-1.9281,-1.9342,-1.9498,-1.9627,-1.9664,-1.9859,-1.9745,-1.9379,-1.9096,-1.8835,-1.8751,-1.8458,-1.8458,-1.8458,-1.8179,-1.8179,-1.8326,-1.8752,-1.905,-1.9349,-2.04,-2.0772,-2.0917,-2.1558,-2.1725,-2.1827,-2.1928,-2.203,-2.2232,-2.2535,-2.2535,-2.2636,-2.2846,-2.2846,-2.2846,-2.2846,-2.2846,-2.2846,-2.2846,-2.2846,-2.2846,-2.2846,-2.2846,-2.2544,-2.2131,-2.203,-2.203,-2.203,-2.203,-2.203,-2.203,-2.203,-2.2131,-2.2232,-2.2443,-2.2644,-2.2644,-2.2644,-2.2644,-2.2644,-2.2644,-2.2644,-2.2644,-2.2644,-2.2644,-2.2644,-2.2644,-2.2644,-2.2644,-2.2644,-2.2644]}]]